<?xml version="1.0" encoding="UTF-8" standalone="no" ?>
<gpx xmlns="http://www.topografix.com/GPX/1/1" xmlns:xsi="http://www.w3.org/2001/XMLSchema-instance" xsi:schemaLocation="http://www.topografix.com/GPX/1/1 http://www.topografix.com/GPX/1/1/gpx.xsd" version="1.1" creator="VisuGPX - https://www.visugpx.com">
  <metadata>
    <name>ski rando Col du Sabot</name>
    <desc><![CDATA[
]]></desc>
  </metadata>
  <trk>
    <name><![CDATA[ski rando Col du Sabot]]></name>
    <trkseg>
      <trkpt lat="45.16867" lon="6.09457">
        <ele>1417.5999755859</ele>
        <time>2012-01-08T08:29:59.000Z</time>
      </trkpt>
      <trkpt lat="45.16867" lon="6.09457">
        <ele>1417.5999755859</ele>
        <time>2012-01-08T08:30:00.000Z</time>
      </trkpt>
      <trkpt lat="45.16866" lon="6.09456">
        <ele>1417.5999755859</ele>
        <time>2012-01-08T08:30:09.000Z</time>
      </trkpt>
      <trkpt lat="45.16865" lon="6.09454">
        <ele>1416.8000488281</ele>
        <time>2012-01-08T08:30:13.000Z</time>
      </trkpt>
      <trkpt lat="45.16859" lon="6.0945">
        <ele>1417.1999511719</ele>
        <time>2012-01-08T08:30:20.000Z</time>
      </trkpt>
      <trkpt lat="45.16856" lon="6.09446">
        <ele>1417.1999511719</ele>
        <time>2012-01-08T08:30:30.000Z</time>
      </trkpt>
      <trkpt lat="45.16856" lon="6.09446">
        <ele>1417.4000244141</ele>
        <time>2012-01-08T08:30:31.000Z</time>
      </trkpt>
      <trkpt lat="45.16851" lon="6.09441">
        <ele>1418.1999511719</ele>
        <time>2012-01-08T08:30:38.000Z</time>
      </trkpt>
      <trkpt lat="45.16849" lon="6.09438">
        <ele>1418.4000244141</ele>
        <time>2012-01-08T08:30:43.000Z</time>
      </trkpt>
      <trkpt lat="45.16845" lon="6.09433">
        <ele>1419.4000244141</ele>
        <time>2012-01-08T08:30:50.000Z</time>
      </trkpt>
      <trkpt lat="45.16846" lon="6.09429">
        <ele>1420.4000244141</ele>
        <time>2012-01-08T08:30:54.000Z</time>
      </trkpt>
      <trkpt lat="45.16856" lon="6.0943">
        <ele>1421.4000244141</ele>
        <time>2012-01-08T08:31:02.000Z</time>
      </trkpt>
      <trkpt lat="45.16864" lon="6.09432">
        <ele>1422.5999755859</ele>
        <time>2012-01-08T08:31:12.000Z</time>
      </trkpt>
      <trkpt lat="45.16865" lon="6.09438">
        <ele>1423</ele>
        <time>2012-01-08T08:31:25.000Z</time>
      </trkpt>
      <trkpt lat="45.16862" lon="6.09438">
        <ele>1423.1999511719</ele>
        <time>2012-01-08T08:31:51.000Z</time>
      </trkpt>
      <trkpt lat="45.16863" lon="6.0944">
        <ele>1423.5999755859</ele>
        <time>2012-01-08T08:32:07.000Z</time>
      </trkpt>
      <trkpt lat="45.16869" lon="6.09441">
        <ele>1424.1999511719</ele>
        <time>2012-01-08T08:32:17.000Z</time>
      </trkpt>
      <trkpt lat="45.16875" lon="6.09439">
        <ele>1424.5999755859</ele>
        <time>2012-01-08T08:32:21.000Z</time>
      </trkpt>
      <trkpt lat="45.16882" lon="6.09441">
        <ele>1425.4000244141</ele>
        <time>2012-01-08T08:32:29.000Z</time>
      </trkpt>
      <trkpt lat="45.16887" lon="6.09445">
        <ele>1426.1999511719</ele>
        <time>2012-01-08T08:32:36.000Z</time>
      </trkpt>
      <trkpt lat="45.16893" lon="6.09447">
        <ele>1427</ele>
        <time>2012-01-08T08:32:43.000Z</time>
      </trkpt>
      <trkpt lat="45.16895" lon="6.09449">
        <ele>1424.4000244141</ele>
        <time>2012-01-08T08:32:48.000Z</time>
      </trkpt>
      <trkpt lat="45.16899" lon="6.09451">
        <ele>1428</ele>
        <time>2012-01-08T08:32:53.000Z</time>
      </trkpt>
      <trkpt lat="45.16906" lon="6.09453">
        <ele>1428.5999755859</ele>
        <time>2012-01-08T08:33:00.000Z</time>
      </trkpt>
      <trkpt lat="45.16911" lon="6.09456">
        <ele>1429.1999511719</ele>
        <time>2012-01-08T08:33:06.000Z</time>
      </trkpt>
      <trkpt lat="45.16917" lon="6.09454">
        <ele>1430.1999511719</ele>
        <time>2012-01-08T08:33:13.000Z</time>
      </trkpt>
      <trkpt lat="45.16923" lon="6.09455">
        <ele>1431</ele>
        <time>2012-01-08T08:33:22.000Z</time>
      </trkpt>
      <trkpt lat="45.16928" lon="6.09456">
        <ele>1431.1999511719</ele>
        <time>2012-01-08T08:33:32.000Z</time>
      </trkpt>
      <trkpt lat="45.16931" lon="6.09457">
        <ele>1431.5999755859</ele>
        <time>2012-01-08T08:33:39.000Z</time>
      </trkpt>
      <trkpt lat="45.16937" lon="6.09459">
        <ele>1432.4000244141</ele>
        <time>2012-01-08T08:33:47.000Z</time>
      </trkpt>
      <trkpt lat="45.16938" lon="6.0946">
        <ele>1432.5999755859</ele>
        <time>2012-01-08T08:33:48.000Z</time>
      </trkpt>
      <trkpt lat="45.16942" lon="6.09461">
        <ele>1433</ele>
        <time>2012-01-08T08:33:53.000Z</time>
      </trkpt>
      <trkpt lat="45.1695" lon="6.09461">
        <ele>1434.1999511719</ele>
        <time>2012-01-08T08:34:02.000Z</time>
      </trkpt>
      <trkpt lat="45.16955" lon="6.09463">
        <ele>1435.1999511719</ele>
        <time>2012-01-08T08:34:11.000Z</time>
      </trkpt>
      <trkpt lat="45.16961" lon="6.09463">
        <ele>1436.4000244141</ele>
        <time>2012-01-08T08:34:20.000Z</time>
      </trkpt>
      <trkpt lat="45.16964" lon="6.09465">
        <ele>1437</ele>
        <time>2012-01-08T08:34:27.000Z</time>
      </trkpt>
      <trkpt lat="45.16967" lon="6.09464">
        <ele>1437.5999755859</ele>
        <time>2012-01-08T08:34:36.000Z</time>
      </trkpt>
      <trkpt lat="45.16971" lon="6.09463">
        <ele>1438.1999511719</ele>
        <time>2012-01-08T08:34:42.000Z</time>
      </trkpt>
      <trkpt lat="45.16976" lon="6.09462">
        <ele>1439.1999511719</ele>
        <time>2012-01-08T08:34:50.000Z</time>
      </trkpt>
      <trkpt lat="45.16981" lon="6.09463">
        <ele>1440.5999755859</ele>
        <time>2012-01-08T08:34:58.000Z</time>
      </trkpt>
      <trkpt lat="45.16987" lon="6.09465">
        <ele>1442</ele>
        <time>2012-01-08T08:35:07.000Z</time>
      </trkpt>
      <trkpt lat="45.16993" lon="6.09467">
        <ele>1443.4000244141</ele>
        <time>2012-01-08T08:35:16.000Z</time>
      </trkpt>
      <trkpt lat="45.16997" lon="6.09468">
        <ele>1444.5999755859</ele>
        <time>2012-01-08T08:35:24.000Z</time>
      </trkpt>
      <trkpt lat="45.17002" lon="6.09468">
        <ele>1445.5999755859</ele>
        <time>2012-01-08T08:35:32.000Z</time>
      </trkpt>
      <trkpt lat="45.17008" lon="6.09467">
        <ele>1446.5999755859</ele>
        <time>2012-01-08T08:35:40.000Z</time>
      </trkpt>
      <trkpt lat="45.17011" lon="6.09467">
        <ele>1447.1999511719</ele>
        <time>2012-01-08T08:35:46.000Z</time>
      </trkpt>
      <trkpt lat="45.17018" lon="6.0947">
        <ele>1448.5999755859</ele>
        <time>2012-01-08T08:35:55.000Z</time>
      </trkpt>
      <trkpt lat="45.17021" lon="6.0947">
        <ele>1449.1999511719</ele>
        <time>2012-01-08T08:36:00.000Z</time>
      </trkpt>
      <trkpt lat="45.17025" lon="6.0947">
        <ele>1450.4000244141</ele>
        <time>2012-01-08T08:36:06.000Z</time>
      </trkpt>
      <trkpt lat="45.17032" lon="6.09471">
        <ele>1451.8000488281</ele>
        <time>2012-01-08T08:36:15.000Z</time>
      </trkpt>
      <trkpt lat="45.17037" lon="6.09472">
        <ele>1452.8000488281</ele>
        <time>2012-01-08T08:36:22.000Z</time>
      </trkpt>
      <trkpt lat="45.17042" lon="6.09472">
        <ele>1454</ele>
        <time>2012-01-08T08:36:29.000Z</time>
      </trkpt>
      <trkpt lat="45.17049" lon="6.09472">
        <ele>1455.1999511719</ele>
        <time>2012-01-08T08:36:38.000Z</time>
      </trkpt>
      <trkpt lat="45.17054" lon="6.09475">
        <ele>1456.5999755859</ele>
        <time>2012-01-08T08:36:46.000Z</time>
      </trkpt>
      <trkpt lat="45.1706" lon="6.09478">
        <ele>1458.4000244141</ele>
        <time>2012-01-08T08:36:55.000Z</time>
      </trkpt>
      <trkpt lat="45.17068" lon="6.09479">
        <ele>1458.8000488281</ele>
        <time>2012-01-08T08:37:03.000Z</time>
      </trkpt>
      <trkpt lat="45.17072" lon="6.09479">
        <ele>1458.4000244141</ele>
        <time>2012-01-08T08:37:18.000Z</time>
      </trkpt>
      <trkpt lat="45.17071" lon="6.09481">
        <ele>1458.8000488281</ele>
        <time>2012-01-08T08:37:25.000Z</time>
      </trkpt>
      <trkpt lat="45.17071" lon="6.09482">
        <ele>1458.5999755859</ele>
        <time>2012-01-08T08:37:32.000Z</time>
      </trkpt>
      <trkpt lat="45.17074" lon="6.09486">
        <ele>1459</ele>
        <time>2012-01-08T08:37:39.000Z</time>
      </trkpt>
      <trkpt lat="45.17076" lon="6.09489">
        <ele>1459.4000244141</ele>
        <time>2012-01-08T08:37:43.000Z</time>
      </trkpt>
      <trkpt lat="45.17081" lon="6.09499">
        <ele>1461.8000488281</ele>
        <time>2012-01-08T08:37:53.000Z</time>
      </trkpt>
      <trkpt lat="45.17085" lon="6.09508">
        <ele>1463.5999755859</ele>
        <time>2012-01-08T08:38:02.000Z</time>
      </trkpt>
      <trkpt lat="45.17088" lon="6.09515">
        <ele>1465.4000244141</ele>
        <time>2012-01-08T08:38:10.000Z</time>
      </trkpt>
      <trkpt lat="45.17093" lon="6.09524">
        <ele>1467.1999511719</ele>
        <time>2012-01-08T08:38:20.000Z</time>
      </trkpt>
      <trkpt lat="45.17099" lon="6.09526">
        <ele>1468.5999755859</ele>
        <time>2012-01-08T08:38:29.000Z</time>
      </trkpt>
      <trkpt lat="45.17106" lon="6.09528">
        <ele>1470.5999755859</ele>
        <time>2012-01-08T08:38:39.000Z</time>
      </trkpt>
      <trkpt lat="45.17112" lon="6.0953">
        <ele>1472.1999511719</ele>
        <time>2012-01-08T08:38:48.000Z</time>
      </trkpt>
      <trkpt lat="45.17118" lon="6.09531">
        <ele>1474</ele>
        <time>2012-01-08T08:38:57.000Z</time>
      </trkpt>
      <trkpt lat="45.17124" lon="6.0953">
        <ele>1475.4000244141</ele>
        <time>2012-01-08T08:39:05.000Z</time>
      </trkpt>
      <trkpt lat="45.17133" lon="6.09522">
        <ele>1477.1999511719</ele>
        <time>2012-01-08T08:40:38.000Z</time>
      </trkpt>
      <trkpt lat="45.17136" lon="6.09519">
        <ele>1478.1999511719</ele>
        <time>2012-01-08T08:40:44.000Z</time>
      </trkpt>
      <trkpt lat="45.17139" lon="6.09516">
        <ele>1479.8000488281</ele>
        <time>2012-01-08T08:40:50.000Z</time>
      </trkpt>
      <trkpt lat="45.17144" lon="6.09512">
        <ele>1481.5999755859</ele>
        <time>2012-01-08T08:40:59.000Z</time>
      </trkpt>
      <trkpt lat="45.17147" lon="6.0951">
        <ele>1483</ele>
        <time>2012-01-08T08:41:05.000Z</time>
      </trkpt>
      <trkpt lat="45.1715" lon="6.09509">
        <ele>1484</ele>
        <time>2012-01-08T08:41:11.000Z</time>
      </trkpt>
      <trkpt lat="45.17152" lon="6.09507">
        <ele>1484.8000488281</ele>
        <time>2012-01-08T08:41:16.000Z</time>
      </trkpt>
      <trkpt lat="45.17154" lon="6.09502">
        <ele>1486</ele>
        <time>2012-01-08T08:41:23.000Z</time>
      </trkpt>
      <trkpt lat="45.17156" lon="6.09497">
        <ele>1487</ele>
        <time>2012-01-08T08:41:29.000Z</time>
      </trkpt>
      <trkpt lat="45.17158" lon="6.09491">
        <ele>1488.5999755859</ele>
        <time>2012-01-08T08:41:37.000Z</time>
      </trkpt>
      <trkpt lat="45.17162" lon="6.09486">
        <ele>1490</ele>
        <time>2012-01-08T08:41:44.000Z</time>
      </trkpt>
      <trkpt lat="45.17164" lon="6.0948">
        <ele>1491.4000244141</ele>
        <time>2012-01-08T08:41:52.000Z</time>
      </trkpt>
      <trkpt lat="45.17167" lon="6.09475">
        <ele>1492.8000488281</ele>
        <time>2012-01-08T08:41:59.000Z</time>
      </trkpt>
      <trkpt lat="45.17171" lon="6.09469">
        <ele>1494.1999511719</ele>
        <time>2012-01-08T08:42:07.000Z</time>
      </trkpt>
      <trkpt lat="45.17175" lon="6.09462">
        <ele>1495.8000488281</ele>
        <time>2012-01-08T08:42:17.000Z</time>
      </trkpt>
      <trkpt lat="45.17177" lon="6.09458">
        <ele>1496.1999511719</ele>
        <time>2012-01-08T08:42:22.000Z</time>
      </trkpt>
      <trkpt lat="45.17181" lon="6.09451">
        <ele>1496.8000488281</ele>
        <time>2012-01-08T08:42:30.000Z</time>
      </trkpt>
      <trkpt lat="45.17185" lon="6.09447">
        <ele>1498.1999511719</ele>
        <time>2012-01-08T08:42:37.000Z</time>
      </trkpt>
      <trkpt lat="45.17188" lon="6.09444">
        <ele>1499.4000244141</ele>
        <time>2012-01-08T08:42:42.000Z</time>
      </trkpt>
      <trkpt lat="45.1719" lon="6.09439">
        <ele>1500.5999755859</ele>
        <time>2012-01-08T08:42:47.000Z</time>
      </trkpt>
      <trkpt lat="45.17191" lon="6.09437">
        <ele>1501.5999755859</ele>
        <time>2012-01-08T08:42:57.000Z</time>
      </trkpt>
      <trkpt lat="45.17197" lon="6.09431">
        <ele>1502.1999511719</ele>
        <time>2012-01-08T08:43:11.000Z</time>
      </trkpt>
      <trkpt lat="45.17197" lon="6.09429">
        <ele>1502.5999755859</ele>
        <time>2012-01-08T08:43:18.000Z</time>
      </trkpt>
      <trkpt lat="45.17197" lon="6.09421">
        <ele>1502.8000488281</ele>
        <time>2012-01-08T08:43:27.000Z</time>
      </trkpt>
      <trkpt lat="45.17196" lon="6.09418">
        <ele>1502.8000488281</ele>
        <time>2012-01-08T08:43:29.000Z</time>
      </trkpt>
      <trkpt lat="45.17196" lon="6.09415">
        <ele>1502.8000488281</ele>
        <time>2012-01-08T08:43:31.000Z</time>
      </trkpt>
      <trkpt lat="45.17193" lon="6.094">
        <ele>1504</ele>
        <time>2012-01-08T08:43:41.000Z</time>
      </trkpt>
      <trkpt lat="45.1719" lon="6.09387">
        <ele>1504.4000244141</ele>
        <time>2012-01-08T08:43:49.000Z</time>
      </trkpt>
      <trkpt lat="45.17185" lon="6.09378">
        <ele>1506</ele>
        <time>2012-01-08T08:43:58.000Z</time>
      </trkpt>
      <trkpt lat="45.17182" lon="6.09373">
        <ele>1507.5999755859</ele>
        <time>2012-01-08T08:44:06.000Z</time>
      </trkpt>
      <trkpt lat="45.1718" lon="6.09369">
        <ele>1508.4000244141</ele>
        <time>2012-01-08T08:44:11.000Z</time>
      </trkpt>
      <trkpt lat="45.17176" lon="6.0936">
        <ele>1510.4000244141</ele>
        <time>2012-01-08T08:44:20.000Z</time>
      </trkpt>
      <trkpt lat="45.17175" lon="6.09355">
        <ele>1511.5999755859</ele>
        <time>2012-01-08T08:44:28.000Z</time>
      </trkpt>
      <trkpt lat="45.17173" lon="6.09352">
        <ele>1512.8000488281</ele>
        <time>2012-01-08T08:44:35.000Z</time>
      </trkpt>
      <trkpt lat="45.1717" lon="6.09347">
        <ele>1513.5999755859</ele>
        <time>2012-01-08T08:44:40.000Z</time>
      </trkpt>
      <trkpt lat="45.17167" lon="6.09341">
        <ele>1514.8000488281</ele>
        <time>2012-01-08T08:44:47.000Z</time>
      </trkpt>
      <trkpt lat="45.17165" lon="6.09337">
        <ele>1516</ele>
        <time>2012-01-08T08:44:53.000Z</time>
      </trkpt>
      <trkpt lat="45.17163" lon="6.09332">
        <ele>1516.8000488281</ele>
        <time>2012-01-08T08:44:58.000Z</time>
      </trkpt>
      <trkpt lat="45.17161" lon="6.09329">
        <ele>1517.4000244141</ele>
        <time>2012-01-08T08:45:02.000Z</time>
      </trkpt>
      <trkpt lat="45.17161" lon="6.09328">
        <ele>1517.5999755859</ele>
        <time>2012-01-08T08:45:03.000Z</time>
      </trkpt>
      <trkpt lat="45.17158" lon="6.09322">
        <ele>1518.8000488281</ele>
        <time>2012-01-08T08:45:09.000Z</time>
      </trkpt>
      <trkpt lat="45.17155" lon="6.09318">
        <ele>1519.8000488281</ele>
        <time>2012-01-08T08:45:14.000Z</time>
      </trkpt>
      <trkpt lat="45.17152" lon="6.09311">
        <ele>1521.4000244141</ele>
        <time>2012-01-08T08:45:23.000Z</time>
      </trkpt>
      <trkpt lat="45.17152" lon="6.09307">
        <ele>1522.1999511719</ele>
        <time>2012-01-08T08:45:33.000Z</time>
      </trkpt>
      <trkpt lat="45.17157" lon="6.09311">
        <ele>1522.5999755859</ele>
        <time>2012-01-08T08:45:41.000Z</time>
      </trkpt>
      <trkpt lat="45.17166" lon="6.09319">
        <ele>1524.4000244141</ele>
        <time>2012-01-08T08:49:40.000Z</time>
      </trkpt>
      <trkpt lat="45.17167" lon="6.0932">
        <ele>1524.5999755859</ele>
        <time>2012-01-08T08:49:43.000Z</time>
      </trkpt>
      <trkpt lat="45.17177" lon="6.09326">
        <ele>1525.5999755859</ele>
        <time>2012-01-08T08:49:54.000Z</time>
      </trkpt>
      <trkpt lat="45.17183" lon="6.09329">
        <ele>1526.4000244141</ele>
        <time>2012-01-08T08:50:02.000Z</time>
      </trkpt>
      <trkpt lat="45.17188" lon="6.09335">
        <ele>1527.1999511719</ele>
        <time>2012-01-08T08:50:10.000Z</time>
      </trkpt>
      <trkpt lat="45.17191" lon="6.09337">
        <ele>1528</ele>
        <time>2012-01-08T08:50:16.000Z</time>
      </trkpt>
      <trkpt lat="45.17198" lon="6.09342">
        <ele>1529</ele>
        <time>2012-01-08T08:50:26.000Z</time>
      </trkpt>
      <trkpt lat="45.17205" lon="6.09345">
        <ele>1529.5999755859</ele>
        <time>2012-01-08T08:50:34.000Z</time>
      </trkpt>
      <trkpt lat="45.17212" lon="6.09349">
        <ele>1530.8000488281</ele>
        <time>2012-01-08T08:50:44.000Z</time>
      </trkpt>
      <trkpt lat="45.17218" lon="6.09353">
        <ele>1531.4000244141</ele>
        <time>2012-01-08T08:50:52.000Z</time>
      </trkpt>
      <trkpt lat="45.1722" lon="6.09356">
        <ele>1532.4000244141</ele>
        <time>2012-01-08T08:51:00.000Z</time>
      </trkpt>
      <trkpt lat="45.17225" lon="6.09359">
        <ele>1533</ele>
        <time>2012-01-08T08:51:09.000Z</time>
      </trkpt>
      <trkpt lat="45.17232" lon="6.09365">
        <ele>1534.1999511719</ele>
        <time>2012-01-08T08:51:19.000Z</time>
      </trkpt>
      <trkpt lat="45.17238" lon="6.09369">
        <ele>1535</ele>
        <time>2012-01-08T08:51:28.000Z</time>
      </trkpt>
      <trkpt lat="45.17245" lon="6.09373">
        <ele>1535.4000244141</ele>
        <time>2012-01-08T08:51:36.000Z</time>
      </trkpt>
      <trkpt lat="45.17248" lon="6.09374">
        <ele>1535.5999755859</ele>
        <time>2012-01-08T08:51:44.000Z</time>
      </trkpt>
      <trkpt lat="45.17251" lon="6.09372">
        <ele>1536.1999511719</ele>
        <time>2012-01-08T08:51:55.000Z</time>
      </trkpt>
      <trkpt lat="45.17253" lon="6.09372">
        <ele>1537.1999511719</ele>
        <time>2012-01-08T08:51:59.000Z</time>
      </trkpt>
      <trkpt lat="45.17257" lon="6.09375">
        <ele>1539.1999511719</ele>
        <time>2012-01-08T08:52:07.000Z</time>
      </trkpt>
      <trkpt lat="45.17261" lon="6.09376">
        <ele>1540.1999511719</ele>
        <time>2012-01-08T08:52:13.000Z</time>
      </trkpt>
      <trkpt lat="45.17266" lon="6.09374">
        <ele>1541.1999511719</ele>
        <time>2012-01-08T08:52:19.000Z</time>
      </trkpt>
      <trkpt lat="45.17269" lon="6.09376">
        <ele>1542.4000244141</ele>
        <time>2012-01-08T08:52:26.000Z</time>
      </trkpt>
      <trkpt lat="45.17272" lon="6.09378">
        <ele>1543.4000244141</ele>
        <time>2012-01-08T08:52:32.000Z</time>
      </trkpt>
      <trkpt lat="45.17278" lon="6.09378">
        <ele>1545.4000244141</ele>
        <time>2012-01-08T08:52:43.000Z</time>
      </trkpt>
      <trkpt lat="45.17283" lon="6.09378">
        <ele>1547</ele>
        <time>2012-01-08T08:52:52.000Z</time>
      </trkpt>
      <trkpt lat="45.17287" lon="6.09379">
        <ele>1548.1999511719</ele>
        <time>2012-01-08T08:52:59.000Z</time>
      </trkpt>
      <trkpt lat="45.17292" lon="6.0938">
        <ele>1549.1999511719</ele>
        <time>2012-01-08T08:53:07.000Z</time>
      </trkpt>
      <trkpt lat="45.17295" lon="6.09379">
        <ele>1550.1999511719</ele>
        <time>2012-01-08T08:53:13.000Z</time>
      </trkpt>
      <trkpt lat="45.17298" lon="6.09378">
        <ele>1550.8000488281</ele>
        <time>2012-01-08T08:53:21.000Z</time>
      </trkpt>
      <trkpt lat="45.17298" lon="6.09373">
        <ele>1551.8000488281</ele>
        <time>2012-01-08T08:53:29.000Z</time>
      </trkpt>
      <trkpt lat="45.17296" lon="6.09369">
        <ele>1552.5999755859</ele>
        <time>2012-01-08T08:53:34.000Z</time>
      </trkpt>
      <trkpt lat="45.17295" lon="6.09365">
        <ele>1553.5999755859</ele>
        <time>2012-01-08T08:53:45.000Z</time>
      </trkpt>
      <trkpt lat="45.17297" lon="6.09362">
        <ele>1554.5999755859</ele>
        <time>2012-01-08T08:53:52.000Z</time>
      </trkpt>
      <trkpt lat="45.17297" lon="6.09361">
        <ele>1554.5999755859</ele>
        <time>2012-01-08T08:53:53.000Z</time>
      </trkpt>
      <trkpt lat="45.17303" lon="6.09363">
        <ele>1556.8000488281</ele>
        <time>2012-01-08T08:54:02.000Z</time>
      </trkpt>
      <trkpt lat="45.17308" lon="6.09362">
        <ele>1558</ele>
        <time>2012-01-08T08:54:08.000Z</time>
      </trkpt>
      <trkpt lat="45.17313" lon="6.09362">
        <ele>1559.4000244141</ele>
        <time>2012-01-08T08:54:15.000Z</time>
      </trkpt>
      <trkpt lat="45.17316" lon="6.09363">
        <ele>1560.4000244141</ele>
        <time>2012-01-08T08:54:21.000Z</time>
      </trkpt>
      <trkpt lat="45.1732" lon="6.09364">
        <ele>1561.4000244141</ele>
        <time>2012-01-08T08:54:28.000Z</time>
      </trkpt>
      <trkpt lat="45.17326" lon="6.09369">
        <ele>1563.1999511719</ele>
        <time>2012-01-08T08:54:39.000Z</time>
      </trkpt>
      <trkpt lat="45.1733" lon="6.09371">
        <ele>1564.1999511719</ele>
        <time>2012-01-08T08:54:49.000Z</time>
      </trkpt>
      <trkpt lat="45.17334" lon="6.09372">
        <ele>1565.8000488281</ele>
        <time>2012-01-08T08:54:55.000Z</time>
      </trkpt>
      <trkpt lat="45.17339" lon="6.09376">
        <ele>1567.5999755859</ele>
        <time>2012-01-08T08:55:04.000Z</time>
      </trkpt>
      <trkpt lat="45.17342" lon="6.09379">
        <ele>1568.8000488281</ele>
        <time>2012-01-08T08:55:10.000Z</time>
      </trkpt>
      <trkpt lat="45.17345" lon="6.0938">
        <ele>1569.8000488281</ele>
        <time>2012-01-08T08:55:16.000Z</time>
      </trkpt>
      <trkpt lat="45.17349" lon="6.09378">
        <ele>1570.5999755859</ele>
        <time>2012-01-08T08:55:23.000Z</time>
      </trkpt>
      <trkpt lat="45.17353" lon="6.09374">
        <ele>1572.5999755859</ele>
        <time>2012-01-08T08:55:31.000Z</time>
      </trkpt>
      <trkpt lat="45.17358" lon="6.09371">
        <ele>1574</ele>
        <time>2012-01-08T08:55:39.000Z</time>
      </trkpt>
      <trkpt lat="45.17362" lon="6.09368">
        <ele>1575.8000488281</ele>
        <time>2012-01-08T08:55:48.000Z</time>
      </trkpt>
      <trkpt lat="45.17365" lon="6.09363">
        <ele>1576.5999755859</ele>
        <time>2012-01-08T08:55:54.000Z</time>
      </trkpt>
      <trkpt lat="45.17368" lon="6.09358">
        <ele>1577.8000488281</ele>
        <time>2012-01-08T08:56:02.000Z</time>
      </trkpt>
      <trkpt lat="45.17372" lon="6.09355">
        <ele>1579</ele>
        <time>2012-01-08T08:56:10.000Z</time>
      </trkpt>
      <trkpt lat="45.17376" lon="6.09356">
        <ele>1580.4000244141</ele>
        <time>2012-01-08T08:56:15.000Z</time>
      </trkpt>
      <trkpt lat="45.17382" lon="6.09361">
        <ele>1582.1999511719</ele>
        <time>2012-01-08T08:56:23.000Z</time>
      </trkpt>
      <trkpt lat="45.17391" lon="6.09364">
        <ele>1583</ele>
        <time>2012-01-08T08:56:33.000Z</time>
      </trkpt>
      <trkpt lat="45.17395" lon="6.09366">
        <ele>1583.4000244141</ele>
        <time>2012-01-08T08:56:41.000Z</time>
      </trkpt>
      <trkpt lat="45.17398" lon="6.09368">
        <ele>1584.1999511719</ele>
        <time>2012-01-08T08:56:47.000Z</time>
      </trkpt>
      <trkpt lat="45.17401" lon="6.09364">
        <ele>1585.1999511719</ele>
        <time>2012-01-08T08:56:54.000Z</time>
      </trkpt>
      <trkpt lat="45.17404" lon="6.09361">
        <ele>1586.5999755859</ele>
        <time>2012-01-08T08:57:00.000Z</time>
      </trkpt>
      <trkpt lat="45.17407" lon="6.09358">
        <ele>1588</ele>
        <time>2012-01-08T08:57:07.000Z</time>
      </trkpt>
      <trkpt lat="45.17409" lon="6.09357">
        <ele>1588.5999755859</ele>
        <time>2012-01-08T08:57:09.000Z</time>
      </trkpt>
      <trkpt lat="45.17416" lon="6.09359">
        <ele>1590.8000488281</ele>
        <time>2012-01-08T08:57:19.000Z</time>
      </trkpt>
      <trkpt lat="45.17418" lon="6.09362">
        <ele>1592.1999511719</ele>
        <time>2012-01-08T08:57:28.000Z</time>
      </trkpt>
      <trkpt lat="45.17422" lon="6.09363">
        <ele>1592.5999755859</ele>
        <time>2012-01-08T08:57:40.000Z</time>
      </trkpt>
      <trkpt lat="45.17428" lon="6.09361">
        <ele>1594.5999755859</ele>
        <time>2012-01-08T08:57:50.000Z</time>
      </trkpt>
      <trkpt lat="45.17431" lon="6.0936">
        <ele>1595.8000488281</ele>
        <time>2012-01-08T08:57:56.000Z</time>
      </trkpt>
      <trkpt lat="45.17437" lon="6.09358">
        <ele>1597.8000488281</ele>
        <time>2012-01-08T08:58:05.000Z</time>
      </trkpt>
      <trkpt lat="45.17443" lon="6.09355">
        <ele>1599.5999755859</ele>
        <time>2012-01-08T08:58:14.000Z</time>
      </trkpt>
      <trkpt lat="45.17449" lon="6.09354">
        <ele>1601.5999755859</ele>
        <time>2012-01-08T08:58:23.000Z</time>
      </trkpt>
      <trkpt lat="45.17457" lon="6.09355">
        <ele>1603.8000488281</ele>
        <time>2012-01-08T08:58:33.000Z</time>
      </trkpt>
      <trkpt lat="45.17462" lon="6.09353">
        <ele>1605.5999755859</ele>
        <time>2012-01-08T08:58:42.000Z</time>
      </trkpt>
      <trkpt lat="45.17468" lon="6.09353">
        <ele>1607.5999755859</ele>
        <time>2012-01-08T08:58:50.000Z</time>
      </trkpt>
      <trkpt lat="45.17476" lon="6.09353">
        <ele>1609.4000244141</ele>
        <time>2012-01-08T08:58:59.000Z</time>
      </trkpt>
      <trkpt lat="45.17483" lon="6.09352">
        <ele>1611.5999755859</ele>
        <time>2012-01-08T08:59:08.000Z</time>
      </trkpt>
      <trkpt lat="45.17488" lon="6.0935">
        <ele>1613</ele>
        <time>2012-01-08T08:59:15.000Z</time>
      </trkpt>
      <trkpt lat="45.17493" lon="6.09349">
        <ele>1614.4000244141</ele>
        <time>2012-01-08T08:59:23.000Z</time>
      </trkpt>
      <trkpt lat="45.17498" lon="6.09347">
        <ele>1615.4000244141</ele>
        <time>2012-01-08T08:59:37.000Z</time>
      </trkpt>
      <trkpt lat="45.17504" lon="6.09345">
        <ele>1616.4000244141</ele>
        <time>2012-01-08T08:59:47.000Z</time>
      </trkpt>
      <trkpt lat="45.17508" lon="6.09344">
        <ele>1617.4000244141</ele>
        <time>2012-01-08T08:59:52.000Z</time>
      </trkpt>
      <trkpt lat="45.17517" lon="6.09343">
        <ele>1619.5999755859</ele>
        <time>2012-01-08T09:00:03.000Z</time>
      </trkpt>
      <trkpt lat="45.17521" lon="6.09343">
        <ele>1620.5999755859</ele>
        <time>2012-01-08T09:00:12.000Z</time>
      </trkpt>
      <trkpt lat="45.17527" lon="6.09342">
        <ele>1621.8000488281</ele>
        <time>2012-01-08T09:00:22.000Z</time>
      </trkpt>
      <trkpt lat="45.17533" lon="6.0934">
        <ele>1623.5999755859</ele>
        <time>2012-01-08T09:00:30.000Z</time>
      </trkpt>
      <trkpt lat="45.17538" lon="6.0934">
        <ele>1625.1999511719</ele>
        <time>2012-01-08T09:00:38.000Z</time>
      </trkpt>
      <trkpt lat="45.17542" lon="6.09338">
        <ele>1626.5999755859</ele>
        <time>2012-01-08T09:00:46.000Z</time>
      </trkpt>
      <trkpt lat="45.17547" lon="6.09336">
        <ele>1627.8000488281</ele>
        <time>2012-01-08T09:00:55.000Z</time>
      </trkpt>
      <trkpt lat="45.17553" lon="6.09332">
        <ele>1629.1999511719</ele>
        <time>2012-01-08T09:01:06.000Z</time>
      </trkpt>
      <trkpt lat="45.17558" lon="6.0933">
        <ele>1630.8000488281</ele>
        <time>2012-01-08T09:01:14.000Z</time>
      </trkpt>
      <trkpt lat="45.17562" lon="6.09327">
        <ele>1632.4000244141</ele>
        <time>2012-01-08T09:01:22.000Z</time>
      </trkpt>
      <trkpt lat="45.17567" lon="6.09325">
        <ele>1634.5999755859</ele>
        <time>2012-01-08T09:01:31.000Z</time>
      </trkpt>
      <trkpt lat="45.17566" lon="6.09325">
        <ele>1635.4000244141</ele>
        <time>2012-01-08T09:01:37.000Z</time>
      </trkpt>
      <trkpt lat="45.17568" lon="6.09323">
        <ele>1635.4000244141</ele>
        <time>2012-01-08T09:01:43.000Z</time>
      </trkpt>
      <trkpt lat="45.17571" lon="6.09321">
        <ele>1636</ele>
        <time>2012-01-08T09:01:51.000Z</time>
      </trkpt>
      <trkpt lat="45.17575" lon="6.0932">
        <ele>1637.5999755859</ele>
        <time>2012-01-08T09:01:57.000Z</time>
      </trkpt>
      <trkpt lat="45.17579" lon="6.09321">
        <ele>1640.1999511719</ele>
        <time>2012-01-08T09:02:06.000Z</time>
      </trkpt>
      <trkpt lat="45.17583" lon="6.09322">
        <ele>1641.4000244141</ele>
        <time>2012-01-08T09:02:12.000Z</time>
      </trkpt>
      <trkpt lat="45.17589" lon="6.09321">
        <ele>1642.1999511719</ele>
        <time>2012-01-08T09:02:21.000Z</time>
      </trkpt>
      <trkpt lat="45.17593" lon="6.09319">
        <ele>1643.1999511719</ele>
        <time>2012-01-08T09:02:27.000Z</time>
      </trkpt>
      <trkpt lat="45.17596" lon="6.09318">
        <ele>1643.5999755859</ele>
        <time>2012-01-08T09:02:30.000Z</time>
      </trkpt>
      <trkpt lat="45.17601" lon="6.09315">
        <ele>1645</ele>
        <time>2012-01-08T09:02:37.000Z</time>
      </trkpt>
      <trkpt lat="45.17608" lon="6.09312">
        <ele>1645.8000488281</ele>
        <time>2012-01-08T09:02:45.000Z</time>
      </trkpt>
      <trkpt lat="45.17614" lon="6.0931">
        <ele>1645.8000488281</ele>
        <time>2012-01-08T09:02:53.000Z</time>
      </trkpt>
      <trkpt lat="45.17621" lon="6.0931">
        <ele>1645.5999755859</ele>
        <time>2012-01-08T09:03:00.000Z</time>
      </trkpt>
      <trkpt lat="45.17629" lon="6.09311">
        <ele>1646</ele>
        <time>2012-01-08T09:03:09.000Z</time>
      </trkpt>
      <trkpt lat="45.17636" lon="6.09312">
        <ele>1647.1999511719</ele>
        <time>2012-01-08T09:03:18.000Z</time>
      </trkpt>
      <trkpt lat="45.17643" lon="6.09315">
        <ele>1648.5999755859</ele>
        <time>2012-01-08T09:03:27.000Z</time>
      </trkpt>
      <trkpt lat="45.17649" lon="6.09321">
        <ele>1650.4000244141</ele>
        <time>2012-01-08T09:03:36.000Z</time>
      </trkpt>
      <trkpt lat="45.17657" lon="6.09326">
        <ele>1652.1999511719</ele>
        <time>2012-01-08T09:03:45.000Z</time>
      </trkpt>
      <trkpt lat="45.17663" lon="6.09329">
        <ele>1653.8000488281</ele>
        <time>2012-01-08T09:03:53.000Z</time>
      </trkpt>
      <trkpt lat="45.17669" lon="6.09322">
        <ele>1655.8000488281</ele>
        <time>2012-01-08T09:04:01.000Z</time>
      </trkpt>
      <trkpt lat="45.17675" lon="6.09315">
        <ele>1657.4000244141</ele>
        <time>2012-01-08T09:04:11.000Z</time>
      </trkpt>
      <trkpt lat="45.17682" lon="6.0931">
        <ele>1659.1999511719</ele>
        <time>2012-01-08T09:04:20.000Z</time>
      </trkpt>
      <trkpt lat="45.17686" lon="6.09306">
        <ele>1660.1999511719</ele>
        <time>2012-01-08T09:04:27.000Z</time>
      </trkpt>
      <trkpt lat="45.17692" lon="6.09304">
        <ele>1662.1999511719</ele>
        <time>2012-01-08T09:04:34.000Z</time>
      </trkpt>
      <trkpt lat="45.17697" lon="6.09303">
        <ele>1663.8000488281</ele>
        <time>2012-01-08T09:04:41.000Z</time>
      </trkpt>
      <trkpt lat="45.17698" lon="6.09303">
        <ele>1664</ele>
        <time>2012-01-08T09:04:42.000Z</time>
      </trkpt>
      <trkpt lat="45.17705" lon="6.09302">
        <ele>1666</ele>
        <time>2012-01-08T09:04:51.000Z</time>
      </trkpt>
      <trkpt lat="45.17713" lon="6.09301">
        <ele>1667.1999511719</ele>
        <time>2012-01-08T09:05:00.000Z</time>
      </trkpt>
      <trkpt lat="45.1772" lon="6.09301">
        <ele>1669.1999511719</ele>
        <time>2012-01-08T09:05:08.000Z</time>
      </trkpt>
      <trkpt lat="45.17729" lon="6.093">
        <ele>1671.8000488281</ele>
        <time>2012-01-08T09:05:20.000Z</time>
      </trkpt>
      <trkpt lat="45.17736" lon="6.09298">
        <ele>1673</ele>
        <time>2012-01-08T09:05:28.000Z</time>
      </trkpt>
      <trkpt lat="45.1774" lon="6.09298">
        <ele>1674.5999755859</ele>
        <time>2012-01-08T09:05:34.000Z</time>
      </trkpt>
      <trkpt lat="45.17745" lon="6.09299">
        <ele>1676.1999511719</ele>
        <time>2012-01-08T09:05:41.000Z</time>
      </trkpt>
      <trkpt lat="45.1775" lon="6.093">
        <ele>1677.4000244141</ele>
        <time>2012-01-08T09:05:49.000Z</time>
      </trkpt>
      <trkpt lat="45.1775" lon="6.09301">
        <ele>1678.4000244141</ele>
        <time>2012-01-08T09:05:57.000Z</time>
      </trkpt>
      <trkpt lat="45.17747" lon="6.09303">
        <ele>1678</ele>
        <time>2012-01-08T09:06:11.000Z</time>
      </trkpt>
      <trkpt lat="45.17749" lon="6.09304">
        <ele>1679.4000244141</ele>
        <time>2012-01-08T09:07:54.000Z</time>
      </trkpt>
      <trkpt lat="45.17752" lon="6.09302">
        <ele>1681.8000488281</ele>
        <time>2012-01-08T09:08:06.000Z</time>
      </trkpt>
      <trkpt lat="45.17755" lon="6.093">
        <ele>1681.1999511719</ele>
        <time>2012-01-08T09:08:09.000Z</time>
      </trkpt>
      <trkpt lat="45.17764" lon="6.09299">
        <ele>1683.5999755859</ele>
        <time>2012-01-08T09:08:17.000Z</time>
      </trkpt>
      <trkpt lat="45.17774" lon="6.09297">
        <ele>1684.5999755859</ele>
        <time>2012-01-08T09:08:27.000Z</time>
      </trkpt>
      <trkpt lat="45.17782" lon="6.09292">
        <ele>1687</ele>
        <time>2012-01-08T09:08:35.000Z</time>
      </trkpt>
      <trkpt lat="45.17789" lon="6.09291">
        <ele>1689.8000488281</ele>
        <time>2012-01-08T09:08:43.000Z</time>
      </trkpt>
      <trkpt lat="45.17797" lon="6.09293">
        <ele>1692.5999755859</ele>
        <time>2012-01-08T09:08:52.000Z</time>
      </trkpt>
      <trkpt lat="45.17798" lon="6.09293">
        <ele>1692.8000488281</ele>
        <time>2012-01-08T09:08:53.000Z</time>
      </trkpt>
      <trkpt lat="45.17803" lon="6.0929">
        <ele>1694.4000244141</ele>
        <time>2012-01-08T09:08:59.000Z</time>
      </trkpt>
      <trkpt lat="45.17811" lon="6.09289">
        <ele>1696.4000244141</ele>
        <time>2012-01-08T09:09:07.000Z</time>
      </trkpt>
      <trkpt lat="45.17818" lon="6.09289">
        <ele>1698.1999511719</ele>
        <time>2012-01-08T09:09:15.000Z</time>
      </trkpt>
      <trkpt lat="45.17824" lon="6.09291">
        <ele>1700</ele>
        <time>2012-01-08T09:09:22.000Z</time>
      </trkpt>
      <trkpt lat="45.17829" lon="6.09293">
        <ele>1701.8000488281</ele>
        <time>2012-01-08T09:09:29.000Z</time>
      </trkpt>
      <trkpt lat="45.17835" lon="6.09299">
        <ele>1704</ele>
        <time>2012-01-08T09:09:37.000Z</time>
      </trkpt>
      <trkpt lat="45.17836" lon="6.09299">
        <ele>1704.4000244141</ele>
        <time>2012-01-08T09:09:38.000Z</time>
      </trkpt>
      <trkpt lat="45.17843" lon="6.09303">
        <ele>1706.4000244141</ele>
        <time>2012-01-08T09:09:46.000Z</time>
      </trkpt>
      <trkpt lat="45.17849" lon="6.09308">
        <ele>1709</ele>
        <time>2012-01-08T09:09:55.000Z</time>
      </trkpt>
      <trkpt lat="45.17856" lon="6.09313">
        <ele>1711.4000244141</ele>
        <time>2012-01-08T09:10:05.000Z</time>
      </trkpt>
      <trkpt lat="45.17858" lon="6.09314">
        <ele>1712</ele>
        <time>2012-01-08T09:10:07.000Z</time>
      </trkpt>
      <trkpt lat="45.17863" lon="6.09317">
        <ele>1713.5999755859</ele>
        <time>2012-01-08T09:10:14.000Z</time>
      </trkpt>
      <trkpt lat="45.17868" lon="6.09323">
        <ele>1715.5999755859</ele>
        <time>2012-01-08T09:10:23.000Z</time>
      </trkpt>
      <trkpt lat="45.17871" lon="6.09329">
        <ele>1717.5999755859</ele>
        <time>2012-01-08T09:10:30.000Z</time>
      </trkpt>
      <trkpt lat="45.17877" lon="6.09336">
        <ele>1719.4000244141</ele>
        <time>2012-01-08T09:10:40.000Z</time>
      </trkpt>
      <trkpt lat="45.17882" lon="6.09339">
        <ele>1722</ele>
        <time>2012-01-08T09:10:49.000Z</time>
      </trkpt>
      <trkpt lat="45.17887" lon="6.09345">
        <ele>1723.8000488281</ele>
        <time>2012-01-08T09:10:57.000Z</time>
      </trkpt>
      <trkpt lat="45.17893" lon="6.0935">
        <ele>1725.8000488281</ele>
        <time>2012-01-08T09:11:05.000Z</time>
      </trkpt>
      <trkpt lat="45.17898" lon="6.09354">
        <ele>1727.4000244141</ele>
        <time>2012-01-08T09:11:12.000Z</time>
      </trkpt>
      <trkpt lat="45.17904" lon="6.09361">
        <ele>1730.1999511719</ele>
        <time>2012-01-08T09:11:21.000Z</time>
      </trkpt>
      <trkpt lat="45.1791" lon="6.09366">
        <ele>1732.5999755859</ele>
        <time>2012-01-08T09:11:30.000Z</time>
      </trkpt>
      <trkpt lat="45.1792" lon="6.0937">
        <ele>1735</ele>
        <time>2012-01-08T09:11:41.000Z</time>
      </trkpt>
      <trkpt lat="45.17922" lon="6.09371">
        <ele>1735.8000488281</ele>
        <time>2012-01-08T09:11:44.000Z</time>
      </trkpt>
      <trkpt lat="45.17927" lon="6.09375">
        <ele>1737.5999755859</ele>
        <time>2012-01-08T09:11:52.000Z</time>
      </trkpt>
      <trkpt lat="45.17931" lon="6.09379">
        <ele>1739.8000488281</ele>
        <time>2012-01-08T09:11:59.000Z</time>
      </trkpt>
      <trkpt lat="45.17937" lon="6.09386">
        <ele>1741.8000488281</ele>
        <time>2012-01-08T09:12:08.000Z</time>
      </trkpt>
      <trkpt lat="45.17942" lon="6.09394">
        <ele>1743.8000488281</ele>
        <time>2012-01-08T09:12:16.000Z</time>
      </trkpt>
      <trkpt lat="45.17946" lon="6.09397">
        <ele>1745.1999511719</ele>
        <time>2012-01-08T09:12:22.000Z</time>
      </trkpt>
      <trkpt lat="45.17947" lon="6.09399">
        <ele>1745.4000244141</ele>
        <time>2012-01-08T09:12:24.000Z</time>
      </trkpt>
      <trkpt lat="45.17954" lon="6.09406">
        <ele>1747</ele>
        <time>2012-01-08T09:12:33.000Z</time>
      </trkpt>
      <trkpt lat="45.17961" lon="6.0941">
        <ele>1748.5999755859</ele>
        <time>2012-01-08T09:12:42.000Z</time>
      </trkpt>
      <trkpt lat="45.17968" lon="6.09412">
        <ele>1750.8000488281</ele>
        <time>2012-01-08T09:12:50.000Z</time>
      </trkpt>
      <trkpt lat="45.17975" lon="6.09414">
        <ele>1752.8000488281</ele>
        <time>2012-01-08T09:12:59.000Z</time>
      </trkpt>
      <trkpt lat="45.17983" lon="6.09416">
        <ele>1755.4000244141</ele>
        <time>2012-01-08T09:13:10.000Z</time>
      </trkpt>
      <trkpt lat="45.17991" lon="6.0942">
        <ele>1757.8000488281</ele>
        <time>2012-01-08T09:13:20.000Z</time>
      </trkpt>
      <trkpt lat="45.17998" lon="6.09425">
        <ele>1760.1999511719</ele>
        <time>2012-01-08T09:13:30.000Z</time>
      </trkpt>
      <trkpt lat="45.18003" lon="6.0943">
        <ele>1762</ele>
        <time>2012-01-08T09:13:38.000Z</time>
      </trkpt>
      <trkpt lat="45.18008" lon="6.09434">
        <ele>1763</ele>
        <time>2012-01-08T09:13:44.000Z</time>
      </trkpt>
      <trkpt lat="45.18019" lon="6.09442">
        <ele>1764.8000488281</ele>
        <time>2012-01-08T09:13:56.000Z</time>
      </trkpt>
      <trkpt lat="45.18025" lon="6.09446">
        <ele>1766</ele>
        <time>2012-01-08T09:14:03.000Z</time>
      </trkpt>
      <trkpt lat="45.18034" lon="6.09451">
        <ele>1767</ele>
        <time>2012-01-08T09:14:12.000Z</time>
      </trkpt>
      <trkpt lat="45.18041" lon="6.09455">
        <ele>1768.4000244141</ele>
        <time>2012-01-08T09:14:20.000Z</time>
      </trkpt>
      <trkpt lat="45.18051" lon="6.09458">
        <ele>1770.5999755859</ele>
        <time>2012-01-08T09:14:30.000Z</time>
      </trkpt>
      <trkpt lat="45.18058" lon="6.09463">
        <ele>1773.8000488281</ele>
        <time>2012-01-08T09:14:39.000Z</time>
      </trkpt>
      <trkpt lat="45.18065" lon="6.09472">
        <ele>1777</ele>
        <time>2012-01-08T09:14:50.000Z</time>
      </trkpt>
      <trkpt lat="45.18068" lon="6.0948">
        <ele>1778.4000244141</ele>
        <time>2012-01-08T09:14:58.000Z</time>
      </trkpt>
      <trkpt lat="45.18074" lon="6.09487">
        <ele>1780.1999511719</ele>
        <time>2012-01-08T09:15:07.000Z</time>
      </trkpt>
      <trkpt lat="45.18076" lon="6.09491">
        <ele>1781</ele>
        <time>2012-01-08T09:15:11.000Z</time>
      </trkpt>
      <trkpt lat="45.18079" lon="6.09499">
        <ele>1782</ele>
        <time>2012-01-08T09:15:18.000Z</time>
      </trkpt>
      <trkpt lat="45.18085" lon="6.09511">
        <ele>1783.5999755859</ele>
        <time>2012-01-08T09:15:28.000Z</time>
      </trkpt>
      <trkpt lat="45.18089" lon="6.09518">
        <ele>1784.5999755859</ele>
        <time>2012-01-08T09:15:34.000Z</time>
      </trkpt>
      <trkpt lat="45.18096" lon="6.09525">
        <ele>1786.1999511719</ele>
        <time>2012-01-08T09:15:43.000Z</time>
      </trkpt>
      <trkpt lat="45.181" lon="6.09529">
        <ele>1788</ele>
        <time>2012-01-08T09:15:49.000Z</time>
      </trkpt>
      <trkpt lat="45.18105" lon="6.09536">
        <ele>1789.5999755859</ele>
        <time>2012-01-08T09:15:57.000Z</time>
      </trkpt>
      <trkpt lat="45.18112" lon="6.09542">
        <ele>1791.1999511719</ele>
        <time>2012-01-08T09:16:06.000Z</time>
      </trkpt>
      <trkpt lat="45.18119" lon="6.09547">
        <ele>1792.1999511719</ele>
        <time>2012-01-08T09:16:14.000Z</time>
      </trkpt>
      <trkpt lat="45.18127" lon="6.09552">
        <ele>1793.4000244141</ele>
        <time>2012-01-08T09:16:22.000Z</time>
      </trkpt>
      <trkpt lat="45.18135" lon="6.09558">
        <ele>1794.4000244141</ele>
        <time>2012-01-08T09:16:31.000Z</time>
      </trkpt>
      <trkpt lat="45.18142" lon="6.09563">
        <ele>1795.8000488281</ele>
        <time>2012-01-08T09:16:40.000Z</time>
      </trkpt>
      <trkpt lat="45.18149" lon="6.09569">
        <ele>1797.5999755859</ele>
        <time>2012-01-08T09:16:49.000Z</time>
      </trkpt>
      <trkpt lat="45.18157" lon="6.09574">
        <ele>1798.5999755859</ele>
        <time>2012-01-08T09:16:57.000Z</time>
      </trkpt>
      <trkpt lat="45.18164" lon="6.09579">
        <ele>1799.8000488281</ele>
        <time>2012-01-08T09:17:05.000Z</time>
      </trkpt>
      <trkpt lat="45.18171" lon="6.09583">
        <ele>1801</ele>
        <time>2012-01-08T09:17:14.000Z</time>
      </trkpt>
      <trkpt lat="45.18179" lon="6.09581">
        <ele>1802.4000244141</ele>
        <time>2012-01-08T09:17:23.000Z</time>
      </trkpt>
      <trkpt lat="45.18189" lon="6.09577">
        <ele>1803.8000488281</ele>
        <time>2012-01-08T09:17:33.000Z</time>
      </trkpt>
      <trkpt lat="45.18197" lon="6.09576">
        <ele>1805.4000244141</ele>
        <time>2012-01-08T09:17:42.000Z</time>
      </trkpt>
      <trkpt lat="45.182" lon="6.09584">
        <ele>1807.8000488281</ele>
        <time>2012-01-08T09:17:51.000Z</time>
      </trkpt>
      <trkpt lat="45.18202" lon="6.0959">
        <ele>1809.4000244141</ele>
        <time>2012-01-08T09:17:58.000Z</time>
      </trkpt>
      <trkpt lat="45.18204" lon="6.09602">
        <ele>1812.4000244141</ele>
        <time>2012-01-08T09:18:09.000Z</time>
      </trkpt>
      <trkpt lat="45.18205" lon="6.09609">
        <ele>1814.1999511719</ele>
        <time>2012-01-08T09:18:17.000Z</time>
      </trkpt>
      <trkpt lat="45.18208" lon="6.09608">
        <ele>1815.4000244141</ele>
        <time>2012-01-08T09:18:24.000Z</time>
      </trkpt>
      <trkpt lat="45.18216" lon="6.09605">
        <ele>1817.4000244141</ele>
        <time>2012-01-08T09:18:33.000Z</time>
      </trkpt>
      <trkpt lat="45.18224" lon="6.09604">
        <ele>1819.5999755859</ele>
        <time>2012-01-08T09:18:43.000Z</time>
      </trkpt>
      <trkpt lat="45.18225" lon="6.09604">
        <ele>1819.8000488281</ele>
        <time>2012-01-08T09:18:45.000Z</time>
      </trkpt>
      <trkpt lat="45.18233" lon="6.09601">
        <ele>1822</ele>
        <time>2012-01-08T09:18:56.000Z</time>
      </trkpt>
      <trkpt lat="45.18237" lon="6.09594">
        <ele>1823.8000488281</ele>
        <time>2012-01-08T09:19:05.000Z</time>
      </trkpt>
      <trkpt lat="45.18241" lon="6.09585">
        <ele>1826.4000244141</ele>
        <time>2012-01-08T09:19:16.000Z</time>
      </trkpt>
      <trkpt lat="45.18247" lon="6.09575">
        <ele>1828.8000488281</ele>
        <time>2012-01-08T09:19:27.000Z</time>
      </trkpt>
      <trkpt lat="45.18252" lon="6.09568">
        <ele>1830.4000244141</ele>
        <time>2012-01-08T09:19:36.000Z</time>
      </trkpt>
      <trkpt lat="45.18256" lon="6.09561">
        <ele>1832.5999755859</ele>
        <time>2012-01-08T09:19:46.000Z</time>
      </trkpt>
      <trkpt lat="45.18263" lon="6.09557">
        <ele>1834.5999755859</ele>
        <time>2012-01-08T09:19:56.000Z</time>
      </trkpt>
      <trkpt lat="45.18262" lon="6.09559">
        <ele>1834.5999755859</ele>
        <time>2012-01-08T09:19:59.000Z</time>
      </trkpt>
      <trkpt lat="45.18264" lon="6.0957">
        <ele>1836.8000488281</ele>
        <time>2012-01-08T09:20:09.000Z</time>
      </trkpt>
      <trkpt lat="45.18266" lon="6.09574">
        <ele>1837.5999755859</ele>
        <time>2012-01-08T09:20:13.000Z</time>
      </trkpt>
      <trkpt lat="45.18269" lon="6.09583">
        <ele>1838.8000488281</ele>
        <time>2012-01-08T09:20:21.000Z</time>
      </trkpt>
      <trkpt lat="45.18274" lon="6.09589">
        <ele>1840.1999511719</ele>
        <time>2012-01-08T09:20:29.000Z</time>
      </trkpt>
      <trkpt lat="45.18278" lon="6.09598">
        <ele>1842.1999511719</ele>
        <time>2012-01-08T09:20:37.000Z</time>
      </trkpt>
      <trkpt lat="45.18282" lon="6.09605">
        <ele>1843.1999511719</ele>
        <time>2012-01-08T09:20:45.000Z</time>
      </trkpt>
      <trkpt lat="45.18287" lon="6.09614">
        <ele>1845</ele>
        <time>2012-01-08T09:20:56.000Z</time>
      </trkpt>
      <trkpt lat="45.1829" lon="6.09623">
        <ele>1846.5999755859</ele>
        <time>2012-01-08T09:21:04.000Z</time>
      </trkpt>
      <trkpt lat="45.18293" lon="6.09634">
        <ele>1848.1999511719</ele>
        <time>2012-01-08T09:21:15.000Z</time>
      </trkpt>
      <trkpt lat="45.18298" lon="6.09643">
        <ele>1850.1999511719</ele>
        <time>2012-01-08T09:21:26.000Z</time>
      </trkpt>
      <trkpt lat="45.18302" lon="6.09651">
        <ele>1852.8000488281</ele>
        <time>2012-01-08T09:21:36.000Z</time>
      </trkpt>
      <trkpt lat="45.18307" lon="6.09647">
        <ele>1856.1999511719</ele>
        <time>2012-01-08T09:21:43.000Z</time>
      </trkpt>
      <trkpt lat="45.18315" lon="6.09642">
        <ele>1858.4000244141</ele>
        <time>2012-01-08T09:21:53.000Z</time>
      </trkpt>
      <trkpt lat="45.18319" lon="6.0964">
        <ele>1860.1999511719</ele>
        <time>2012-01-08T09:22:01.000Z</time>
      </trkpt>
      <trkpt lat="45.18324" lon="6.09647">
        <ele>1861</ele>
        <time>2012-01-08T09:22:10.000Z</time>
      </trkpt>
      <trkpt lat="45.18325" lon="6.09655">
        <ele>1862.8000488281</ele>
        <time>2012-01-08T09:22:18.000Z</time>
      </trkpt>
      <trkpt lat="45.18328" lon="6.09664">
        <ele>1864.5999755859</ele>
        <time>2012-01-08T09:22:27.000Z</time>
      </trkpt>
      <trkpt lat="45.18331" lon="6.09671">
        <ele>1866</ele>
        <time>2012-01-08T09:22:35.000Z</time>
      </trkpt>
      <trkpt lat="45.18338" lon="6.09668">
        <ele>1868.1999511719</ele>
        <time>2012-01-08T09:22:45.000Z</time>
      </trkpt>
      <trkpt lat="45.18346" lon="6.09667">
        <ele>1870.1999511719</ele>
        <time>2012-01-08T09:22:56.000Z</time>
      </trkpt>
      <trkpt lat="45.18347" lon="6.09675">
        <ele>1873.4000244141</ele>
        <time>2012-01-08T09:23:04.000Z</time>
      </trkpt>
      <trkpt lat="45.18349" lon="6.0968">
        <ele>1874.5999755859</ele>
        <time>2012-01-08T09:23:10.000Z</time>
      </trkpt>
      <trkpt lat="45.1835" lon="6.09687">
        <ele>1876</ele>
        <time>2012-01-08T09:23:17.000Z</time>
      </trkpt>
      <trkpt lat="45.18351" lon="6.09699">
        <ele>1878.8000488281</ele>
        <time>2012-01-08T09:23:30.000Z</time>
      </trkpt>
      <trkpt lat="45.18352" lon="6.0971">
        <ele>1881.8000488281</ele>
        <time>2012-01-08T09:23:41.000Z</time>
      </trkpt>
      <trkpt lat="45.18355" lon="6.09717">
        <ele>1882</ele>
        <time>2012-01-08T09:23:50.000Z</time>
      </trkpt>
      <trkpt lat="45.18364" lon="6.09716">
        <ele>1884.1999511719</ele>
        <time>2012-01-08T09:24:01.000Z</time>
      </trkpt>
      <trkpt lat="45.1837" lon="6.09717">
        <ele>1886.8000488281</ele>
        <time>2012-01-08T09:24:11.000Z</time>
      </trkpt>
      <trkpt lat="45.1838" lon="6.09716">
        <ele>1889.1999511719</ele>
        <time>2012-01-08T09:24:23.000Z</time>
      </trkpt>
      <trkpt lat="45.18388" lon="6.09716">
        <ele>1891.4000244141</ele>
        <time>2012-01-08T09:24:33.000Z</time>
      </trkpt>
      <trkpt lat="45.18391" lon="6.09715">
        <ele>1892.4000244141</ele>
        <time>2012-01-08T09:24:37.000Z</time>
      </trkpt>
      <trkpt lat="45.184" lon="6.09711">
        <ele>1894.5999755859</ele>
        <time>2012-01-08T09:24:48.000Z</time>
      </trkpt>
      <trkpt lat="45.18403" lon="6.09705">
        <ele>1897.5999755859</ele>
        <time>2012-01-08T09:24:59.000Z</time>
      </trkpt>
      <trkpt lat="45.18405" lon="6.09702">
        <ele>1898.4000244141</ele>
        <time>2012-01-08T09:25:06.000Z</time>
      </trkpt>
      <trkpt lat="45.18406" lon="6.09701">
        <ele>1899.4000244141</ele>
        <time>2012-01-08T09:25:09.000Z</time>
      </trkpt>
      <trkpt lat="45.18412" lon="6.09695">
        <ele>1901.8000488281</ele>
        <time>2012-01-08T09:25:19.000Z</time>
      </trkpt>
      <trkpt lat="45.18418" lon="6.0969">
        <ele>1903.8000488281</ele>
        <time>2012-01-08T09:25:29.000Z</time>
      </trkpt>
      <trkpt lat="45.18426" lon="6.09687">
        <ele>1906.8000488281</ele>
        <time>2012-01-08T09:25:39.000Z</time>
      </trkpt>
      <trkpt lat="45.18428" lon="6.09687">
        <ele>1908</ele>
        <time>2012-01-08T09:25:49.000Z</time>
      </trkpt>
      <trkpt lat="45.18428" lon="6.09692">
        <ele>1910.4000244141</ele>
        <time>2012-01-08T09:25:56.000Z</time>
      </trkpt>
      <trkpt lat="45.1843" lon="6.09702">
        <ele>1913</ele>
        <time>2012-01-08T09:26:06.000Z</time>
      </trkpt>
      <trkpt lat="45.18432" lon="6.09711">
        <ele>1915</ele>
        <time>2012-01-08T09:26:16.000Z</time>
      </trkpt>
      <trkpt lat="45.18438" lon="6.09716">
        <ele>1916.4000244141</ele>
        <time>2012-01-08T09:26:28.000Z</time>
      </trkpt>
      <trkpt lat="45.18445" lon="6.09716">
        <ele>1918.1999511719</ele>
        <time>2012-01-08T09:26:37.000Z</time>
      </trkpt>
      <trkpt lat="45.18447" lon="6.09718">
        <ele>1920</ele>
        <time>2012-01-08T09:26:43.000Z</time>
      </trkpt>
      <trkpt lat="45.18452" lon="6.09723">
        <ele>1922.4000244141</ele>
        <time>2012-01-08T09:26:52.000Z</time>
      </trkpt>
      <trkpt lat="45.18454" lon="6.09725">
        <ele>1923.4000244141</ele>
        <time>2012-01-08T09:26:55.000Z</time>
      </trkpt>
      <trkpt lat="45.1846" lon="6.09732">
        <ele>1924.8000488281</ele>
        <time>2012-01-08T09:27:05.000Z</time>
      </trkpt>
      <trkpt lat="45.18466" lon="6.09738">
        <ele>1927</ele>
        <time>2012-01-08T09:27:16.000Z</time>
      </trkpt>
      <trkpt lat="45.18473" lon="6.09744">
        <ele>1928.8000488281</ele>
        <time>2012-01-08T09:27:26.000Z</time>
      </trkpt>
      <trkpt lat="45.1848" lon="6.0975">
        <ele>1930.1999511719</ele>
        <time>2012-01-08T09:27:36.000Z</time>
      </trkpt>
      <trkpt lat="45.18487" lon="6.09757">
        <ele>1932.1999511719</ele>
        <time>2012-01-08T09:27:46.000Z</time>
      </trkpt>
      <trkpt lat="45.18491" lon="6.09763">
        <ele>1934</ele>
        <time>2012-01-08T09:27:54.000Z</time>
      </trkpt>
      <trkpt lat="45.18493" lon="6.09771">
        <ele>1936.5999755859</ele>
        <time>2012-01-08T09:28:01.000Z</time>
      </trkpt>
      <trkpt lat="45.18495" lon="6.09778">
        <ele>1936</ele>
        <time>2012-01-08T09:28:07.000Z</time>
      </trkpt>
      <trkpt lat="45.18496" lon="6.0978">
        <ele>1936.4000244141</ele>
        <time>2012-01-08T09:28:10.000Z</time>
      </trkpt>
      <trkpt lat="45.18501" lon="6.09788">
        <ele>1937.5999755859</ele>
        <time>2012-01-08T09:28:19.000Z</time>
      </trkpt>
      <trkpt lat="45.18504" lon="6.09793">
        <ele>1938.4000244141</ele>
        <time>2012-01-08T09:28:25.000Z</time>
      </trkpt>
      <trkpt lat="45.18509" lon="6.098">
        <ele>1938.5999755859</ele>
        <time>2012-01-08T09:28:33.000Z</time>
      </trkpt>
      <trkpt lat="45.18513" lon="6.09809">
        <ele>1940</ele>
        <time>2012-01-08T09:28:42.000Z</time>
      </trkpt>
      <trkpt lat="45.18517" lon="6.09816">
        <ele>1941.5999755859</ele>
        <time>2012-01-08T09:28:50.000Z</time>
      </trkpt>
      <trkpt lat="45.18522" lon="6.09825">
        <ele>1943.5999755859</ele>
        <time>2012-01-08T09:28:59.000Z</time>
      </trkpt>
      <trkpt lat="45.18526" lon="6.09831">
        <ele>1944.4000244141</ele>
        <time>2012-01-08T09:29:05.000Z</time>
      </trkpt>
      <trkpt lat="45.18531" lon="6.0984">
        <ele>1946.4000244141</ele>
        <time>2012-01-08T09:29:15.000Z</time>
      </trkpt>
      <trkpt lat="45.18536" lon="6.09848">
        <ele>1947.8000488281</ele>
        <time>2012-01-08T09:29:24.000Z</time>
      </trkpt>
      <trkpt lat="45.18542" lon="6.09858">
        <ele>1949.4000244141</ele>
        <time>2012-01-08T09:29:34.000Z</time>
      </trkpt>
      <trkpt lat="45.18548" lon="6.09865">
        <ele>1950.5999755859</ele>
        <time>2012-01-08T09:29:42.000Z</time>
      </trkpt>
      <trkpt lat="45.18551" lon="6.09869">
        <ele>1951.4000244141</ele>
        <time>2012-01-08T09:29:46.000Z</time>
      </trkpt>
      <trkpt lat="45.18553" lon="6.09874">
        <ele>1952.4000244141</ele>
        <time>2012-01-08T09:29:53.000Z</time>
      </trkpt>
      <trkpt lat="45.18555" lon="6.09881">
        <ele>1952.8000488281</ele>
        <time>2012-01-08T09:30:08.000Z</time>
      </trkpt>
      <trkpt lat="45.18563" lon="6.09892">
        <ele>1954.4000244141</ele>
        <time>2012-01-08T09:30:19.000Z</time>
      </trkpt>
      <trkpt lat="45.18567" lon="6.099">
        <ele>1956</ele>
        <time>2012-01-08T09:30:26.000Z</time>
      </trkpt>
      <trkpt lat="45.18574" lon="6.09908">
        <ele>1957.5999755859</ele>
        <time>2012-01-08T09:30:35.000Z</time>
      </trkpt>
      <trkpt lat="45.18579" lon="6.09917">
        <ele>1959</ele>
        <time>2012-01-08T09:30:44.000Z</time>
      </trkpt>
      <trkpt lat="45.18584" lon="6.09925">
        <ele>1960.5999755859</ele>
        <time>2012-01-08T09:30:51.000Z</time>
      </trkpt>
      <trkpt lat="45.18592" lon="6.09933">
        <ele>1960.8000488281</ele>
        <time>2012-01-08T09:31:00.000Z</time>
      </trkpt>
      <trkpt lat="45.186" lon="6.09942">
        <ele>1962.1999511719</ele>
        <time>2012-01-08T09:31:09.000Z</time>
      </trkpt>
      <trkpt lat="45.18607" lon="6.0995">
        <ele>1963.4000244141</ele>
        <time>2012-01-08T09:31:18.000Z</time>
      </trkpt>
      <trkpt lat="45.18614" lon="6.09956">
        <ele>1964.1999511719</ele>
        <time>2012-01-08T09:31:26.000Z</time>
      </trkpt>
      <trkpt lat="45.1862" lon="6.09961">
        <ele>1965.5999755859</ele>
        <time>2012-01-08T09:31:34.000Z</time>
      </trkpt>
      <trkpt lat="45.18622" lon="6.09962">
        <ele>1965.8000488281</ele>
        <time>2012-01-08T09:31:36.000Z</time>
      </trkpt>
      <trkpt lat="45.18628" lon="6.09971">
        <ele>1967.4000244141</ele>
        <time>2012-01-08T09:31:45.000Z</time>
      </trkpt>
      <trkpt lat="45.18633" lon="6.09981">
        <ele>1969.4000244141</ele>
        <time>2012-01-08T09:31:54.000Z</time>
      </trkpt>
      <trkpt lat="45.18636" lon="6.09993">
        <ele>1970.5999755859</ele>
        <time>2012-01-08T09:32:03.000Z</time>
      </trkpt>
      <trkpt lat="45.18637" lon="6.10007">
        <ele>1971.4000244141</ele>
        <time>2012-01-08T09:32:12.000Z</time>
      </trkpt>
      <trkpt lat="45.18638" lon="6.10018">
        <ele>1971.8000488281</ele>
        <time>2012-01-08T09:32:20.000Z</time>
      </trkpt>
      <trkpt lat="45.18637" lon="6.1003">
        <ele>1972.5999755859</ele>
        <time>2012-01-08T09:32:28.000Z</time>
      </trkpt>
      <trkpt lat="45.18637" lon="6.1004">
        <ele>1973.8000488281</ele>
        <time>2012-01-08T09:32:36.000Z</time>
      </trkpt>
      <trkpt lat="45.18638" lon="6.1005">
        <ele>1975.1999511719</ele>
        <time>2012-01-08T09:32:44.000Z</time>
      </trkpt>
      <trkpt lat="45.18639" lon="6.10058">
        <ele>1975.8000488281</ele>
        <time>2012-01-08T09:32:51.000Z</time>
      </trkpt>
      <trkpt lat="45.1864" lon="6.10071">
        <ele>1977</ele>
        <time>2012-01-08T09:33:00.000Z</time>
      </trkpt>
      <trkpt lat="45.18641" lon="6.10084">
        <ele>1978.5999755859</ele>
        <time>2012-01-08T09:33:10.000Z</time>
      </trkpt>
      <trkpt lat="45.18642" lon="6.10094">
        <ele>1979.1999511719</ele>
        <time>2012-01-08T09:33:19.000Z</time>
      </trkpt>
      <trkpt lat="45.18643" lon="6.10107">
        <ele>1981</ele>
        <time>2012-01-08T09:33:30.000Z</time>
      </trkpt>
      <trkpt lat="45.18645" lon="6.10118">
        <ele>1982.8000488281</ele>
        <time>2012-01-08T09:33:41.000Z</time>
      </trkpt>
      <trkpt lat="45.18645" lon="6.10129">
        <ele>1984.1999511719</ele>
        <time>2012-01-08T09:33:52.000Z</time>
      </trkpt>
      <trkpt lat="45.18645" lon="6.1014">
        <ele>1986</ele>
        <time>2012-01-08T09:34:03.000Z</time>
      </trkpt>
      <trkpt lat="45.18646" lon="6.10151">
        <ele>1988</ele>
        <time>2012-01-08T09:34:14.000Z</time>
      </trkpt>
      <trkpt lat="45.18646" lon="6.10162">
        <ele>1989.5999755859</ele>
        <time>2012-01-08T09:34:25.000Z</time>
      </trkpt>
      <trkpt lat="45.18646" lon="6.10171">
        <ele>1991</ele>
        <time>2012-01-08T09:34:34.000Z</time>
      </trkpt>
      <trkpt lat="45.18645" lon="6.10184">
        <ele>1992.5999755859</ele>
        <time>2012-01-08T09:34:46.000Z</time>
      </trkpt>
      <trkpt lat="45.18642" lon="6.10191">
        <ele>1993.8000488281</ele>
        <time>2012-01-08T09:34:54.000Z</time>
      </trkpt>
      <trkpt lat="45.18634" lon="6.10196">
        <ele>1995.5999755859</ele>
        <time>2012-01-08T09:35:06.000Z</time>
      </trkpt>
      <trkpt lat="45.18631" lon="6.10201">
        <ele>1996.5999755859</ele>
        <time>2012-01-08T09:35:13.000Z</time>
      </trkpt>
      <trkpt lat="45.1863" lon="6.10212">
        <ele>1998.4000244141</ele>
        <time>2012-01-08T09:35:25.000Z</time>
      </trkpt>
      <trkpt lat="45.18633" lon="6.1022">
        <ele>1999.4000244141</ele>
        <time>2012-01-08T09:35:35.000Z</time>
      </trkpt>
      <trkpt lat="45.18636" lon="6.10223">
        <ele>2000.1999511719</ele>
        <time>2012-01-08T09:35:39.000Z</time>
      </trkpt>
      <trkpt lat="45.18641" lon="6.10234">
        <ele>2003.1999511719</ele>
        <time>2012-01-08T09:35:52.000Z</time>
      </trkpt>
      <trkpt lat="45.18645" lon="6.10241">
        <ele>2004</ele>
        <time>2012-01-08T09:36:01.000Z</time>
      </trkpt>
      <trkpt lat="45.18647" lon="6.10243">
        <ele>2005.1999511719</ele>
        <time>2012-01-08T09:36:06.000Z</time>
      </trkpt>
      <trkpt lat="45.18651" lon="6.10251">
        <ele>2006.4000244141</ele>
        <time>2012-01-08T09:36:17.000Z</time>
      </trkpt>
      <trkpt lat="45.18655" lon="6.10258">
        <ele>2007.5999755859</ele>
        <time>2012-01-08T09:36:27.000Z</time>
      </trkpt>
      <trkpt lat="45.18658" lon="6.10264">
        <ele>2008.5999755859</ele>
        <time>2012-01-08T09:36:35.000Z</time>
      </trkpt>
      <trkpt lat="45.18662" lon="6.10271">
        <ele>2010</ele>
        <time>2012-01-08T09:36:45.000Z</time>
      </trkpt>
      <trkpt lat="45.18667" lon="6.10278">
        <ele>2011.1999511719</ele>
        <time>2012-01-08T09:36:55.000Z</time>
      </trkpt>
      <trkpt lat="45.18671" lon="6.10284">
        <ele>2012.8000488281</ele>
        <time>2012-01-08T09:37:05.000Z</time>
      </trkpt>
      <trkpt lat="45.18676" lon="6.10291">
        <ele>2014.1999511719</ele>
        <time>2012-01-08T09:37:15.000Z</time>
      </trkpt>
      <trkpt lat="45.18679" lon="6.10298">
        <ele>2015.1999511719</ele>
        <time>2012-01-08T09:37:24.000Z</time>
      </trkpt>
      <trkpt lat="45.18684" lon="6.10304">
        <ele>2016.8000488281</ele>
        <time>2012-01-08T09:37:33.000Z</time>
      </trkpt>
      <trkpt lat="45.18686" lon="6.10309">
        <ele>2017.5999755859</ele>
        <time>2012-01-08T09:37:40.000Z</time>
      </trkpt>
      <trkpt lat="45.18692" lon="6.10317">
        <ele>2018.8000488281</ele>
        <time>2012-01-08T09:37:51.000Z</time>
      </trkpt>
      <trkpt lat="45.18697" lon="6.10323">
        <ele>2019.5999755859</ele>
        <time>2012-01-08T09:38:00.000Z</time>
      </trkpt>
      <trkpt lat="45.18701" lon="6.1033">
        <ele>2020.8000488281</ele>
        <time>2012-01-08T09:38:09.000Z</time>
      </trkpt>
      <trkpt lat="45.18706" lon="6.10338">
        <ele>2022.1999511719</ele>
        <time>2012-01-08T09:38:20.000Z</time>
      </trkpt>
      <trkpt lat="45.18709" lon="6.10345">
        <ele>2023.8000488281</ele>
        <time>2012-01-08T09:38:30.000Z</time>
      </trkpt>
      <trkpt lat="45.18711" lon="6.10353">
        <ele>2025.4000244141</ele>
        <time>2012-01-08T09:38:39.000Z</time>
      </trkpt>
      <trkpt lat="45.18715" lon="6.10362">
        <ele>2026.8000488281</ele>
        <time>2012-01-08T09:38:49.000Z</time>
      </trkpt>
      <trkpt lat="45.18719" lon="6.10369">
        <ele>2027.8000488281</ele>
        <time>2012-01-08T09:38:59.000Z</time>
      </trkpt>
      <trkpt lat="45.18722" lon="6.10375">
        <ele>2029.8000488281</ele>
        <time>2012-01-08T09:39:08.000Z</time>
      </trkpt>
      <trkpt lat="45.18726" lon="6.1038">
        <ele>2030.5999755859</ele>
        <time>2012-01-08T09:39:17.000Z</time>
      </trkpt>
      <trkpt lat="45.1873" lon="6.10385">
        <ele>2032.1999511719</ele>
        <time>2012-01-08T09:39:26.000Z</time>
      </trkpt>
      <trkpt lat="45.18733" lon="6.10389">
        <ele>2033.8000488281</ele>
        <time>2012-01-08T09:39:34.000Z</time>
      </trkpt>
      <trkpt lat="45.18737" lon="6.10395">
        <ele>2035.1999511719</ele>
        <time>2012-01-08T09:39:43.000Z</time>
      </trkpt>
      <trkpt lat="45.18741" lon="6.104">
        <ele>2036.5999755859</ele>
        <time>2012-01-08T09:39:53.000Z</time>
      </trkpt>
      <trkpt lat="45.18744" lon="6.10406">
        <ele>2038.1999511719</ele>
        <time>2012-01-08T09:40:01.000Z</time>
      </trkpt>
      <trkpt lat="45.18748" lon="6.10414">
        <ele>2040</ele>
        <time>2012-01-08T09:40:11.000Z</time>
      </trkpt>
      <trkpt lat="45.18752" lon="6.10418">
        <ele>2040.8000488281</ele>
        <time>2012-01-08T09:40:20.000Z</time>
      </trkpt>
      <trkpt lat="45.18755" lon="6.10422">
        <ele>2042.4000244141</ele>
        <time>2012-01-08T09:40:26.000Z</time>
      </trkpt>
      <trkpt lat="45.18758" lon="6.10427">
        <ele>2044.1999511719</ele>
        <time>2012-01-08T09:40:35.000Z</time>
      </trkpt>
      <trkpt lat="45.18761" lon="6.1043">
        <ele>2044.8000488281</ele>
        <time>2012-01-08T09:40:42.000Z</time>
      </trkpt>
      <trkpt lat="45.18766" lon="6.10434">
        <ele>2046.5999755859</ele>
        <time>2012-01-08T09:40:50.000Z</time>
      </trkpt>
      <trkpt lat="45.18771" lon="6.10437">
        <ele>2048</ele>
        <time>2012-01-08T09:40:58.000Z</time>
      </trkpt>
      <trkpt lat="45.18775" lon="6.10443">
        <ele>2050</ele>
        <time>2012-01-08T09:41:07.000Z</time>
      </trkpt>
      <trkpt lat="45.18779" lon="6.10449">
        <ele>2051.8000488281</ele>
        <time>2012-01-08T09:41:16.000Z</time>
      </trkpt>
      <trkpt lat="45.18784" lon="6.10453">
        <ele>2053.8000488281</ele>
        <time>2012-01-08T09:41:26.000Z</time>
      </trkpt>
      <trkpt lat="45.18786" lon="6.10455">
        <ele>2054.6000976562</ele>
        <time>2012-01-08T09:41:31.000Z</time>
      </trkpt>
      <trkpt lat="45.18789" lon="6.1046">
        <ele>2056</ele>
        <time>2012-01-08T09:41:39.000Z</time>
      </trkpt>
      <trkpt lat="45.18793" lon="6.10465">
        <ele>2057.1999511719</ele>
        <time>2012-01-08T09:41:48.000Z</time>
      </trkpt>
      <trkpt lat="45.18794" lon="6.10472">
        <ele>2058.1999511719</ele>
        <time>2012-01-08T09:41:55.000Z</time>
      </trkpt>
      <trkpt lat="45.18797" lon="6.10477">
        <ele>2059.6000976562</ele>
        <time>2012-01-08T09:42:03.000Z</time>
      </trkpt>
      <trkpt lat="45.18798" lon="6.1048">
        <ele>2060.6000976562</ele>
        <time>2012-01-08T09:42:12.000Z</time>
      </trkpt>
      <trkpt lat="45.18802" lon="6.10474">
        <ele>2061.6000976562</ele>
        <time>2012-01-08T09:42:30.000Z</time>
      </trkpt>
      <trkpt lat="45.18802" lon="6.10473">
        <ele>2062.6000976562</ele>
        <time>2012-01-08T09:42:36.000Z</time>
      </trkpt>
      <trkpt lat="45.18806" lon="6.10467">
        <ele>2064.6000976562</ele>
        <time>2012-01-08T09:42:46.000Z</time>
      </trkpt>
      <trkpt lat="45.18805" lon="6.10466">
        <ele>2065.1999511719</ele>
        <time>2012-01-08T09:42:47.000Z</time>
      </trkpt>
      <trkpt lat="45.18795" lon="6.10453">
        <ele>2067.3999023438</ele>
        <time>2012-01-08T09:42:55.000Z</time>
      </trkpt>
      <trkpt lat="45.188" lon="6.10453">
        <ele>2068</ele>
        <time>2012-01-08T09:43:02.000Z</time>
      </trkpt>
      <trkpt lat="45.18803" lon="6.10458">
        <ele>2069.1999511719</ele>
        <time>2012-01-08T09:43:07.000Z</time>
      </trkpt>
      <trkpt lat="45.1881" lon="6.10468">
        <ele>2071.6000976562</ele>
        <time>2012-01-08T09:43:17.000Z</time>
      </trkpt>
      <trkpt lat="45.18813" lon="6.10472">
        <ele>2073.1999511719</ele>
        <time>2012-01-08T09:43:24.000Z</time>
      </trkpt>
      <trkpt lat="45.18817" lon="6.10478">
        <ele>2074.8000488281</ele>
        <time>2012-01-08T09:43:33.000Z</time>
      </trkpt>
      <trkpt lat="45.1882" lon="6.10484">
        <ele>2076.3999023438</ele>
        <time>2012-01-08T09:43:41.000Z</time>
      </trkpt>
      <trkpt lat="45.1882" lon="6.10488">
        <ele>2077.1999511719</ele>
        <time>2012-01-08T09:43:46.000Z</time>
      </trkpt>
      <trkpt lat="45.18822" lon="6.10494">
        <ele>2079</ele>
        <time>2012-01-08T09:43:54.000Z</time>
      </trkpt>
      <trkpt lat="45.18826" lon="6.10496">
        <ele>2079.8000488281</ele>
        <time>2012-01-08T09:44:00.000Z</time>
      </trkpt>
      <trkpt lat="45.1883" lon="6.10493">
        <ele>2080</ele>
        <time>2012-01-08T09:44:05.000Z</time>
      </trkpt>
      <trkpt lat="45.18836" lon="6.10489">
        <ele>2081.6000976562</ele>
        <time>2012-01-08T09:44:12.000Z</time>
      </trkpt>
      <trkpt lat="45.18841" lon="6.10487">
        <ele>2083</ele>
        <time>2012-01-08T09:44:19.000Z</time>
      </trkpt>
      <trkpt lat="45.18841" lon="6.1049">
        <ele>2084.6000976562</ele>
        <time>2012-01-08T09:44:23.000Z</time>
      </trkpt>
      <trkpt lat="45.18841" lon="6.10495">
        <ele>2085.8000488281</ele>
        <time>2012-01-08T09:44:30.000Z</time>
      </trkpt>
      <trkpt lat="45.18841" lon="6.10502">
        <ele>2087</ele>
        <time>2012-01-08T09:44:37.000Z</time>
      </trkpt>
      <trkpt lat="45.18841" lon="6.10505">
        <ele>2088</ele>
        <time>2012-01-08T09:44:46.000Z</time>
      </trkpt>
      <trkpt lat="45.18845" lon="6.10503">
        <ele>2088.6000976562</ele>
        <time>2012-01-08T09:44:54.000Z</time>
      </trkpt>
      <trkpt lat="45.18846" lon="6.10504">
        <ele>2089.3999023438</ele>
        <time>2012-01-08T09:45:08.000Z</time>
      </trkpt>
      <trkpt lat="45.1885" lon="6.10502">
        <ele>2090</ele>
        <time>2012-01-08T09:45:13.000Z</time>
      </trkpt>
      <trkpt lat="45.18856" lon="6.10501">
        <ele>2091.3999023438</ele>
        <time>2012-01-08T09:45:20.000Z</time>
      </trkpt>
      <trkpt lat="45.18854" lon="6.10507">
        <ele>2093</ele>
        <time>2012-01-08T09:45:27.000Z</time>
      </trkpt>
      <trkpt lat="45.18852" lon="6.10515">
        <ele>2093.8000488281</ele>
        <time>2012-01-08T09:45:34.000Z</time>
      </trkpt>
      <trkpt lat="45.1885" lon="6.10522">
        <ele>2095.6000976562</ele>
        <time>2012-01-08T09:45:43.000Z</time>
      </trkpt>
      <trkpt lat="45.18848" lon="6.1053">
        <ele>2097.6000976562</ele>
        <time>2012-01-08T09:45:54.000Z</time>
      </trkpt>
      <trkpt lat="45.18854" lon="6.10534">
        <ele>2100.1999511719</ele>
        <time>2012-01-08T09:46:05.000Z</time>
      </trkpt>
      <trkpt lat="45.18854" lon="6.10536">
        <ele>2101.1999511719</ele>
        <time>2012-01-08T09:46:14.000Z</time>
      </trkpt>
      <trkpt lat="45.18858" lon="6.10541">
        <ele>2103</ele>
        <time>2012-01-08T09:46:24.000Z</time>
      </trkpt>
      <trkpt lat="45.18862" lon="6.10545">
        <ele>2104.8000488281</ele>
        <time>2012-01-08T09:46:33.000Z</time>
      </trkpt>
      <trkpt lat="45.18868" lon="6.10548">
        <ele>2107</ele>
        <time>2012-01-08T09:46:43.000Z</time>
      </trkpt>
      <trkpt lat="45.18875" lon="6.10553">
        <ele>2109</ele>
        <time>2012-01-08T09:46:53.000Z</time>
      </trkpt>
      <trkpt lat="45.18881" lon="6.10557">
        <ele>2111.3999023438</ele>
        <time>2012-01-08T09:47:04.000Z</time>
      </trkpt>
      <trkpt lat="45.18887" lon="6.10562">
        <ele>2113.6000976562</ele>
        <time>2012-01-08T09:47:15.000Z</time>
      </trkpt>
      <trkpt lat="45.1889" lon="6.10566">
        <ele>2114.1999511719</ele>
        <time>2012-01-08T09:47:22.000Z</time>
      </trkpt>
      <trkpt lat="45.18898" lon="6.1057">
        <ele>2117</ele>
        <time>2012-01-08T09:47:35.000Z</time>
      </trkpt>
      <trkpt lat="45.18901" lon="6.1057">
        <ele>2117.8000488281</ele>
        <time>2012-01-08T09:47:44.000Z</time>
      </trkpt>
      <trkpt lat="45.18904" lon="6.10573">
        <ele>2119.3999023438</ele>
        <time>2012-01-08T09:47:51.000Z</time>
      </trkpt>
      <trkpt lat="45.18909" lon="6.10576">
        <ele>2121.3999023438</ele>
        <time>2012-01-08T09:48:01.000Z</time>
      </trkpt>
      <trkpt lat="45.18914" lon="6.1058">
        <ele>2123.8000488281</ele>
        <time>2012-01-08T09:48:11.000Z</time>
      </trkpt>
      <trkpt lat="45.18918" lon="6.10584">
        <ele>2126.3999023438</ele>
        <time>2012-01-08T09:48:21.000Z</time>
      </trkpt>
      <trkpt lat="45.18923" lon="6.10587">
        <ele>2128.6000976562</ele>
        <time>2012-01-08T09:48:31.000Z</time>
      </trkpt>
      <trkpt lat="45.18928" lon="6.10591">
        <ele>2131</ele>
        <time>2012-01-08T09:48:40.000Z</time>
      </trkpt>
      <trkpt lat="45.18932" lon="6.10595">
        <ele>2133</ele>
        <time>2012-01-08T09:48:49.000Z</time>
      </trkpt>
      <trkpt lat="45.18937" lon="6.10599">
        <ele>2135.6000976562</ele>
        <time>2012-01-08T09:49:00.000Z</time>
      </trkpt>
      <trkpt lat="45.18942" lon="6.10602">
        <ele>2137.6000976562</ele>
        <time>2012-01-08T09:49:09.000Z</time>
      </trkpt>
      <trkpt lat="45.18946" lon="6.10605">
        <ele>2140</ele>
        <time>2012-01-08T09:49:19.000Z</time>
      </trkpt>
      <trkpt lat="45.18948" lon="6.10606">
        <ele>2141.3999023438</ele>
        <time>2012-01-08T09:49:26.000Z</time>
      </trkpt>
      <trkpt lat="45.18952" lon="6.10609">
        <ele>2142.1999511719</ele>
        <time>2012-01-08T09:49:32.000Z</time>
      </trkpt>
      <trkpt lat="45.18957" lon="6.10613">
        <ele>2144.8000488281</ele>
        <time>2012-01-08T09:49:42.000Z</time>
      </trkpt>
      <trkpt lat="45.18962" lon="6.10616">
        <ele>2146.6000976562</ele>
        <time>2012-01-08T09:49:50.000Z</time>
      </trkpt>
      <trkpt lat="45.1897" lon="6.1062">
        <ele>2149</ele>
        <time>2012-01-08T09:50:03.000Z</time>
      </trkpt>
      <trkpt lat="45.18974" lon="6.10626">
        <ele>2151.1999511719</ele>
        <time>2012-01-08T09:50:13.000Z</time>
      </trkpt>
      <trkpt lat="45.1898" lon="6.10634">
        <ele>2153</ele>
        <time>2012-01-08T09:50:25.000Z</time>
      </trkpt>
      <trkpt lat="45.1898" lon="6.10635">
        <ele>2153.1999511719</ele>
        <time>2012-01-08T09:50:26.000Z</time>
      </trkpt>
      <trkpt lat="45.18984" lon="6.1064">
        <ele>2154.3999023438</ele>
        <time>2012-01-08T09:50:34.000Z</time>
      </trkpt>
      <trkpt lat="45.18989" lon="6.10647">
        <ele>2155.6000976562</ele>
        <time>2012-01-08T09:50:43.000Z</time>
      </trkpt>
      <trkpt lat="45.18995" lon="6.10657">
        <ele>2157.3999023438</ele>
        <time>2012-01-08T09:50:55.000Z</time>
      </trkpt>
      <trkpt lat="45.19001" lon="6.10665">
        <ele>2159</ele>
        <time>2012-01-08T09:51:05.000Z</time>
      </trkpt>
      <trkpt lat="45.19004" lon="6.10671">
        <ele>2159.8000488281</ele>
        <time>2012-01-08T09:51:13.000Z</time>
      </trkpt>
      <trkpt lat="45.19009" lon="6.10679">
        <ele>2161.1999511719</ele>
        <time>2012-01-08T09:51:22.000Z</time>
      </trkpt>
      <trkpt lat="45.19015" lon="6.10687">
        <ele>2162.1999511719</ele>
        <time>2012-01-08T09:51:33.000Z</time>
      </trkpt>
      <trkpt lat="45.19022" lon="6.10692">
        <ele>2164</ele>
        <time>2012-01-08T09:51:42.000Z</time>
      </trkpt>
      <trkpt lat="45.19028" lon="6.10693">
        <ele>2165.3999023438</ele>
        <time>2012-01-08T09:51:50.000Z</time>
      </trkpt>
      <trkpt lat="45.19036" lon="6.10692">
        <ele>2167.8000488281</ele>
        <time>2012-01-08T09:52:01.000Z</time>
      </trkpt>
      <trkpt lat="45.19042" lon="6.10693">
        <ele>2169.6000976562</ele>
        <time>2012-01-08T09:52:09.000Z</time>
      </trkpt>
      <trkpt lat="45.19049" lon="6.10695">
        <ele>2171.6000976562</ele>
        <time>2012-01-08T09:52:19.000Z</time>
      </trkpt>
      <trkpt lat="45.19055" lon="6.10697">
        <ele>2172.6000976562</ele>
        <time>2012-01-08T09:52:29.000Z</time>
      </trkpt>
      <trkpt lat="45.19061" lon="6.10701">
        <ele>2173.1999511719</ele>
        <time>2012-01-08T09:52:37.000Z</time>
      </trkpt>
      <trkpt lat="45.19064" lon="6.10703">
        <ele>2174</ele>
        <time>2012-01-08T09:52:45.000Z</time>
      </trkpt>
      <trkpt lat="45.19065" lon="6.10702">
        <ele>2175</ele>
        <time>2012-01-08T09:57:55.000Z</time>
      </trkpt>
      <trkpt lat="45.19065" lon="6.10702">
        <ele>2169.3999023438</ele>
        <time>2012-01-08T09:58:35.000Z</time>
      </trkpt>
      <trkpt lat="45.19068" lon="6.10699">
        <ele>2176.3999023438</ele>
        <time>2012-01-08T09:58:41.000Z</time>
      </trkpt>
      <trkpt lat="45.19068" lon="6.10699">
        <ele>2175</ele>
        <time>2012-01-08T09:58:43.000Z</time>
      </trkpt>
      <trkpt lat="45.19064" lon="6.10698">
        <ele>2175.1999511719</ele>
        <time>2012-01-08T09:59:05.000Z</time>
      </trkpt>
      <trkpt lat="45.19063" lon="6.10698">
        <ele>2174.1999511719</ele>
        <time>2012-01-08T09:59:29.000Z</time>
      </trkpt>
      <trkpt lat="45.19063" lon="6.10697">
        <ele>2176.8000488281</ele>
        <time>2012-01-08T09:59:34.000Z</time>
      </trkpt>
      <trkpt lat="45.19062" lon="6.10698">
        <ele>2175</ele>
        <time>2012-01-08T09:59:49.000Z</time>
      </trkpt>
      <trkpt lat="45.19061" lon="6.10698">
        <ele>2176</ele>
        <time>2012-01-08T09:59:59.000Z</time>
      </trkpt>
      <trkpt lat="45.19053" lon="6.10696">
        <ele>2175.3999023438</ele>
        <time>2012-01-08T10:00:06.000Z</time>
      </trkpt>
      <trkpt lat="45.19048" lon="6.10694">
        <ele>2174.8000488281</ele>
        <time>2012-01-08T10:00:08.000Z</time>
      </trkpt>
      <trkpt lat="45.1904" lon="6.10692">
        <ele>2174</ele>
        <time>2012-01-08T10:00:10.000Z</time>
      </trkpt>
      <trkpt lat="45.1902" lon="6.10678">
        <ele>2170.1999511719</ele>
        <time>2012-01-08T10:00:14.000Z</time>
      </trkpt>
      <trkpt lat="45.19006" lon="6.1067">
        <ele>2166.1999511719</ele>
        <time>2012-01-08T10:00:17.000Z</time>
      </trkpt>
      <trkpt lat="45.18999" lon="6.1066">
        <ele>2164</ele>
        <time>2012-01-08T10:00:19.000Z</time>
      </trkpt>
      <trkpt lat="45.18983" lon="6.10648">
        <ele>2159.3999023438</ele>
        <time>2012-01-08T10:00:22.000Z</time>
      </trkpt>
      <trkpt lat="45.18974" lon="6.1063">
        <ele>2156.6000976562</ele>
        <time>2012-01-08T10:00:24.000Z</time>
      </trkpt>
      <trkpt lat="45.18962" lon="6.1061">
        <ele>2152.3999023438</ele>
        <time>2012-01-08T10:00:27.000Z</time>
      </trkpt>
      <trkpt lat="45.18949" lon="6.10591">
        <ele>2146</ele>
        <time>2012-01-08T10:00:31.000Z</time>
      </trkpt>
      <trkpt lat="45.18935" lon="6.10575">
        <ele>2141.1999511719</ele>
        <time>2012-01-08T10:00:34.000Z</time>
      </trkpt>
      <trkpt lat="45.18929" lon="6.10568">
        <ele>2137</ele>
        <time>2012-01-08T10:00:36.000Z</time>
      </trkpt>
      <trkpt lat="45.18913" lon="6.10566">
        <ele>2131.6000976562</ele>
        <time>2012-01-08T10:00:39.000Z</time>
      </trkpt>
      <trkpt lat="45.1891" lon="6.10547">
        <ele>2126.8000488281</ele>
        <time>2012-01-08T10:00:41.000Z</time>
      </trkpt>
      <trkpt lat="45.18906" lon="6.10531">
        <ele>2123.3999023438</ele>
        <time>2012-01-08T10:00:44.000Z</time>
      </trkpt>
      <trkpt lat="45.18896" lon="6.10527">
        <ele>2119</ele>
        <time>2012-01-08T10:00:47.000Z</time>
      </trkpt>
      <trkpt lat="45.18883" lon="6.10518">
        <ele>2112.6000976562</ele>
        <time>2012-01-08T10:00:50.000Z</time>
      </trkpt>
      <trkpt lat="45.18874" lon="6.10518">
        <ele>2106.8000488281</ele>
        <time>2012-01-08T10:00:52.000Z</time>
      </trkpt>
      <trkpt lat="45.18861" lon="6.10508">
        <ele>2100.8000488281</ele>
        <time>2012-01-08T10:00:55.000Z</time>
      </trkpt>
      <trkpt lat="45.18857" lon="6.10491">
        <ele>2097</ele>
        <time>2012-01-08T10:00:57.000Z</time>
      </trkpt>
      <trkpt lat="45.18856" lon="6.10475">
        <ele>2095.8000488281</ele>
        <time>2012-01-08T10:01:00.000Z</time>
      </trkpt>
      <trkpt lat="45.18856" lon="6.10473">
        <ele>2096</ele>
        <time>2012-01-08T10:01:05.000Z</time>
      </trkpt>
      <trkpt lat="45.18856" lon="6.10473">
        <ele>2096</ele>
        <time>2012-01-08T10:01:06.000Z</time>
      </trkpt>
      <trkpt lat="45.18847" lon="6.1048">
        <ele>2094.3999023438</ele>
        <time>2012-01-08T10:01:10.000Z</time>
      </trkpt>
      <trkpt lat="45.18843" lon="6.10494">
        <ele>2092</ele>
        <time>2012-01-08T10:01:12.000Z</time>
      </trkpt>
      <trkpt lat="45.18841" lon="6.10507">
        <ele>2089.6000976562</ele>
        <time>2012-01-08T10:01:16.000Z</time>
      </trkpt>
      <trkpt lat="45.18841" lon="6.10507">
        <ele>2089.6000976562</ele>
        <time>2012-01-08T10:01:17.000Z</time>
      </trkpt>
      <trkpt lat="45.18836" lon="6.10495">
        <ele>2087.6000976562</ele>
        <time>2012-01-08T10:01:21.000Z</time>
      </trkpt>
      <trkpt lat="45.18829" lon="6.1049">
        <ele>2085</ele>
        <time>2012-01-08T10:01:24.000Z</time>
      </trkpt>
      <trkpt lat="45.18826" lon="6.10495">
        <ele>2084</ele>
        <time>2012-01-08T10:01:25.000Z</time>
      </trkpt>
      <trkpt lat="45.18821" lon="6.10493">
        <ele>2079.8000488281</ele>
        <time>2012-01-08T10:01:30.000Z</time>
      </trkpt>
      <trkpt lat="45.18813" lon="6.10495">
        <ele>2074.6000976562</ele>
        <time>2012-01-08T10:01:33.000Z</time>
      </trkpt>
      <trkpt lat="45.1881" lon="6.10477">
        <ele>2070.3999023438</ele>
        <time>2012-01-08T10:01:36.000Z</time>
      </trkpt>
      <trkpt lat="45.18802" lon="6.10477">
        <ele>2068.6000976562</ele>
        <time>2012-01-08T10:01:38.000Z</time>
      </trkpt>
      <trkpt lat="45.18792" lon="6.10463">
        <ele>2062.8000488281</ele>
        <time>2012-01-08T10:01:41.000Z</time>
      </trkpt>
      <trkpt lat="45.18791" lon="6.10455">
        <ele>2061.3999023438</ele>
        <time>2012-01-08T10:01:42.000Z</time>
      </trkpt>
      <trkpt lat="45.1878" lon="6.10431">
        <ele>2057.1999511719</ele>
        <time>2012-01-08T10:01:47.000Z</time>
      </trkpt>
      <trkpt lat="45.18768" lon="6.10428">
        <ele>2051.1999511719</ele>
        <time>2012-01-08T10:01:51.000Z</time>
      </trkpt>
      <trkpt lat="45.18755" lon="6.10413">
        <ele>2046</ele>
        <time>2012-01-08T10:01:54.000Z</time>
      </trkpt>
      <trkpt lat="45.18748" lon="6.10396">
        <ele>2041</ele>
        <time>2012-01-08T10:01:57.000Z</time>
      </trkpt>
      <trkpt lat="45.1874" lon="6.10373">
        <ele>2036.4000244141</ele>
        <time>2012-01-08T10:02:01.000Z</time>
      </trkpt>
      <trkpt lat="45.18731" lon="6.10363">
        <ele>2033</ele>
        <time>2012-01-08T10:02:04.000Z</time>
      </trkpt>
      <trkpt lat="45.18725" lon="6.10342">
        <ele>2029.5999755859</ele>
        <time>2012-01-08T10:02:07.000Z</time>
      </trkpt>
      <trkpt lat="45.18714" lon="6.10338">
        <ele>2028</ele>
        <time>2012-01-08T10:02:09.000Z</time>
      </trkpt>
      <trkpt lat="45.187" lon="6.10326">
        <ele>2022.5999755859</ele>
        <time>2012-01-08T10:02:12.000Z</time>
      </trkpt>
      <trkpt lat="45.18699" lon="6.10319">
        <ele>2021.8000488281</ele>
        <time>2012-01-08T10:02:13.000Z</time>
      </trkpt>
      <trkpt lat="45.18684" lon="6.10294">
        <ele>2017.4000244141</ele>
        <time>2012-01-08T10:02:18.000Z</time>
      </trkpt>
      <trkpt lat="45.18666" lon="6.10275">
        <ele>2012.8000488281</ele>
        <time>2012-01-08T10:02:21.000Z</time>
      </trkpt>
      <trkpt lat="45.18661" lon="6.10253">
        <ele>2010.4000244141</ele>
        <time>2012-01-08T10:02:24.000Z</time>
      </trkpt>
      <trkpt lat="45.18666" lon="6.10256">
        <ele>2011.5999755859</ele>
        <time>2012-01-08T10:02:27.000Z</time>
      </trkpt>
      <trkpt lat="45.18666" lon="6.10255">
        <ele>2011.5999755859</ele>
        <time>2012-01-08T10:02:28.000Z</time>
      </trkpt>
      <trkpt lat="45.18657" lon="6.10246">
        <ele>2009</ele>
        <time>2012-01-08T10:02:32.000Z</time>
      </trkpt>
      <trkpt lat="45.18652" lon="6.10239">
        <ele>2007</ele>
        <time>2012-01-08T10:02:36.000Z</time>
      </trkpt>
      <trkpt lat="45.18638" lon="6.1022">
        <ele>2000.8000488281</ele>
        <time>2012-01-08T10:02:41.000Z</time>
      </trkpt>
      <trkpt lat="45.18637" lon="6.10223">
        <ele>2000.5999755859</ele>
        <time>2012-01-08T10:02:42.000Z</time>
      </trkpt>
      <trkpt lat="45.18638" lon="6.10224">
        <ele>2000.8000488281</ele>
        <time>2012-01-08T10:02:43.000Z</time>
      </trkpt>
      <trkpt lat="45.1864" lon="6.10215">
        <ele>2000</ele>
        <time>2012-01-08T10:02:46.000Z</time>
      </trkpt>
      <trkpt lat="45.18644" lon="6.10199">
        <ele>1995.4000244141</ele>
        <time>2012-01-08T10:02:50.000Z</time>
      </trkpt>
      <trkpt lat="45.18645" lon="6.10194">
        <ele>1993.8000488281</ele>
        <time>2012-01-08T10:02:51.000Z</time>
      </trkpt>
      <trkpt lat="45.18641" lon="6.10156">
        <ele>1988</ele>
        <time>2012-01-08T10:02:56.000Z</time>
      </trkpt>
      <trkpt lat="45.18642" lon="6.10147">
        <ele>1986.1999511719</ele>
        <time>2012-01-08T10:02:57.000Z</time>
      </trkpt>
      <trkpt lat="45.18638" lon="6.10083">
        <ele>1978.8000488281</ele>
        <time>2012-01-08T10:03:03.000Z</time>
      </trkpt>
      <trkpt lat="45.18632" lon="6.10044">
        <ele>1972.1999511719</ele>
        <time>2012-01-08T10:03:07.000Z</time>
      </trkpt>
      <trkpt lat="45.18617" lon="6.10001">
        <ele>1968.5999755859</ele>
        <time>2012-01-08T10:03:12.000Z</time>
      </trkpt>
      <trkpt lat="45.18604" lon="6.09988">
        <ele>1968.8000488281</ele>
        <time>2012-01-08T10:03:16.000Z</time>
      </trkpt>
      <trkpt lat="45.18602" lon="6.09985">
        <ele>1969.4000244141</ele>
        <time>2012-01-08T10:03:19.000Z</time>
      </trkpt>
      <trkpt lat="45.18602" lon="6.09983">
        <ele>1970</ele>
        <time>2012-01-08T10:03:22.000Z</time>
      </trkpt>
      <trkpt lat="45.18613" lon="6.0998">
        <ele>1966.5999755859</ele>
        <time>2012-01-08T10:03:27.000Z</time>
      </trkpt>
      <trkpt lat="45.18617" lon="6.0998">
        <ele>1966.1999511719</ele>
        <time>2012-01-08T10:03:31.000Z</time>
      </trkpt>
      <trkpt lat="45.18628" lon="6.0998">
        <ele>1964.1999511719</ele>
        <time>2012-01-08T10:03:38.000Z</time>
      </trkpt>
      <trkpt lat="45.18629" lon="6.09981">
        <ele>1964.5999755859</ele>
        <time>2012-01-08T10:03:45.000Z</time>
      </trkpt>
      <trkpt lat="45.18634" lon="6.09981">
        <ele>1965</ele>
        <time>2012-01-08T10:04:00.000Z</time>
      </trkpt>
      <trkpt lat="45.18635" lon="6.09983">
        <ele>1965.5999755859</ele>
        <time>2012-01-08T10:04:05.000Z</time>
      </trkpt>
      <trkpt lat="45.18637" lon="6.09983">
        <ele>1965.8000488281</ele>
        <time>2012-01-08T10:04:10.000Z</time>
      </trkpt>
      <trkpt lat="45.18639" lon="6.09984">
        <ele>1966.5999755859</ele>
        <time>2012-01-08T10:04:17.000Z</time>
      </trkpt>
      <trkpt lat="45.18636" lon="6.09982">
        <ele>1966.8000488281</ele>
        <time>2012-01-08T10:04:38.000Z</time>
      </trkpt>
      <trkpt lat="45.1863" lon="6.09983">
        <ele>1967.1999511719</ele>
        <time>2012-01-08T10:05:38.000Z</time>
      </trkpt>
      <trkpt lat="45.18629" lon="6.09979">
        <ele>1967</ele>
        <time>2012-01-08T10:06:18.000Z</time>
      </trkpt>
      <trkpt lat="45.18624" lon="6.09973">
        <ele>1965.8000488281</ele>
        <time>2012-01-08T10:06:23.000Z</time>
      </trkpt>
      <trkpt lat="45.18625" lon="6.09972">
        <ele>1965.4000244141</ele>
        <time>2012-01-08T10:06:30.000Z</time>
      </trkpt>
      <trkpt lat="45.18615" lon="6.09964">
        <ele>1964.5999755859</ele>
        <time>2012-01-08T10:06:36.000Z</time>
      </trkpt>
      <trkpt lat="45.18612" lon="6.0996">
        <ele>1964.1999511719</ele>
        <time>2012-01-08T10:06:37.000Z</time>
      </trkpt>
      <trkpt lat="45.18599" lon="6.09948">
        <ele>1961.8000488281</ele>
        <time>2012-01-08T10:06:40.000Z</time>
      </trkpt>
      <trkpt lat="45.18582" lon="6.09925">
        <ele>1959.4000244141</ele>
        <time>2012-01-08T10:06:44.000Z</time>
      </trkpt>
      <trkpt lat="45.1857" lon="6.09902">
        <ele>1956.5999755859</ele>
        <time>2012-01-08T10:06:48.000Z</time>
      </trkpt>
      <trkpt lat="45.1856" lon="6.09889">
        <ele>1954.1999511719</ele>
        <time>2012-01-08T10:06:51.000Z</time>
      </trkpt>
      <trkpt lat="45.18547" lon="6.09866">
        <ele>1950.4000244141</ele>
        <time>2012-01-08T10:06:55.000Z</time>
      </trkpt>
      <trkpt lat="45.18529" lon="6.09841">
        <ele>1946</ele>
        <time>2012-01-08T10:06:59.000Z</time>
      </trkpt>
      <trkpt lat="45.18512" lon="6.09824">
        <ele>1942.5999755859</ele>
        <time>2012-01-08T10:07:02.000Z</time>
      </trkpt>
      <trkpt lat="45.18498" lon="6.0981">
        <ele>1940.5999755859</ele>
        <time>2012-01-08T10:07:05.000Z</time>
      </trkpt>
      <trkpt lat="45.18487" lon="6.09802">
        <ele>1940</ele>
        <time>2012-01-08T10:07:08.000Z</time>
      </trkpt>
      <trkpt lat="45.18477" lon="6.09797">
        <ele>1939.1999511719</ele>
        <time>2012-01-08T10:07:11.000Z</time>
      </trkpt>
      <trkpt lat="45.18463" lon="6.09798">
        <ele>1937.5999755859</ele>
        <time>2012-01-08T10:07:16.000Z</time>
      </trkpt>
      <trkpt lat="45.18449" lon="6.09796">
        <ele>1933.5999755859</ele>
        <time>2012-01-08T10:07:20.000Z</time>
      </trkpt>
      <trkpt lat="45.18445" lon="6.09778">
        <ele>1928.8000488281</ele>
        <time>2012-01-08T10:07:24.000Z</time>
      </trkpt>
      <trkpt lat="45.1844" lon="6.09772">
        <ele>1926.5999755859</ele>
        <time>2012-01-08T10:07:26.000Z</time>
      </trkpt>
      <trkpt lat="45.18433" lon="6.09759">
        <ele>1919</ele>
        <time>2012-01-08T10:07:30.000Z</time>
      </trkpt>
      <trkpt lat="45.18425" lon="6.09749">
        <ele>1914</ele>
        <time>2012-01-08T10:07:33.000Z</time>
      </trkpt>
      <trkpt lat="45.18412" lon="6.0974">
        <ele>1909.1999511719</ele>
        <time>2012-01-08T10:07:36.000Z</time>
      </trkpt>
      <trkpt lat="45.18406" lon="6.09733">
        <ele>1906.1999511719</ele>
        <time>2012-01-08T10:07:38.000Z</time>
      </trkpt>
      <trkpt lat="45.18398" lon="6.09721">
        <ele>1902</ele>
        <time>2012-01-08T10:07:41.000Z</time>
      </trkpt>
      <trkpt lat="45.18385" lon="6.0971">
        <ele>1893</ele>
        <time>2012-01-08T10:07:45.000Z</time>
      </trkpt>
      <trkpt lat="45.18378" lon="6.09702">
        <ele>1889.5999755859</ele>
        <time>2012-01-08T10:07:47.000Z</time>
      </trkpt>
      <trkpt lat="45.18369" lon="6.09697">
        <ele>1887</ele>
        <time>2012-01-08T10:07:51.000Z</time>
      </trkpt>
      <trkpt lat="45.18371" lon="6.09697">
        <ele>1881.8000488281</ele>
        <time>2012-01-08T10:07:57.000Z</time>
      </trkpt>
      <trkpt lat="45.18364" lon="6.09696">
        <ele>1882.8000488281</ele>
        <time>2012-01-08T10:08:01.000Z</time>
      </trkpt>
      <trkpt lat="45.18359" lon="6.09697">
        <ele>1880.4000244141</ele>
        <time>2012-01-08T10:08:03.000Z</time>
      </trkpt>
      <trkpt lat="45.18346" lon="6.09693">
        <ele>1877</ele>
        <time>2012-01-08T10:08:07.000Z</time>
      </trkpt>
      <trkpt lat="45.18337" lon="6.09701">
        <ele>1874.5999755859</ele>
        <time>2012-01-08T10:08:10.000Z</time>
      </trkpt>
      <trkpt lat="45.18331" lon="6.09688">
        <ele>1871.4000244141</ele>
        <time>2012-01-08T10:08:14.000Z</time>
      </trkpt>
      <trkpt lat="45.18323" lon="6.09682">
        <ele>1869.4000244141</ele>
        <time>2012-01-08T10:08:16.000Z</time>
      </trkpt>
      <trkpt lat="45.1831" lon="6.09694">
        <ele>1865.4000244141</ele>
        <time>2012-01-08T10:08:20.000Z</time>
      </trkpt>
      <trkpt lat="45.18307" lon="6.09696">
        <ele>1865.1999511719</ele>
        <time>2012-01-08T10:08:21.000Z</time>
      </trkpt>
      <trkpt lat="45.18297" lon="6.0969">
        <ele>1862.1999511719</ele>
        <time>2012-01-08T10:08:24.000Z</time>
      </trkpt>
      <trkpt lat="45.18282" lon="6.0968">
        <ele>1855.5999755859</ele>
        <time>2012-01-08T10:08:28.000Z</time>
      </trkpt>
      <trkpt lat="45.18272" lon="6.09669">
        <ele>1850.4000244141</ele>
        <time>2012-01-08T10:08:32.000Z</time>
      </trkpt>
      <trkpt lat="45.1826" lon="6.09656">
        <ele>1846.4000244141</ele>
        <time>2012-01-08T10:08:35.000Z</time>
      </trkpt>
      <trkpt lat="45.18254" lon="6.09647">
        <ele>1841.5999755859</ele>
        <time>2012-01-08T10:08:38.000Z</time>
      </trkpt>
      <trkpt lat="45.18244" lon="6.09636">
        <ele>1835.8000488281</ele>
        <time>2012-01-08T10:08:42.000Z</time>
      </trkpt>
      <trkpt lat="45.18239" lon="6.09633">
        <ele>1832.1999511719</ele>
        <time>2012-01-08T10:08:45.000Z</time>
      </trkpt>
      <trkpt lat="45.18241" lon="6.09632">
        <ele>1831.1999511719</ele>
        <time>2012-01-08T10:08:49.000Z</time>
      </trkpt>
      <trkpt lat="45.18244" lon="6.09635">
        <ele>1831.4000244141</ele>
        <time>2012-01-08T10:09:14.000Z</time>
      </trkpt>
      <trkpt lat="45.18238" lon="6.09634">
        <ele>1830.8000488281</ele>
        <time>2012-01-08T10:09:38.000Z</time>
      </trkpt>
      <trkpt lat="45.18235" lon="6.09615">
        <ele>1826.8000488281</ele>
        <time>2012-01-08T10:09:42.000Z</time>
      </trkpt>
      <trkpt lat="45.18227" lon="6.09617">
        <ele>1824.5999755859</ele>
        <time>2012-01-08T10:09:44.000Z</time>
      </trkpt>
      <trkpt lat="45.18222" lon="6.09602">
        <ele>1821.5999755859</ele>
        <time>2012-01-08T10:09:47.000Z</time>
      </trkpt>
      <trkpt lat="45.18214" lon="6.09603">
        <ele>1818.1999511719</ele>
        <time>2012-01-08T10:09:49.000Z</time>
      </trkpt>
      <trkpt lat="45.18206" lon="6.09596">
        <ele>1814.5999755859</ele>
        <time>2012-01-08T10:09:52.000Z</time>
      </trkpt>
      <trkpt lat="45.18205" lon="6.09581">
        <ele>1811.8000488281</ele>
        <time>2012-01-08T10:09:55.000Z</time>
      </trkpt>
      <trkpt lat="45.18199" lon="6.09584">
        <ele>1809.4000244141</ele>
        <time>2012-01-08T10:09:57.000Z</time>
      </trkpt>
      <trkpt lat="45.18191" lon="6.09589">
        <ele>1805</ele>
        <time>2012-01-08T10:10:00.000Z</time>
      </trkpt>
      <trkpt lat="45.18188" lon="6.09576">
        <ele>1802</ele>
        <time>2012-01-08T10:10:02.000Z</time>
      </trkpt>
      <trkpt lat="45.18183" lon="6.0956">
        <ele>1800.1999511719</ele>
        <time>2012-01-08T10:10:04.000Z</time>
      </trkpt>
      <trkpt lat="45.18177" lon="6.09534">
        <ele>1799.5999755859</ele>
        <time>2012-01-08T10:10:09.000Z</time>
      </trkpt>
      <trkpt lat="45.18176" lon="6.09534">
        <ele>1800.4000244141</ele>
        <time>2012-01-08T10:10:19.000Z</time>
      </trkpt>
      <trkpt lat="45.18179" lon="6.09534">
        <ele>1801.4000244141</ele>
        <time>2012-01-08T10:10:37.000Z</time>
      </trkpt>
      <trkpt lat="45.1818" lon="6.09534">
        <ele>1801.5999755859</ele>
        <time>2012-01-08T10:10:42.000Z</time>
      </trkpt>
      <trkpt lat="45.1818" lon="6.09538">
        <ele>1799.8000488281</ele>
        <time>2012-01-08T10:10:48.000Z</time>
      </trkpt>
      <trkpt lat="45.18179" lon="6.09538">
        <ele>1798</ele>
        <time>2012-01-08T10:10:50.000Z</time>
      </trkpt>
      <trkpt lat="45.18177" lon="6.09536">
        <ele>1800</ele>
        <time>2012-01-08T10:14:14.000Z</time>
      </trkpt>
      <trkpt lat="45.18182" lon="6.09539">
        <ele>1800.5999755859</ele>
        <time>2012-01-08T10:14:33.000Z</time>
      </trkpt>
      <trkpt lat="45.18188" lon="6.09551">
        <ele>1800.5999755859</ele>
        <time>2012-01-08T10:14:43.000Z</time>
      </trkpt>
      <trkpt lat="45.18194" lon="6.09561">
        <ele>1800</ele>
        <time>2012-01-08T10:14:52.000Z</time>
      </trkpt>
      <trkpt lat="45.18196" lon="6.09569">
        <ele>1800.8000488281</ele>
        <time>2012-01-08T10:15:00.000Z</time>
      </trkpt>
      <trkpt lat="45.18197" lon="6.09571">
        <ele>1801.1999511719</ele>
        <time>2012-01-08T10:15:02.000Z</time>
      </trkpt>
      <trkpt lat="45.182" lon="6.09578">
        <ele>1803.5999755859</ele>
        <time>2012-01-08T10:15:11.000Z</time>
      </trkpt>
      <trkpt lat="45.18202" lon="6.09579">
        <ele>1804.5999755859</ele>
        <time>2012-01-08T10:15:19.000Z</time>
      </trkpt>
      <trkpt lat="45.18207" lon="6.09589">
        <ele>1807</ele>
        <time>2012-01-08T10:15:29.000Z</time>
      </trkpt>
      <trkpt lat="45.18207" lon="6.09597">
        <ele>1809.5999755859</ele>
        <time>2012-01-08T10:15:37.000Z</time>
      </trkpt>
      <trkpt lat="45.18208" lon="6.09602">
        <ele>1811.1999511719</ele>
        <time>2012-01-08T10:15:45.000Z</time>
      </trkpt>
      <trkpt lat="45.18211" lon="6.09603">
        <ele>1812</ele>
        <time>2012-01-08T10:15:51.000Z</time>
      </trkpt>
      <trkpt lat="45.18214" lon="6.09604">
        <ele>1813.5999755859</ele>
        <time>2012-01-08T10:15:56.000Z</time>
      </trkpt>
      <trkpt lat="45.18216" lon="6.09605">
        <ele>1813.8000488281</ele>
        <time>2012-01-08T10:16:02.000Z</time>
      </trkpt>
      <trkpt lat="45.18224" lon="6.09606">
        <ele>1816.1999511719</ele>
        <time>2012-01-08T10:16:12.000Z</time>
      </trkpt>
      <trkpt lat="45.18233" lon="6.09603">
        <ele>1818.1999511719</ele>
        <time>2012-01-08T10:16:24.000Z</time>
      </trkpt>
      <trkpt lat="45.18235" lon="6.09602">
        <ele>1818.5999755859</ele>
        <time>2012-01-08T10:16:26.000Z</time>
      </trkpt>
      <trkpt lat="45.18237" lon="6.09595">
        <ele>1821.4000244141</ele>
        <time>2012-01-08T10:16:35.000Z</time>
      </trkpt>
      <trkpt lat="45.1824" lon="6.0959">
        <ele>1823.4000244141</ele>
        <time>2012-01-08T10:16:42.000Z</time>
      </trkpt>
      <trkpt lat="45.18243" lon="6.09582">
        <ele>1825.4000244141</ele>
        <time>2012-01-08T10:16:51.000Z</time>
      </trkpt>
      <trkpt lat="45.18248" lon="6.09576">
        <ele>1827.5999755859</ele>
        <time>2012-01-08T10:17:00.000Z</time>
      </trkpt>
      <trkpt lat="45.18251" lon="6.09571">
        <ele>1828.5999755859</ele>
        <time>2012-01-08T10:17:07.000Z</time>
      </trkpt>
      <trkpt lat="45.18253" lon="6.09566">
        <ele>1830</ele>
        <time>2012-01-08T10:17:13.000Z</time>
      </trkpt>
      <trkpt lat="45.18257" lon="6.09563">
        <ele>1831</ele>
        <time>2012-01-08T10:17:19.000Z</time>
      </trkpt>
      <trkpt lat="45.18258" lon="6.09565">
        <ele>1832.1999511719</ele>
        <time>2012-01-08T10:17:21.000Z</time>
      </trkpt>
      <trkpt lat="45.1826" lon="6.0957">
        <ele>1836</ele>
        <time>2012-01-08T10:17:26.000Z</time>
      </trkpt>
      <trkpt lat="45.1826" lon="6.09572">
        <ele>1836</ele>
        <time>2012-01-08T10:17:28.000Z</time>
      </trkpt>
      <trkpt lat="45.18266" lon="6.09582">
        <ele>1838</ele>
        <time>2012-01-08T10:17:40.000Z</time>
      </trkpt>
      <trkpt lat="45.18271" lon="6.09589">
        <ele>1839.1999511719</ele>
        <time>2012-01-08T10:17:50.000Z</time>
      </trkpt>
      <trkpt lat="45.18276" lon="6.09595">
        <ele>1840.1999511719</ele>
        <time>2012-01-08T10:17:59.000Z</time>
      </trkpt>
      <trkpt lat="45.18282" lon="6.09603">
        <ele>1842.5999755859</ele>
        <time>2012-01-08T10:18:10.000Z</time>
      </trkpt>
      <trkpt lat="45.18286" lon="6.09612">
        <ele>1844.4000244141</ele>
        <time>2012-01-08T10:18:20.000Z</time>
      </trkpt>
      <trkpt lat="45.1829" lon="6.09621">
        <ele>1846</ele>
        <time>2012-01-08T10:18:30.000Z</time>
      </trkpt>
      <trkpt lat="45.18293" lon="6.09628">
        <ele>1848</ele>
        <time>2012-01-08T10:18:39.000Z</time>
      </trkpt>
      <trkpt lat="45.18296" lon="6.09634">
        <ele>1849</ele>
        <time>2012-01-08T10:18:47.000Z</time>
      </trkpt>
      <trkpt lat="45.183" lon="6.0964">
        <ele>1851.1999511719</ele>
        <time>2012-01-08T10:18:56.000Z</time>
      </trkpt>
      <trkpt lat="45.18303" lon="6.09647">
        <ele>1852.4000244141</ele>
        <time>2012-01-08T10:19:05.000Z</time>
      </trkpt>
      <trkpt lat="45.18308" lon="6.09647">
        <ele>1853.5999755859</ele>
        <time>2012-01-08T10:19:15.000Z</time>
      </trkpt>
      <trkpt lat="45.18311" lon="6.09646">
        <ele>1854.8000488281</ele>
        <time>2012-01-08T10:19:21.000Z</time>
      </trkpt>
      <trkpt lat="45.18315" lon="6.09644">
        <ele>1856.8000488281</ele>
        <time>2012-01-08T10:19:29.000Z</time>
      </trkpt>
      <trkpt lat="45.18318" lon="6.09644">
        <ele>1857.5999755859</ele>
        <time>2012-01-08T10:19:31.000Z</time>
      </trkpt>
      <trkpt lat="45.18322" lon="6.09648">
        <ele>1859.8000488281</ele>
        <time>2012-01-08T10:19:37.000Z</time>
      </trkpt>
      <trkpt lat="45.18325" lon="6.09656">
        <ele>1862.1999511719</ele>
        <time>2012-01-08T10:19:46.000Z</time>
      </trkpt>
      <trkpt lat="45.18327" lon="6.09663">
        <ele>1863.4000244141</ele>
        <time>2012-01-08T10:19:54.000Z</time>
      </trkpt>
      <trkpt lat="45.18329" lon="6.09668">
        <ele>1864.4000244141</ele>
        <time>2012-01-08T10:20:01.000Z</time>
      </trkpt>
      <trkpt lat="45.18332" lon="6.09671">
        <ele>1864.8000488281</ele>
        <time>2012-01-08T10:20:08.000Z</time>
      </trkpt>
      <trkpt lat="45.18336" lon="6.09673">
        <ele>1866.1999511719</ele>
        <time>2012-01-08T10:20:16.000Z</time>
      </trkpt>
      <trkpt lat="45.18342" lon="6.09673">
        <ele>1869</ele>
        <time>2012-01-08T10:20:27.000Z</time>
      </trkpt>
      <trkpt lat="45.18344" lon="6.09674">
        <ele>1870.8000488281</ele>
        <time>2012-01-08T10:20:31.000Z</time>
      </trkpt>
      <trkpt lat="45.18349" lon="6.09681">
        <ele>1873.8000488281</ele>
        <time>2012-01-08T10:20:41.000Z</time>
      </trkpt>
      <trkpt lat="45.18352" lon="6.09692">
        <ele>1876.8000488281</ele>
        <time>2012-01-08T10:20:53.000Z</time>
      </trkpt>
      <trkpt lat="45.18352" lon="6.09699">
        <ele>1878.8000488281</ele>
        <time>2012-01-08T10:21:02.000Z</time>
      </trkpt>
      <trkpt lat="45.18353" lon="6.09707">
        <ele>1879.8000488281</ele>
        <time>2012-01-08T10:21:11.000Z</time>
      </trkpt>
      <trkpt lat="45.18354" lon="6.09715">
        <ele>1882</ele>
        <time>2012-01-08T10:21:21.000Z</time>
      </trkpt>
      <trkpt lat="45.18358" lon="6.09719">
        <ele>1883.1999511719</ele>
        <time>2012-01-08T10:21:32.000Z</time>
      </trkpt>
      <trkpt lat="45.18365" lon="6.09721">
        <ele>1885.4000244141</ele>
        <time>2012-01-08T10:21:43.000Z</time>
      </trkpt>
      <trkpt lat="45.18371" lon="6.0972">
        <ele>1886.4000244141</ele>
        <time>2012-01-08T10:21:50.000Z</time>
      </trkpt>
      <trkpt lat="45.18378" lon="6.09721">
        <ele>1887.8000488281</ele>
        <time>2012-01-08T10:22:00.000Z</time>
      </trkpt>
      <trkpt lat="45.18385" lon="6.09722">
        <ele>1890.1999511719</ele>
        <time>2012-01-08T10:22:10.000Z</time>
      </trkpt>
      <trkpt lat="45.1839" lon="6.0972">
        <ele>1892</ele>
        <time>2012-01-08T10:22:19.000Z</time>
      </trkpt>
      <trkpt lat="45.18395" lon="6.09718">
        <ele>1893.4000244141</ele>
        <time>2012-01-08T10:22:26.000Z</time>
      </trkpt>
      <trkpt lat="45.18398" lon="6.09713">
        <ele>1895.4000244141</ele>
        <time>2012-01-08T10:22:36.000Z</time>
      </trkpt>
      <trkpt lat="45.18403" lon="6.09709">
        <ele>1898</ele>
        <time>2012-01-08T10:22:47.000Z</time>
      </trkpt>
      <trkpt lat="45.18405" lon="6.09706">
        <ele>1899.4000244141</ele>
        <time>2012-01-08T10:22:53.000Z</time>
      </trkpt>
      <trkpt lat="45.18409" lon="6.09702">
        <ele>1901.5999755859</ele>
        <time>2012-01-08T10:23:01.000Z</time>
      </trkpt>
      <trkpt lat="45.18412" lon="6.09701">
        <ele>1903</ele>
        <time>2012-01-08T10:23:07.000Z</time>
      </trkpt>
      <trkpt lat="45.18418" lon="6.09697">
        <ele>1905.8000488281</ele>
        <time>2012-01-08T10:23:17.000Z</time>
      </trkpt>
      <trkpt lat="45.18422" lon="6.09695">
        <ele>1907.1999511719</ele>
        <time>2012-01-08T10:23:23.000Z</time>
      </trkpt>
      <trkpt lat="45.18424" lon="6.09695">
        <ele>1909.4000244141</ele>
        <time>2012-01-08T10:23:27.000Z</time>
      </trkpt>
      <trkpt lat="45.18426" lon="6.09698">
        <ele>1912</ele>
        <time>2012-01-08T10:23:34.000Z</time>
      </trkpt>
      <trkpt lat="45.18425" lon="6.09704">
        <ele>1914</ele>
        <time>2012-01-08T10:23:43.000Z</time>
      </trkpt>
      <trkpt lat="45.18427" lon="6.09712">
        <ele>1915.8000488281</ele>
        <time>2012-01-08T10:23:54.000Z</time>
      </trkpt>
      <trkpt lat="45.18428" lon="6.09713">
        <ele>1916</ele>
        <time>2012-01-08T10:23:55.000Z</time>
      </trkpt>
      <trkpt lat="45.1843" lon="6.09718">
        <ele>1917.5999755859</ele>
        <time>2012-01-08T10:24:04.000Z</time>
      </trkpt>
      <trkpt lat="45.18434" lon="6.09724">
        <ele>1920</ele>
        <time>2012-01-08T10:24:15.000Z</time>
      </trkpt>
      <trkpt lat="45.18437" lon="6.09729">
        <ele>1921.5999755859</ele>
        <time>2012-01-08T10:24:24.000Z</time>
      </trkpt>
      <trkpt lat="45.18437" lon="6.0973">
        <ele>1922.8000488281</ele>
        <time>2012-01-08T10:24:28.000Z</time>
      </trkpt>
      <trkpt lat="45.1844" lon="6.09735">
        <ele>1922</ele>
        <time>2012-01-08T10:25:10.000Z</time>
      </trkpt>
      <trkpt lat="45.18445" lon="6.09745">
        <ele>1924.8000488281</ele>
        <time>2012-01-08T10:25:22.000Z</time>
      </trkpt>
      <trkpt lat="45.18448" lon="6.09757">
        <ele>1927.1999511719</ele>
        <time>2012-01-08T10:25:32.000Z</time>
      </trkpt>
      <trkpt lat="45.18449" lon="6.09768">
        <ele>1928.8000488281</ele>
        <time>2012-01-08T10:25:42.000Z</time>
      </trkpt>
      <trkpt lat="45.18449" lon="6.09779">
        <ele>1930.8000488281</ele>
        <time>2012-01-08T10:25:52.000Z</time>
      </trkpt>
      <trkpt lat="45.18449" lon="6.09789">
        <ele>1932.1999511719</ele>
        <time>2012-01-08T10:26:01.000Z</time>
      </trkpt>
      <trkpt lat="45.18452" lon="6.09797">
        <ele>1934.1999511719</ele>
        <time>2012-01-08T10:26:10.000Z</time>
      </trkpt>
      <trkpt lat="45.18453" lon="6.09798">
        <ele>1934.4000244141</ele>
        <time>2012-01-08T10:26:11.000Z</time>
      </trkpt>
      <trkpt lat="45.18461" lon="6.09802">
        <ele>1934.1999511719</ele>
        <time>2012-01-08T10:26:20.000Z</time>
      </trkpt>
      <trkpt lat="45.18466" lon="6.09804">
        <ele>1936.4000244141</ele>
        <time>2012-01-08T10:26:28.000Z</time>
      </trkpt>
      <trkpt lat="45.18471" lon="6.09806">
        <ele>1937.5999755859</ele>
        <time>2012-01-08T10:26:34.000Z</time>
      </trkpt>
      <trkpt lat="45.18477" lon="6.0981">
        <ele>1939.8000488281</ele>
        <time>2012-01-08T10:26:44.000Z</time>
      </trkpt>
      <trkpt lat="45.18485" lon="6.09814">
        <ele>1942.1999511719</ele>
        <time>2012-01-08T10:26:55.000Z</time>
      </trkpt>
      <trkpt lat="45.18491" lon="6.09818">
        <ele>1944</ele>
        <time>2012-01-08T10:27:04.000Z</time>
      </trkpt>
      <trkpt lat="45.18497" lon="6.09826">
        <ele>1945.8000488281</ele>
        <time>2012-01-08T10:27:14.000Z</time>
      </trkpt>
      <trkpt lat="45.18502" lon="6.09832">
        <ele>1946.8000488281</ele>
        <time>2012-01-08T10:27:23.000Z</time>
      </trkpt>
      <trkpt lat="45.18507" lon="6.09837">
        <ele>1947.4000244141</ele>
        <time>2012-01-08T10:27:36.000Z</time>
      </trkpt>
      <trkpt lat="45.18515" lon="6.09845">
        <ele>1946.5999755859</ele>
        <time>2012-01-08T10:27:46.000Z</time>
      </trkpt>
      <trkpt lat="45.1852" lon="6.09851">
        <ele>1947.4000244141</ele>
        <time>2012-01-08T10:27:55.000Z</time>
      </trkpt>
      <trkpt lat="45.18526" lon="6.09857">
        <ele>1948</ele>
        <time>2012-01-08T10:28:02.000Z</time>
      </trkpt>
      <trkpt lat="45.18532" lon="6.09864">
        <ele>1949</ele>
        <time>2012-01-08T10:28:10.000Z</time>
      </trkpt>
      <trkpt lat="45.18535" lon="6.09869">
        <ele>1950.4000244141</ele>
        <time>2012-01-08T10:28:16.000Z</time>
      </trkpt>
      <trkpt lat="45.18543" lon="6.09879">
        <ele>1951.8000488281</ele>
        <time>2012-01-08T10:28:25.000Z</time>
      </trkpt>
      <trkpt lat="45.1855" lon="6.09888">
        <ele>1953.5999755859</ele>
        <time>2012-01-08T10:28:34.000Z</time>
      </trkpt>
      <trkpt lat="45.18556" lon="6.09897">
        <ele>1955.4000244141</ele>
        <time>2012-01-08T10:28:43.000Z</time>
      </trkpt>
      <trkpt lat="45.18563" lon="6.09908">
        <ele>1957.1999511719</ele>
        <time>2012-01-08T10:28:53.000Z</time>
      </trkpt>
      <trkpt lat="45.18571" lon="6.09919">
        <ele>1959.1999511719</ele>
        <time>2012-01-08T10:29:04.000Z</time>
      </trkpt>
      <trkpt lat="45.18579" lon="6.09928">
        <ele>1960.8000488281</ele>
        <time>2012-01-08T10:29:15.000Z</time>
      </trkpt>
      <trkpt lat="45.18588" lon="6.09937">
        <ele>1961.8000488281</ele>
        <time>2012-01-08T10:29:25.000Z</time>
      </trkpt>
      <trkpt lat="45.18595" lon="6.09947">
        <ele>1962.8000488281</ele>
        <time>2012-01-08T10:29:35.000Z</time>
      </trkpt>
      <trkpt lat="45.18603" lon="6.09955">
        <ele>1963.5999755859</ele>
        <time>2012-01-08T10:29:44.000Z</time>
      </trkpt>
      <trkpt lat="45.18611" lon="6.09963">
        <ele>1964.8000488281</ele>
        <time>2012-01-08T10:29:54.000Z</time>
      </trkpt>
      <trkpt lat="45.18618" lon="6.09969">
        <ele>1966.4000244141</ele>
        <time>2012-01-08T10:30:02.000Z</time>
      </trkpt>
      <trkpt lat="45.18626" lon="6.09978">
        <ele>1968.1999511719</ele>
        <time>2012-01-08T10:30:12.000Z</time>
      </trkpt>
      <trkpt lat="45.18631" lon="6.09989">
        <ele>1970.1999511719</ele>
        <time>2012-01-08T10:30:22.000Z</time>
      </trkpt>
      <trkpt lat="45.18634" lon="6.10002">
        <ele>1971.5999755859</ele>
        <time>2012-01-08T10:30:32.000Z</time>
      </trkpt>
      <trkpt lat="45.18635" lon="6.10017">
        <ele>1972.4000244141</ele>
        <time>2012-01-08T10:30:42.000Z</time>
      </trkpt>
      <trkpt lat="45.18635" lon="6.10032">
        <ele>1974</ele>
        <time>2012-01-08T10:30:53.000Z</time>
      </trkpt>
      <trkpt lat="45.18634" lon="6.10044">
        <ele>1975.1999511719</ele>
        <time>2012-01-08T10:31:02.000Z</time>
      </trkpt>
      <trkpt lat="45.18635" lon="6.10057">
        <ele>1976.5999755859</ele>
        <time>2012-01-08T10:31:13.000Z</time>
      </trkpt>
      <trkpt lat="45.18636" lon="6.1007">
        <ele>1977.8000488281</ele>
        <time>2012-01-08T10:31:23.000Z</time>
      </trkpt>
      <trkpt lat="45.18637" lon="6.10085">
        <ele>1979.1999511719</ele>
        <time>2012-01-08T10:31:34.000Z</time>
      </trkpt>
      <trkpt lat="45.18639" lon="6.10098">
        <ele>1980.4000244141</ele>
        <time>2012-01-08T10:31:44.000Z</time>
      </trkpt>
      <trkpt lat="45.18641" lon="6.10111">
        <ele>1982</ele>
        <time>2012-01-08T10:31:56.000Z</time>
      </trkpt>
      <trkpt lat="45.18642" lon="6.10123">
        <ele>1983.8000488281</ele>
        <time>2012-01-08T10:32:07.000Z</time>
      </trkpt>
      <trkpt lat="45.18643" lon="6.10129">
        <ele>1985.5999755859</ele>
        <time>2012-01-08T10:32:16.000Z</time>
      </trkpt>
      <trkpt lat="45.18643" lon="6.10136">
        <ele>1986.4000244141</ele>
        <time>2012-01-08T10:32:27.000Z</time>
      </trkpt>
      <trkpt lat="45.18644" lon="6.10148">
        <ele>1988.4000244141</ele>
        <time>2012-01-08T10:32:37.000Z</time>
      </trkpt>
      <trkpt lat="45.18645" lon="6.10161">
        <ele>1990.5999755859</ele>
        <time>2012-01-08T10:32:49.000Z</time>
      </trkpt>
      <trkpt lat="45.18645" lon="6.10174">
        <ele>1993</ele>
        <time>2012-01-08T10:33:00.000Z</time>
      </trkpt>
      <trkpt lat="45.18643" lon="6.10186">
        <ele>1995.1999511719</ele>
        <time>2012-01-08T10:33:11.000Z</time>
      </trkpt>
      <trkpt lat="45.18642" lon="6.10188">
        <ele>1995.5999755859</ele>
        <time>2012-01-08T10:33:13.000Z</time>
      </trkpt>
      <trkpt lat="45.18633" lon="6.10193">
        <ele>1997.4000244141</ele>
        <time>2012-01-08T10:33:24.000Z</time>
      </trkpt>
      <trkpt lat="45.18631" lon="6.10195">
        <ele>1997.8000488281</ele>
        <time>2012-01-08T10:33:26.000Z</time>
      </trkpt>
      <trkpt lat="45.18627" lon="6.10207">
        <ele>1999.5999755859</ele>
        <time>2012-01-08T10:33:38.000Z</time>
      </trkpt>
      <trkpt lat="45.18629" lon="6.10217">
        <ele>2000.4000244141</ele>
        <time>2012-01-08T10:33:47.000Z</time>
      </trkpt>
      <trkpt lat="45.18633" lon="6.10227">
        <ele>2001.8000488281</ele>
        <time>2012-01-08T10:33:57.000Z</time>
      </trkpt>
      <trkpt lat="45.18638" lon="6.10235">
        <ele>2003</ele>
        <time>2012-01-08T10:34:06.000Z</time>
      </trkpt>
      <trkpt lat="45.18643" lon="6.10244">
        <ele>2005</ele>
        <time>2012-01-08T10:34:16.000Z</time>
      </trkpt>
      <trkpt lat="45.18648" lon="6.10251">
        <ele>2006.5999755859</ele>
        <time>2012-01-08T10:34:25.000Z</time>
      </trkpt>
      <trkpt lat="45.18654" lon="6.10265">
        <ele>2009</ele>
        <time>2012-01-08T10:34:38.000Z</time>
      </trkpt>
      <trkpt lat="45.1866" lon="6.10276">
        <ele>2010.8000488281</ele>
        <time>2012-01-08T10:34:50.000Z</time>
      </trkpt>
      <trkpt lat="45.18667" lon="6.10284">
        <ele>2012.5999755859</ele>
        <time>2012-01-08T10:35:01.000Z</time>
      </trkpt>
      <trkpt lat="45.18672" lon="6.10293">
        <ele>2014.8000488281</ele>
        <time>2012-01-08T10:35:11.000Z</time>
      </trkpt>
      <trkpt lat="45.18677" lon="6.10301">
        <ele>2016.1999511719</ele>
        <time>2012-01-08T10:35:20.000Z</time>
      </trkpt>
      <trkpt lat="45.18682" lon="6.10309">
        <ele>2018</ele>
        <time>2012-01-08T10:35:29.000Z</time>
      </trkpt>
      <trkpt lat="45.18687" lon="6.10316">
        <ele>2019</ele>
        <time>2012-01-08T10:35:38.000Z</time>
      </trkpt>
      <trkpt lat="45.18692" lon="6.10324">
        <ele>2020.4000244141</ele>
        <time>2012-01-08T10:35:47.000Z</time>
      </trkpt>
      <trkpt lat="45.18699" lon="6.10332">
        <ele>2022</ele>
        <time>2012-01-08T10:35:58.000Z</time>
      </trkpt>
      <trkpt lat="45.18702" lon="6.1034">
        <ele>2023.5999755859</ele>
        <time>2012-01-08T10:36:06.000Z</time>
      </trkpt>
      <trkpt lat="45.18706" lon="6.1035">
        <ele>2025.4000244141</ele>
        <time>2012-01-08T10:36:16.000Z</time>
      </trkpt>
      <trkpt lat="45.1871" lon="6.10359">
        <ele>2026.8000488281</ele>
        <time>2012-01-08T10:36:26.000Z</time>
      </trkpt>
      <trkpt lat="45.18714" lon="6.1037">
        <ele>2028.4000244141</ele>
        <time>2012-01-08T10:36:36.000Z</time>
      </trkpt>
      <trkpt lat="45.18719" lon="6.10379">
        <ele>2030.1999511719</ele>
        <time>2012-01-08T10:36:47.000Z</time>
      </trkpt>
      <trkpt lat="45.18724" lon="6.10385">
        <ele>2032.4000244141</ele>
        <time>2012-01-08T10:36:56.000Z</time>
      </trkpt>
      <trkpt lat="45.18729" lon="6.10391">
        <ele>2034.4000244141</ele>
        <time>2012-01-08T10:37:05.000Z</time>
      </trkpt>
      <trkpt lat="45.18735" lon="6.10399">
        <ele>2037</ele>
        <time>2012-01-08T10:37:17.000Z</time>
      </trkpt>
      <trkpt lat="45.18741" lon="6.10409">
        <ele>2039.5999755859</ele>
        <time>2012-01-08T10:37:30.000Z</time>
      </trkpt>
      <trkpt lat="45.18746" lon="6.10416">
        <ele>2041.5999755859</ele>
        <time>2012-01-08T10:37:41.000Z</time>
      </trkpt>
      <trkpt lat="45.18751" lon="6.10422">
        <ele>2044</ele>
        <time>2012-01-08T10:37:52.000Z</time>
      </trkpt>
      <trkpt lat="45.18756" lon="6.10428">
        <ele>2046</ele>
        <time>2012-01-08T10:38:02.000Z</time>
      </trkpt>
      <trkpt lat="45.18758" lon="6.10431">
        <ele>2047.8000488281</ele>
        <time>2012-01-08T10:38:08.000Z</time>
      </trkpt>
      <trkpt lat="45.18762" lon="6.10438">
        <ele>2049.6000976562</ele>
        <time>2012-01-08T10:38:18.000Z</time>
      </trkpt>
      <trkpt lat="45.18767" lon="6.10445">
        <ele>2051.8000488281</ele>
        <time>2012-01-08T10:38:29.000Z</time>
      </trkpt>
      <trkpt lat="45.18771" lon="6.10452">
        <ele>2053.3999023438</ele>
        <time>2012-01-08T10:38:39.000Z</time>
      </trkpt>
      <trkpt lat="45.18775" lon="6.10458">
        <ele>2055.3999023438</ele>
        <time>2012-01-08T10:38:50.000Z</time>
      </trkpt>
      <trkpt lat="45.18779" lon="6.10463">
        <ele>2057.6000976562</ele>
        <time>2012-01-08T10:39:00.000Z</time>
      </trkpt>
      <trkpt lat="45.18783" lon="6.10469">
        <ele>2059.1999511719</ele>
        <time>2012-01-08T10:39:10.000Z</time>
      </trkpt>
      <trkpt lat="45.18784" lon="6.10471">
        <ele>2059.6000976562</ele>
        <time>2012-01-08T10:39:14.000Z</time>
      </trkpt>
      <trkpt lat="45.18785" lon="6.10475">
        <ele>2060.3999023438</ele>
        <time>2012-01-08T10:39:19.000Z</time>
      </trkpt>
      <trkpt lat="45.18787" lon="6.10479">
        <ele>2061.8000488281</ele>
        <time>2012-01-08T10:39:26.000Z</time>
      </trkpt>
      <trkpt lat="45.18788" lon="6.10483">
        <ele>2062.3999023438</ele>
        <time>2012-01-08T10:39:31.000Z</time>
      </trkpt>
      <trkpt lat="45.18792" lon="6.10482">
        <ele>2064.3999023438</ele>
        <time>2012-01-08T10:39:39.000Z</time>
      </trkpt>
      <trkpt lat="45.18796" lon="6.10474">
        <ele>2066.1999511719</ele>
        <time>2012-01-08T10:39:50.000Z</time>
      </trkpt>
      <trkpt lat="45.18801" lon="6.10469">
        <ele>2067.6000976562</ele>
        <time>2012-01-08T10:40:00.000Z</time>
      </trkpt>
      <trkpt lat="45.18804" lon="6.10464">
        <ele>2069.3999023438</ele>
        <time>2012-01-08T10:40:08.000Z</time>
      </trkpt>
      <trkpt lat="45.18805" lon="6.1046">
        <ele>2070.8000488281</ele>
        <time>2012-01-08T10:40:15.000Z</time>
      </trkpt>
      <trkpt lat="45.18805" lon="6.10459">
        <ele>2071.1999511719</ele>
        <time>2012-01-08T10:40:22.000Z</time>
      </trkpt>
      <trkpt lat="45.18808" lon="6.10462">
        <ele>2072.3999023438</ele>
        <time>2012-01-08T10:40:29.000Z</time>
      </trkpt>
      <trkpt lat="45.18811" lon="6.10466">
        <ele>2073.6000976562</ele>
        <time>2012-01-08T10:40:36.000Z</time>
      </trkpt>
      <trkpt lat="45.18814" lon="6.10467">
        <ele>2074.6000976562</ele>
        <time>2012-01-08T10:40:41.000Z</time>
      </trkpt>
      <trkpt lat="45.18816" lon="6.10473">
        <ele>2076.1999511719</ele>
        <time>2012-01-08T10:40:49.000Z</time>
      </trkpt>
      <trkpt lat="45.18818" lon="6.10482">
        <ele>2078.6000976562</ele>
        <time>2012-01-08T10:41:00.000Z</time>
      </trkpt>
      <trkpt lat="45.1882" lon="6.10491">
        <ele>2081</ele>
        <time>2012-01-08T10:41:11.000Z</time>
      </trkpt>
      <trkpt lat="45.1882" lon="6.10496">
        <ele>2082.1999511719</ele>
        <time>2012-01-08T10:41:19.000Z</time>
      </trkpt>
      <trkpt lat="45.18823" lon="6.10494">
        <ele>2082.3999023438</ele>
        <time>2012-01-08T10:41:27.000Z</time>
      </trkpt>
      <trkpt lat="45.18826" lon="6.10492">
        <ele>2083.8000488281</ele>
        <time>2012-01-08T10:41:33.000Z</time>
      </trkpt>
      <trkpt lat="45.18829" lon="6.10487">
        <ele>2085.6000976562</ele>
        <time>2012-01-08T10:41:41.000Z</time>
      </trkpt>
      <trkpt lat="45.18832" lon="6.10479">
        <ele>2087.8000488281</ele>
        <time>2012-01-08T10:41:51.000Z</time>
      </trkpt>
      <trkpt lat="45.18834" lon="6.10471">
        <ele>2089.6000976562</ele>
        <time>2012-01-08T10:42:01.000Z</time>
      </trkpt>
      <trkpt lat="45.18835" lon="6.10472">
        <ele>2089.8000488281</ele>
        <time>2012-01-08T10:42:09.000Z</time>
      </trkpt>
      <trkpt lat="45.18838" lon="6.1048">
        <ele>2091.6000976562</ele>
        <time>2012-01-08T10:42:18.000Z</time>
      </trkpt>
      <trkpt lat="45.18841" lon="6.10487">
        <ele>2092.6000976562</ele>
        <time>2012-01-08T10:42:27.000Z</time>
      </trkpt>
      <trkpt lat="45.18843" lon="6.10494">
        <ele>2093.6000976562</ele>
        <time>2012-01-08T10:42:36.000Z</time>
      </trkpt>
      <trkpt lat="45.18845" lon="6.10505">
        <ele>2095</ele>
        <time>2012-01-08T10:42:47.000Z</time>
      </trkpt>
      <trkpt lat="45.18846" lon="6.10505">
        <ele>2095.1999511719</ele>
        <time>2012-01-08T10:42:48.000Z</time>
      </trkpt>
      <trkpt lat="45.1885" lon="6.10512">
        <ele>2096.6000976562</ele>
        <time>2012-01-08T10:42:58.000Z</time>
      </trkpt>
      <trkpt lat="45.18854" lon="6.10518">
        <ele>2099.1999511719</ele>
        <time>2012-01-08T10:43:09.000Z</time>
      </trkpt>
      <trkpt lat="45.18858" lon="6.10522">
        <ele>2101</ele>
        <time>2012-01-08T10:43:16.000Z</time>
      </trkpt>
      <trkpt lat="45.18859" lon="6.10525">
        <ele>2102.6000976562</ele>
        <time>2012-01-08T10:43:22.000Z</time>
      </trkpt>
      <trkpt lat="45.1886" lon="6.10534">
        <ele>2105.3999023438</ele>
        <time>2012-01-08T10:43:34.000Z</time>
      </trkpt>
      <trkpt lat="45.18863" lon="6.10541">
        <ele>2107.1999511719</ele>
        <time>2012-01-08T10:43:45.000Z</time>
      </trkpt>
      <trkpt lat="45.18868" lon="6.10544">
        <ele>2109</ele>
        <time>2012-01-08T10:43:56.000Z</time>
      </trkpt>
      <trkpt lat="45.18871" lon="6.10544">
        <ele>2109.8000488281</ele>
        <time>2012-01-08T10:44:04.000Z</time>
      </trkpt>
      <trkpt lat="45.18876" lon="6.10545">
        <ele>2111.3999023438</ele>
        <time>2012-01-08T10:44:12.000Z</time>
      </trkpt>
      <trkpt lat="45.18879" lon="6.10548">
        <ele>2113.1999511719</ele>
        <time>2012-01-08T10:44:20.000Z</time>
      </trkpt>
      <trkpt lat="45.18884" lon="6.10552">
        <ele>2115.6000976562</ele>
        <time>2012-01-08T10:44:31.000Z</time>
      </trkpt>
      <trkpt lat="45.18889" lon="6.10554">
        <ele>2117</ele>
        <time>2012-01-08T10:44:39.000Z</time>
      </trkpt>
      <trkpt lat="45.18892" lon="6.10557">
        <ele>2118.8000488281</ele>
        <time>2012-01-08T10:44:47.000Z</time>
      </trkpt>
      <trkpt lat="45.18897" lon="6.10562">
        <ele>2121</ele>
        <time>2012-01-08T10:44:57.000Z</time>
      </trkpt>
      <trkpt lat="45.18901" lon="6.10566">
        <ele>2123.6000976562</ele>
        <time>2012-01-08T10:45:08.000Z</time>
      </trkpt>
      <trkpt lat="45.18906" lon="6.1057">
        <ele>2126.1999511719</ele>
        <time>2012-01-08T10:45:18.000Z</time>
      </trkpt>
      <trkpt lat="45.18907" lon="6.10573">
        <ele>2127</ele>
        <time>2012-01-08T10:45:27.000Z</time>
      </trkpt>
      <trkpt lat="45.18912" lon="6.10578">
        <ele>2128.8000488281</ele>
        <time>2012-01-08T10:45:37.000Z</time>
      </trkpt>
      <trkpt lat="45.18916" lon="6.10585">
        <ele>2130.8000488281</ele>
        <time>2012-01-08T10:45:47.000Z</time>
      </trkpt>
      <trkpt lat="45.1892" lon="6.1059">
        <ele>2132.3999023438</ele>
        <time>2012-01-08T10:45:56.000Z</time>
      </trkpt>
      <trkpt lat="45.18923" lon="6.10594">
        <ele>2134.3999023438</ele>
        <time>2012-01-08T10:46:05.000Z</time>
      </trkpt>
      <trkpt lat="45.18927" lon="6.10597">
        <ele>2136.1999511719</ele>
        <time>2012-01-08T10:46:13.000Z</time>
      </trkpt>
      <trkpt lat="45.18931" lon="6.10603">
        <ele>2138</ele>
        <time>2012-01-08T10:46:23.000Z</time>
      </trkpt>
      <trkpt lat="45.18937" lon="6.10608">
        <ele>2140.8000488281</ele>
        <time>2012-01-08T10:46:35.000Z</time>
      </trkpt>
      <trkpt lat="45.18942" lon="6.10612">
        <ele>2143</ele>
        <time>2012-01-08T10:46:45.000Z</time>
      </trkpt>
      <trkpt lat="45.18948" lon="6.10615">
        <ele>2145.3999023438</ele>
        <time>2012-01-08T10:46:56.000Z</time>
      </trkpt>
      <trkpt lat="45.18955" lon="6.10618">
        <ele>2147.6000976562</ele>
        <time>2012-01-08T10:47:07.000Z</time>
      </trkpt>
      <trkpt lat="45.1896" lon="6.1062">
        <ele>2149.3999023438</ele>
        <time>2012-01-08T10:47:16.000Z</time>
      </trkpt>
      <trkpt lat="45.18966" lon="6.10624">
        <ele>2151.6000976562</ele>
        <time>2012-01-08T10:47:27.000Z</time>
      </trkpt>
      <trkpt lat="45.18971" lon="6.10628">
        <ele>2153.6000976562</ele>
        <time>2012-01-08T10:47:37.000Z</time>
      </trkpt>
      <trkpt lat="45.18976" lon="6.10632">
        <ele>2155.8000488281</ele>
        <time>2012-01-08T10:47:48.000Z</time>
      </trkpt>
      <trkpt lat="45.18981" lon="6.10636">
        <ele>2157.1999511719</ele>
        <time>2012-01-08T10:47:57.000Z</time>
      </trkpt>
      <trkpt lat="45.18986" lon="6.10639">
        <ele>2158.8000488281</ele>
        <time>2012-01-08T10:48:06.000Z</time>
      </trkpt>
      <trkpt lat="45.1899" lon="6.10642">
        <ele>2160.3999023438</ele>
        <time>2012-01-08T10:48:15.000Z</time>
      </trkpt>
      <trkpt lat="45.18995" lon="6.10644">
        <ele>2162</ele>
        <time>2012-01-08T10:48:24.000Z</time>
      </trkpt>
      <trkpt lat="45.19" lon="6.10646">
        <ele>2164</ele>
        <time>2012-01-08T10:48:33.000Z</time>
      </trkpt>
      <trkpt lat="45.19005" lon="6.10648">
        <ele>2166</ele>
        <time>2012-01-08T10:48:44.000Z</time>
      </trkpt>
      <trkpt lat="45.19011" lon="6.10652">
        <ele>2168.1999511719</ele>
        <time>2012-01-08T10:48:55.000Z</time>
      </trkpt>
      <trkpt lat="45.19016" lon="6.10654">
        <ele>2170.1999511719</ele>
        <time>2012-01-08T10:49:05.000Z</time>
      </trkpt>
      <trkpt lat="45.19021" lon="6.10658">
        <ele>2171.6000976562</ele>
        <time>2012-01-08T10:49:14.000Z</time>
      </trkpt>
      <trkpt lat="45.19026" lon="6.10664">
        <ele>2172.6000976562</ele>
        <time>2012-01-08T10:49:22.000Z</time>
      </trkpt>
      <trkpt lat="45.19033" lon="6.10669">
        <ele>2174.3999023438</ele>
        <time>2012-01-08T10:49:33.000Z</time>
      </trkpt>
      <trkpt lat="45.19039" lon="6.10673">
        <ele>2176</ele>
        <time>2012-01-08T10:49:43.000Z</time>
      </trkpt>
      <trkpt lat="45.19047" lon="6.10677">
        <ele>2178</ele>
        <time>2012-01-08T10:49:54.000Z</time>
      </trkpt>
      <trkpt lat="45.19054" lon="6.10678">
        <ele>2179.3999023438</ele>
        <time>2012-01-08T10:50:03.000Z</time>
      </trkpt>
      <trkpt lat="45.1906" lon="6.10679">
        <ele>2179.8000488281</ele>
        <time>2012-01-08T10:50:11.000Z</time>
      </trkpt>
      <trkpt lat="45.19062" lon="6.10679">
        <ele>2181.1999511719</ele>
        <time>2012-01-08T10:50:17.000Z</time>
      </trkpt>
      <trkpt lat="45.19061" lon="6.1068">
        <ele>2181.3999023438</ele>
        <time>2012-01-08T10:50:35.000Z</time>
      </trkpt>
      <trkpt lat="45.19062" lon="6.10681">
        <ele>2181.1999511719</ele>
        <time>2012-01-08T10:56:35.000Z</time>
      </trkpt>
      <trkpt lat="45.19059" lon="6.10683">
        <ele>2180</ele>
        <time>2012-01-08T11:02:52.000Z</time>
      </trkpt>
      <trkpt lat="45.1906" lon="6.10679">
        <ele>2179.1999511719</ele>
        <time>2012-01-08T11:03:15.000Z</time>
      </trkpt>
      <trkpt lat="45.1906" lon="6.1068">
        <ele>2182.1999511719</ele>
        <time>2012-01-08T11:03:19.000Z</time>
      </trkpt>
      <trkpt lat="45.1906" lon="6.10682">
        <ele>2180.1999511719</ele>
        <time>2012-01-08T11:03:38.000Z</time>
      </trkpt>
      <trkpt lat="45.19061" lon="6.10682">
        <ele>2181.8000488281</ele>
        <time>2012-01-08T11:03:42.000Z</time>
      </trkpt>
      <trkpt lat="45.19061" lon="6.10682">
        <ele>2181</ele>
        <time>2012-01-08T11:03:44.000Z</time>
      </trkpt>
      <trkpt lat="45.1906" lon="6.10681">
        <ele>2182</ele>
        <time>2012-01-08T11:03:57.000Z</time>
      </trkpt>
      <trkpt lat="45.19061" lon="6.10682">
        <ele>2179.8000488281</ele>
        <time>2012-01-08T11:04:29.000Z</time>
      </trkpt>
      <trkpt lat="45.19062" lon="6.10681">
        <ele>2181.3999023438</ele>
        <time>2012-01-08T11:04:35.000Z</time>
      </trkpt>
      <trkpt lat="45.19062" lon="6.10681">
        <ele>2180</ele>
        <time>2012-01-08T11:04:39.000Z</time>
      </trkpt>
      <trkpt lat="45.1906" lon="6.10682">
        <ele>2181</ele>
        <time>2012-01-08T11:05:17.000Z</time>
      </trkpt>
      <trkpt lat="45.19058" lon="6.10689">
        <ele>2178.8000488281</ele>
        <time>2012-01-08T11:05:22.000Z</time>
      </trkpt>
      <trkpt lat="45.19059" lon="6.10691">
        <ele>2179</ele>
        <time>2012-01-08T11:05:34.000Z</time>
      </trkpt>
      <trkpt lat="45.1906" lon="6.10698">
        <ele>2178</ele>
        <time>2012-01-08T11:05:38.000Z</time>
      </trkpt>
      <trkpt lat="45.1906" lon="6.10701">
        <ele>2177.8000488281</ele>
        <time>2012-01-08T11:05:39.000Z</time>
      </trkpt>
      <trkpt lat="45.19045" lon="6.10701">
        <ele>2174.3999023438</ele>
        <time>2012-01-08T11:05:44.000Z</time>
      </trkpt>
      <trkpt lat="45.19032" lon="6.10698">
        <ele>2170.8000488281</ele>
        <time>2012-01-08T11:05:48.000Z</time>
      </trkpt>
      <trkpt lat="45.19021" lon="6.10695">
        <ele>2168.3999023438</ele>
        <time>2012-01-08T11:05:51.000Z</time>
      </trkpt>
      <trkpt lat="45.1901" lon="6.10688">
        <ele>2165.3999023438</ele>
        <time>2012-01-08T11:05:54.000Z</time>
      </trkpt>
      <trkpt lat="45.19002" lon="6.10677">
        <ele>2162.8000488281</ele>
        <time>2012-01-08T11:05:57.000Z</time>
      </trkpt>
      <trkpt lat="45.18993" lon="6.10662">
        <ele>2160.6000976562</ele>
        <time>2012-01-08T11:06:00.000Z</time>
      </trkpt>
      <trkpt lat="45.18984" lon="6.10649">
        <ele>2157.8000488281</ele>
        <time>2012-01-08T11:06:03.000Z</time>
      </trkpt>
      <trkpt lat="45.18982" lon="6.10642">
        <ele>2157</ele>
        <time>2012-01-08T11:06:04.000Z</time>
      </trkpt>
      <trkpt lat="45.18981" lon="6.10633">
        <ele>2156.3999023438</ele>
        <time>2012-01-08T11:06:08.000Z</time>
      </trkpt>
      <trkpt lat="45.1898" lon="6.10633">
        <ele>2156.6000976562</ele>
        <time>2012-01-08T11:06:21.000Z</time>
      </trkpt>
      <trkpt lat="45.18977" lon="6.10631">
        <ele>2156</ele>
        <time>2012-01-08T11:06:26.000Z</time>
      </trkpt>
      <trkpt lat="45.18973" lon="6.10624">
        <ele>2155</ele>
        <time>2012-01-08T11:06:44.000Z</time>
      </trkpt>
      <trkpt lat="45.18959" lon="6.10611">
        <ele>2151.1999511719</ele>
        <time>2012-01-08T11:06:48.000Z</time>
      </trkpt>
      <trkpt lat="45.18956" lon="6.10606">
        <ele>2147</ele>
        <time>2012-01-08T11:06:53.000Z</time>
      </trkpt>
      <trkpt lat="45.18954" lon="6.10603">
        <ele>2146.3999023438</ele>
        <time>2012-01-08T11:06:56.000Z</time>
      </trkpt>
      <trkpt lat="45.18942" lon="6.10602">
        <ele>2143.6000976562</ele>
        <time>2012-01-08T11:07:00.000Z</time>
      </trkpt>
      <trkpt lat="45.18935" lon="6.10593">
        <ele>2140.8000488281</ele>
        <time>2012-01-08T11:07:02.000Z</time>
      </trkpt>
      <trkpt lat="45.18921" lon="6.10575">
        <ele>2133.8000488281</ele>
        <time>2012-01-08T11:07:06.000Z</time>
      </trkpt>
      <trkpt lat="45.18912" lon="6.10561">
        <ele>2129</ele>
        <time>2012-01-08T11:07:09.000Z</time>
      </trkpt>
      <trkpt lat="45.18902" lon="6.10546">
        <ele>2124.6000976562</ele>
        <time>2012-01-08T11:07:12.000Z</time>
      </trkpt>
      <trkpt lat="45.18893" lon="6.10525">
        <ele>2117.3999023438</ele>
        <time>2012-01-08T11:07:17.000Z</time>
      </trkpt>
      <trkpt lat="45.18894" lon="6.10524">
        <ele>2116.1999511719</ele>
        <time>2012-01-08T11:07:19.000Z</time>
      </trkpt>
      <trkpt lat="45.18895" lon="6.10528">
        <ele>2116.1999511719</ele>
        <time>2012-01-08T11:07:32.000Z</time>
      </trkpt>
      <trkpt lat="45.18891" lon="6.1052">
        <ele>2114.3999023438</ele>
        <time>2012-01-08T11:07:36.000Z</time>
      </trkpt>
      <trkpt lat="45.18878" lon="6.10515">
        <ele>2108.1999511719</ele>
        <time>2012-01-08T11:07:40.000Z</time>
      </trkpt>
      <trkpt lat="45.18867" lon="6.10505">
        <ele>2104.6000976562</ele>
        <time>2012-01-08T11:07:43.000Z</time>
      </trkpt>
      <trkpt lat="45.18857" lon="6.10492">
        <ele>2097.3999023438</ele>
        <time>2012-01-08T11:07:48.000Z</time>
      </trkpt>
      <trkpt lat="45.18858" lon="6.10491">
        <ele>2097</ele>
        <time>2012-01-08T11:07:52.000Z</time>
      </trkpt>
      <trkpt lat="45.18852" lon="6.10495">
        <ele>2095.8000488281</ele>
        <time>2012-01-08T11:07:56.000Z</time>
      </trkpt>
      <trkpt lat="45.18845" lon="6.10505">
        <ele>2094.3999023438</ele>
        <time>2012-01-08T11:07:58.000Z</time>
      </trkpt>
      <trkpt lat="45.18832" lon="6.10517">
        <ele>2091</ele>
        <time>2012-01-08T11:08:02.000Z</time>
      </trkpt>
      <trkpt lat="45.18832" lon="6.10516">
        <ele>2091</ele>
        <time>2012-01-08T11:08:04.000Z</time>
      </trkpt>
      <trkpt lat="45.18832" lon="6.1051">
        <ele>2089</ele>
        <time>2012-01-08T11:08:08.000Z</time>
      </trkpt>
      <trkpt lat="45.18834" lon="6.10503">
        <ele>2087.8000488281</ele>
        <time>2012-01-08T11:08:20.000Z</time>
      </trkpt>
      <trkpt lat="45.18834" lon="6.10501">
        <ele>2087.1999511719</ele>
        <time>2012-01-08T11:08:22.000Z</time>
      </trkpt>
      <trkpt lat="45.18826" lon="6.10501">
        <ele>2085.1999511719</ele>
        <time>2012-01-08T11:08:26.000Z</time>
      </trkpt>
      <trkpt lat="45.18825" lon="6.10504">
        <ele>2084.1999511719</ele>
        <time>2012-01-08T11:08:28.000Z</time>
      </trkpt>
      <trkpt lat="45.18824" lon="6.10506">
        <ele>2084</ele>
        <time>2012-01-08T11:08:42.000Z</time>
      </trkpt>
      <trkpt lat="45.18819" lon="6.10499">
        <ele>2082.1999511719</ele>
        <time>2012-01-08T11:08:46.000Z</time>
      </trkpt>
      <trkpt lat="45.1881" lon="6.10486">
        <ele>2076.3999023438</ele>
        <time>2012-01-08T11:08:51.000Z</time>
      </trkpt>
      <trkpt lat="45.18809" lon="6.10489">
        <ele>2075.3999023438</ele>
        <time>2012-01-08T11:08:52.000Z</time>
      </trkpt>
      <trkpt lat="45.18796" lon="6.1049">
        <ele>2068.1999511719</ele>
        <time>2012-01-08T11:08:57.000Z</time>
      </trkpt>
      <trkpt lat="45.18783" lon="6.1051">
        <ele>2060.6000976562</ele>
        <time>2012-01-08T11:09:01.000Z</time>
      </trkpt>
      <trkpt lat="45.18778" lon="6.10523">
        <ele>2058</ele>
        <time>2012-01-08T11:09:04.000Z</time>
      </trkpt>
      <trkpt lat="45.18772" lon="6.10517">
        <ele>2056.8000488281</ele>
        <time>2012-01-08T11:09:08.000Z</time>
      </trkpt>
      <trkpt lat="45.18763" lon="6.10499">
        <ele>2050.6000976562</ele>
        <time>2012-01-08T11:09:13.000Z</time>
      </trkpt>
      <trkpt lat="45.18747" lon="6.10473">
        <ele>2042.4000244141</ele>
        <time>2012-01-08T11:09:17.000Z</time>
      </trkpt>
      <trkpt lat="45.18744" lon="6.10456">
        <ele>2040.4000244141</ele>
        <time>2012-01-08T11:09:19.000Z</time>
      </trkpt>
      <trkpt lat="45.18738" lon="6.10418">
        <ele>2036.4000244141</ele>
        <time>2012-01-08T11:09:25.000Z</time>
      </trkpt>
      <trkpt lat="45.18738" lon="6.10412">
        <ele>2036</ele>
        <time>2012-01-08T11:09:26.000Z</time>
      </trkpt>
      <trkpt lat="45.18738" lon="6.104">
        <ele>2035.4000244141</ele>
        <time>2012-01-08T11:09:28.000Z</time>
      </trkpt>
      <trkpt lat="45.18726" lon="6.10382">
        <ele>2031.8000488281</ele>
        <time>2012-01-08T11:09:32.000Z</time>
      </trkpt>
      <trkpt lat="45.1871" lon="6.10356">
        <ele>2026.1999511719</ele>
        <time>2012-01-08T11:09:36.000Z</time>
      </trkpt>
      <trkpt lat="45.18699" lon="6.10327">
        <ele>2020.5999755859</ele>
        <time>2012-01-08T11:09:40.000Z</time>
      </trkpt>
      <trkpt lat="45.18698" lon="6.10315">
        <ele>2018.4000244141</ele>
        <time>2012-01-08T11:09:43.000Z</time>
      </trkpt>
      <trkpt lat="45.18698" lon="6.10317">
        <ele>2019.4000244141</ele>
        <time>2012-01-08T11:09:50.000Z</time>
      </trkpt>
      <trkpt lat="45.18695" lon="6.10313">
        <ele>2019.4000244141</ele>
        <time>2012-01-08T11:11:41.000Z</time>
      </trkpt>
      <trkpt lat="45.18688" lon="6.10305">
        <ele>2018</ele>
        <time>2012-01-08T11:11:45.000Z</time>
      </trkpt>
      <trkpt lat="45.18679" lon="6.10291">
        <ele>2015.8000488281</ele>
        <time>2012-01-08T11:11:48.000Z</time>
      </trkpt>
      <trkpt lat="45.1867" lon="6.10265">
        <ele>2012.5999755859</ele>
        <time>2012-01-08T11:11:52.000Z</time>
      </trkpt>
      <trkpt lat="45.18667" lon="6.10257">
        <ele>2012.5999755859</ele>
        <time>2012-01-08T11:11:55.000Z</time>
      </trkpt>
      <trkpt lat="45.18666" lon="6.10251">
        <ele>2011.5999755859</ele>
        <time>2012-01-08T11:11:59.000Z</time>
      </trkpt>
      <trkpt lat="45.18668" lon="6.1025">
        <ele>2011.5999755859</ele>
        <time>2012-01-08T11:12:36.000Z</time>
      </trkpt>
      <trkpt lat="45.18676" lon="6.10248">
        <ele>2010.1999511719</ele>
        <time>2012-01-08T11:12:40.000Z</time>
      </trkpt>
      <trkpt lat="45.18694" lon="6.10244">
        <ele>2006.4000244141</ele>
        <time>2012-01-08T11:12:45.000Z</time>
      </trkpt>
      <trkpt lat="45.18695" lon="6.10234">
        <ele>2005.5999755859</ele>
        <time>2012-01-08T11:12:48.000Z</time>
      </trkpt>
      <trkpt lat="45.18699" lon="6.10204">
        <ele>2001.4000244141</ele>
        <time>2012-01-08T11:12:53.000Z</time>
      </trkpt>
      <trkpt lat="45.18699" lon="6.10192">
        <ele>1998.8000488281</ele>
        <time>2012-01-08T11:12:55.000Z</time>
      </trkpt>
      <trkpt lat="45.18694" lon="6.10152">
        <ele>1989.4000244141</ele>
        <time>2012-01-08T11:13:00.000Z</time>
      </trkpt>
      <trkpt lat="45.18688" lon="6.10137">
        <ele>1987.8000488281</ele>
        <time>2012-01-08T11:13:02.000Z</time>
      </trkpt>
      <trkpt lat="45.18677" lon="6.10095">
        <ele>1983.1999511719</ele>
        <time>2012-01-08T11:13:06.000Z</time>
      </trkpt>
      <trkpt lat="45.18671" lon="6.10028">
        <ele>1973.4000244141</ele>
        <time>2012-01-08T11:13:11.000Z</time>
      </trkpt>
      <trkpt lat="45.18668" lon="6.09999">
        <ele>1971.8000488281</ele>
        <time>2012-01-08T11:13:14.000Z</time>
      </trkpt>
      <trkpt lat="45.18666" lon="6.09988">
        <ele>1971.4000244141</ele>
        <time>2012-01-08T11:13:17.000Z</time>
      </trkpt>
      <trkpt lat="45.18665" lon="6.09986">
        <ele>1972</ele>
        <time>2012-01-08T11:13:23.000Z</time>
      </trkpt>
      <trkpt lat="45.18665" lon="6.09984">
        <ele>1972</ele>
        <time>2012-01-08T11:13:46.000Z</time>
      </trkpt>
      <trkpt lat="45.18664" lon="6.09984">
        <ele>1972</ele>
        <time>2012-01-08T11:13:47.000Z</time>
      </trkpt>
      <trkpt lat="45.18652" lon="6.09977">
        <ele>1970.8000488281</ele>
        <time>2012-01-08T11:13:55.000Z</time>
      </trkpt>
      <trkpt lat="45.18636" lon="6.09961">
        <ele>1968.8000488281</ele>
        <time>2012-01-08T11:14:01.000Z</time>
      </trkpt>
      <trkpt lat="45.1863" lon="6.09956">
        <ele>1968.5999755859</ele>
        <time>2012-01-08T11:14:03.000Z</time>
      </trkpt>
      <trkpt lat="45.18616" lon="6.09943">
        <ele>1967.5999755859</ele>
        <time>2012-01-08T11:14:08.000Z</time>
      </trkpt>
      <trkpt lat="45.18608" lon="6.09938">
        <ele>1966.8000488281</ele>
        <time>2012-01-08T11:14:12.000Z</time>
      </trkpt>
      <trkpt lat="45.18596" lon="6.09928">
        <ele>1964</ele>
        <time>2012-01-08T11:14:17.000Z</time>
      </trkpt>
      <trkpt lat="45.18592" lon="6.09922">
        <ele>1962.5999755859</ele>
        <time>2012-01-08T11:14:20.000Z</time>
      </trkpt>
      <trkpt lat="45.18579" lon="6.09905">
        <ele>1959.5999755859</ele>
        <time>2012-01-08T11:14:25.000Z</time>
      </trkpt>
      <trkpt lat="45.18553" lon="6.09892">
        <ele>1954</ele>
        <time>2012-01-08T11:14:29.000Z</time>
      </trkpt>
      <trkpt lat="45.18539" lon="6.09864">
        <ele>1949.4000244141</ele>
        <time>2012-01-08T11:14:33.000Z</time>
      </trkpt>
      <trkpt lat="45.18522" lon="6.0984">
        <ele>1945.5999755859</ele>
        <time>2012-01-08T11:14:37.000Z</time>
      </trkpt>
      <trkpt lat="45.18516" lon="6.09828">
        <ele>1942.8000488281</ele>
        <time>2012-01-08T11:14:39.000Z</time>
      </trkpt>
      <trkpt lat="45.18503" lon="6.09802">
        <ele>1937.4000244141</ele>
        <time>2012-01-08T11:14:43.000Z</time>
      </trkpt>
      <trkpt lat="45.18486" lon="6.09774">
        <ele>1932</ele>
        <time>2012-01-08T11:14:48.000Z</time>
      </trkpt>
      <trkpt lat="45.18484" lon="6.09772">
        <ele>1932.5999755859</ele>
        <time>2012-01-08T11:14:51.000Z</time>
      </trkpt>
      <trkpt lat="45.18479" lon="6.09768">
        <ele>1932.5999755859</ele>
        <time>2012-01-08T11:15:01.000Z</time>
      </trkpt>
      <trkpt lat="45.18469" lon="6.09761">
        <ele>1929.5999755859</ele>
        <time>2012-01-08T11:15:05.000Z</time>
      </trkpt>
      <trkpt lat="45.18456" lon="6.09739">
        <ele>1926.8000488281</ele>
        <time>2012-01-08T11:15:09.000Z</time>
      </trkpt>
      <trkpt lat="45.18445" lon="6.09737">
        <ele>1924</ele>
        <time>2012-01-08T11:15:12.000Z</time>
      </trkpt>
      <trkpt lat="45.18437" lon="6.09728">
        <ele>1920.8000488281</ele>
        <time>2012-01-08T11:15:16.000Z</time>
      </trkpt>
      <trkpt lat="45.18436" lon="6.09727">
        <ele>1920.5999755859</ele>
        <time>2012-01-08T11:15:17.000Z</time>
      </trkpt>
      <trkpt lat="45.18434" lon="6.09735">
        <ele>1919.5999755859</ele>
        <time>2012-01-08T11:15:37.000Z</time>
      </trkpt>
      <trkpt lat="45.18434" lon="6.09736">
        <ele>1919.1999511719</ele>
        <time>2012-01-08T11:15:42.000Z</time>
      </trkpt>
      <trkpt lat="45.18428" lon="6.09747">
        <ele>1917.8000488281</ele>
        <time>2012-01-08T11:15:47.000Z</time>
      </trkpt>
      <trkpt lat="45.1842" lon="6.09758">
        <ele>1915.5999755859</ele>
        <time>2012-01-08T11:15:51.000Z</time>
      </trkpt>
      <trkpt lat="45.18417" lon="6.09758">
        <ele>1915.1999511719</ele>
        <time>2012-01-08T11:15:53.000Z</time>
      </trkpt>
      <trkpt lat="45.18407" lon="6.09746">
        <ele>1910.5999755859</ele>
        <time>2012-01-08T11:15:58.000Z</time>
      </trkpt>
      <trkpt lat="45.18395" lon="6.09723">
        <ele>1903.5999755859</ele>
        <time>2012-01-08T11:16:02.000Z</time>
      </trkpt>
      <trkpt lat="45.18384" lon="6.09712">
        <ele>1898</ele>
        <time>2012-01-08T11:16:06.000Z</time>
      </trkpt>
      <trkpt lat="45.1838" lon="6.09701">
        <ele>1890.5999755859</ele>
        <time>2012-01-08T11:16:09.000Z</time>
      </trkpt>
      <trkpt lat="45.18374" lon="6.09693">
        <ele>1887.5999755859</ele>
        <time>2012-01-08T11:16:11.000Z</time>
      </trkpt>
      <trkpt lat="45.18374" lon="6.0969">
        <ele>1881.8000488281</ele>
        <time>2012-01-08T11:16:15.000Z</time>
      </trkpt>
      <trkpt lat="45.18373" lon="6.09691">
        <ele>1882.8000488281</ele>
        <time>2012-01-08T11:16:16.000Z</time>
      </trkpt>
      <trkpt lat="45.18376" lon="6.09692">
        <ele>1884.5999755859</ele>
        <time>2012-01-08T11:16:19.000Z</time>
      </trkpt>
      <trkpt lat="45.18374" lon="6.09693">
        <ele>1878.8000488281</ele>
        <time>2012-01-08T11:16:28.000Z</time>
      </trkpt>
      <trkpt lat="45.18374" lon="6.09694">
        <ele>1877.1999511719</ele>
        <time>2012-01-08T11:16:31.000Z</time>
      </trkpt>
      <trkpt lat="45.18372" lon="6.09695">
        <ele>1884</ele>
        <time>2012-01-08T11:16:36.000Z</time>
      </trkpt>
      <trkpt lat="45.18371" lon="6.09698">
        <ele>1883.5999755859</ele>
        <time>2012-01-08T11:17:00.000Z</time>
      </trkpt>
      <trkpt lat="45.18364" lon="6.09697">
        <ele>1882.5999755859</ele>
        <time>2012-01-08T11:17:03.000Z</time>
      </trkpt>
      <trkpt lat="45.18343" lon="6.09707">
        <ele>1879</ele>
        <time>2012-01-08T11:17:09.000Z</time>
      </trkpt>
      <trkpt lat="45.18331" lon="6.09719">
        <ele>1877.4000244141</ele>
        <time>2012-01-08T11:17:14.000Z</time>
      </trkpt>
      <trkpt lat="45.18325" lon="6.09722">
        <ele>1876.8000488281</ele>
        <time>2012-01-08T11:17:18.000Z</time>
      </trkpt>
      <trkpt lat="45.18315" lon="6.09729">
        <ele>1875.4000244141</ele>
        <time>2012-01-08T11:17:22.000Z</time>
      </trkpt>
      <trkpt lat="45.18308" lon="6.09721">
        <ele>1871.8000488281</ele>
        <time>2012-01-08T11:17:26.000Z</time>
      </trkpt>
      <trkpt lat="45.18306" lon="6.09712">
        <ele>1870.4000244141</ele>
        <time>2012-01-08T11:17:27.000Z</time>
      </trkpt>
      <trkpt lat="45.18289" lon="6.09691">
        <ele>1862.4000244141</ele>
        <time>2012-01-08T11:17:33.000Z</time>
      </trkpt>
      <trkpt lat="45.18289" lon="6.09685">
        <ele>1859.1999511719</ele>
        <time>2012-01-08T11:17:35.000Z</time>
      </trkpt>
      <trkpt lat="45.1828" lon="6.09676">
        <ele>1853.8000488281</ele>
        <time>2012-01-08T11:17:38.000Z</time>
      </trkpt>
      <trkpt lat="45.18273" lon="6.09672">
        <ele>1853.4000244141</ele>
        <time>2012-01-08T11:17:39.000Z</time>
      </trkpt>
      <trkpt lat="45.18259" lon="6.09658">
        <ele>1848</ele>
        <time>2012-01-08T11:17:42.000Z</time>
      </trkpt>
      <trkpt lat="45.18253" lon="6.09649">
        <ele>1841.4000244141</ele>
        <time>2012-01-08T11:17:45.000Z</time>
      </trkpt>
      <trkpt lat="45.1824" lon="6.09633">
        <ele>1832</ele>
        <time>2012-01-08T11:17:50.000Z</time>
      </trkpt>
      <trkpt lat="45.18238" lon="6.09636">
        <ele>1833</ele>
        <time>2012-01-08T11:17:52.000Z</time>
      </trkpt>
      <trkpt lat="45.18237" lon="6.09643">
        <ele>1832.1999511719</ele>
        <time>2012-01-08T11:17:57.000Z</time>
      </trkpt>
      <trkpt lat="45.18242" lon="6.09638">
        <ele>1831.4000244141</ele>
        <time>2012-01-08T11:18:02.000Z</time>
      </trkpt>
      <trkpt lat="45.18245" lon="6.09628">
        <ele>1831.8000488281</ele>
        <time>2012-01-08T11:18:13.000Z</time>
      </trkpt>
      <trkpt lat="45.1824" lon="6.09635">
        <ele>1829</ele>
        <time>2012-01-08T11:22:48.000Z</time>
      </trkpt>
      <trkpt lat="45.18231" lon="6.09639">
        <ele>1827.5999755859</ele>
        <time>2012-01-08T11:22:55.000Z</time>
      </trkpt>
      <trkpt lat="45.18221" lon="6.09652">
        <ele>1825.8000488281</ele>
        <time>2012-01-08T11:23:00.000Z</time>
      </trkpt>
      <trkpt lat="45.18212" lon="6.09675">
        <ele>1821.5999755859</ele>
        <time>2012-01-08T11:23:04.000Z</time>
      </trkpt>
      <trkpt lat="45.18198" lon="6.09692">
        <ele>1818.5999755859</ele>
        <time>2012-01-08T11:23:08.000Z</time>
      </trkpt>
      <trkpt lat="45.18173" lon="6.09682">
        <ele>1814.8000488281</ele>
        <time>2012-01-08T11:23:14.000Z</time>
      </trkpt>
      <trkpt lat="45.18152" lon="6.09663">
        <ele>1808.4000244141</ele>
        <time>2012-01-08T11:23:18.000Z</time>
      </trkpt>
      <trkpt lat="45.18124" lon="6.09636">
        <ele>1802.4000244141</ele>
        <time>2012-01-08T11:23:23.000Z</time>
      </trkpt>
      <trkpt lat="45.18115" lon="6.09603">
        <ele>1796</ele>
        <time>2012-01-08T11:23:27.000Z</time>
      </trkpt>
      <trkpt lat="45.18113" lon="6.09574">
        <ele>1793.5999755859</ele>
        <time>2012-01-08T11:23:31.000Z</time>
      </trkpt>
      <trkpt lat="45.18101" lon="6.09548">
        <ele>1789.5999755859</ele>
        <time>2012-01-08T11:23:35.000Z</time>
      </trkpt>
      <trkpt lat="45.18087" lon="6.09534">
        <ele>1786.8000488281</ele>
        <time>2012-01-08T11:23:38.000Z</time>
      </trkpt>
      <trkpt lat="45.18079" lon="6.09522">
        <ele>1784.4000244141</ele>
        <time>2012-01-08T11:23:40.000Z</time>
      </trkpt>
      <trkpt lat="45.18064" lon="6.09487">
        <ele>1778</ele>
        <time>2012-01-08T11:23:45.000Z</time>
      </trkpt>
      <trkpt lat="45.1805" lon="6.09467">
        <ele>1774.5999755859</ele>
        <time>2012-01-08T11:23:48.000Z</time>
      </trkpt>
      <trkpt lat="45.18041" lon="6.09466">
        <ele>1771.8000488281</ele>
        <time>2012-01-08T11:23:51.000Z</time>
      </trkpt>
      <trkpt lat="45.18039" lon="6.09468">
        <ele>1772</ele>
        <time>2012-01-08T11:23:57.000Z</time>
      </trkpt>
      <trkpt lat="45.18034" lon="6.09464">
        <ele>1771.4000244141</ele>
        <time>2012-01-08T11:26:05.000Z</time>
      </trkpt>
      <trkpt lat="45.18012" lon="6.09439">
        <ele>1764.8000488281</ele>
        <time>2012-01-08T11:26:10.000Z</time>
      </trkpt>
      <trkpt lat="45.17993" lon="6.09436">
        <ele>1761.1999511719</ele>
        <time>2012-01-08T11:26:14.000Z</time>
      </trkpt>
      <trkpt lat="45.17975" lon="6.09426">
        <ele>1756.8000488281</ele>
        <time>2012-01-08T11:26:18.000Z</time>
      </trkpt>
      <trkpt lat="45.1796" lon="6.09417">
        <ele>1750.1999511719</ele>
        <time>2012-01-08T11:26:22.000Z</time>
      </trkpt>
      <trkpt lat="45.17947" lon="6.09406">
        <ele>1746.1999511719</ele>
        <time>2012-01-08T11:26:25.000Z</time>
      </trkpt>
      <trkpt lat="45.17933" lon="6.09388">
        <ele>1741.5999755859</ele>
        <time>2012-01-08T11:26:29.000Z</time>
      </trkpt>
      <trkpt lat="45.1793" lon="6.09384">
        <ele>1740.1999511719</ele>
        <time>2012-01-08T11:26:30.000Z</time>
      </trkpt>
      <trkpt lat="45.17918" lon="6.09372">
        <ele>1736.5999755859</ele>
        <time>2012-01-08T11:26:33.000Z</time>
      </trkpt>
      <trkpt lat="45.17912" lon="6.09359">
        <ele>1733</ele>
        <time>2012-01-08T11:26:37.000Z</time>
      </trkpt>
      <trkpt lat="45.1791" lon="6.0936">
        <ele>1734</ele>
        <time>2012-01-08T11:26:46.000Z</time>
      </trkpt>
      <trkpt lat="45.179" lon="6.09357">
        <ele>1729.8000488281</ele>
        <time>2012-01-08T11:26:50.000Z</time>
      </trkpt>
      <trkpt lat="45.17891" lon="6.0935">
        <ele>1727</ele>
        <time>2012-01-08T11:26:52.000Z</time>
      </trkpt>
      <trkpt lat="45.17873" lon="6.09338">
        <ele>1721.1999511719</ele>
        <time>2012-01-08T11:26:56.000Z</time>
      </trkpt>
      <trkpt lat="45.17872" lon="6.09332">
        <ele>1719.8000488281</ele>
        <time>2012-01-08T11:26:57.000Z</time>
      </trkpt>
      <trkpt lat="45.17865" lon="6.09317">
        <ele>1715.1999511719</ele>
        <time>2012-01-08T11:27:00.000Z</time>
      </trkpt>
      <trkpt lat="45.1784" lon="6.09317">
        <ele>1710.4000244141</ele>
        <time>2012-01-08T11:27:03.000Z</time>
      </trkpt>
      <trkpt lat="45.17831" lon="6.09298">
        <ele>1704.4000244141</ele>
        <time>2012-01-08T11:27:07.000Z</time>
      </trkpt>
      <trkpt lat="45.17832" lon="6.09292">
        <ele>1704</ele>
        <time>2012-01-08T11:27:08.000Z</time>
      </trkpt>
      <trkpt lat="45.17833" lon="6.09284">
        <ele>1704</ele>
        <time>2012-01-08T11:27:13.000Z</time>
      </trkpt>
      <trkpt lat="45.17833" lon="6.09283">
        <ele>1703.8000488281</ele>
        <time>2012-01-08T11:27:25.000Z</time>
      </trkpt>
      <trkpt lat="45.17827" lon="6.09294">
        <ele>1701.8000488281</ele>
        <time>2012-01-08T11:27:30.000Z</time>
      </trkpt>
      <trkpt lat="45.17813" lon="6.093">
        <ele>1697.5999755859</ele>
        <time>2012-01-08T11:27:35.000Z</time>
      </trkpt>
      <trkpt lat="45.17813" lon="6.09302">
        <ele>1697.1999511719</ele>
        <time>2012-01-08T11:27:40.000Z</time>
      </trkpt>
      <trkpt lat="45.17808" lon="6.093">
        <ele>1697.5999755859</ele>
        <time>2012-01-08T11:28:26.000Z</time>
      </trkpt>
      <trkpt lat="45.17798" lon="6.09302">
        <ele>1696.4000244141</ele>
        <time>2012-01-08T11:28:30.000Z</time>
      </trkpt>
      <trkpt lat="45.17788" lon="6.09305">
        <ele>1693.8000488281</ele>
        <time>2012-01-08T11:28:33.000Z</time>
      </trkpt>
      <trkpt lat="45.17776" lon="6.09309">
        <ele>1690.5999755859</ele>
        <time>2012-01-08T11:28:35.000Z</time>
      </trkpt>
      <trkpt lat="45.17756" lon="6.09303">
        <ele>1683.5999755859</ele>
        <time>2012-01-08T11:28:39.000Z</time>
      </trkpt>
      <trkpt lat="45.17738" lon="6.09304">
        <ele>1678</ele>
        <time>2012-01-08T11:28:43.000Z</time>
      </trkpt>
      <trkpt lat="45.17715" lon="6.09307">
        <ele>1672.4000244141</ele>
        <time>2012-01-08T11:28:47.000Z</time>
      </trkpt>
      <trkpt lat="45.17698" lon="6.0931">
        <ele>1666.5999755859</ele>
        <time>2012-01-08T11:28:51.000Z</time>
      </trkpt>
      <trkpt lat="45.17677" lon="6.09313">
        <ele>1660.4000244141</ele>
        <time>2012-01-08T11:28:56.000Z</time>
      </trkpt>
      <trkpt lat="45.17674" lon="6.09321">
        <ele>1658.8000488281</ele>
        <time>2012-01-08T11:28:59.000Z</time>
      </trkpt>
      <trkpt lat="45.17674" lon="6.09318">
        <ele>1658.5999755859</ele>
        <time>2012-01-08T11:29:04.000Z</time>
      </trkpt>
      <trkpt lat="45.17676" lon="6.09322">
        <ele>1658.5999755859</ele>
        <time>2012-01-08T11:30:20.000Z</time>
      </trkpt>
      <trkpt lat="45.17674" lon="6.09321">
        <ele>1660</ele>
        <time>2012-01-08T11:31:39.000Z</time>
      </trkpt>
      <trkpt lat="45.17665" lon="6.09316">
        <ele>1659</ele>
        <time>2012-01-08T11:31:43.000Z</time>
      </trkpt>
      <trkpt lat="45.17655" lon="6.09303">
        <ele>1656.5999755859</ele>
        <time>2012-01-08T11:31:47.000Z</time>
      </trkpt>
      <trkpt lat="45.17652" lon="6.09304">
        <ele>1656</ele>
        <time>2012-01-08T11:31:48.000Z</time>
      </trkpt>
      <trkpt lat="45.17644" lon="6.09302">
        <ele>1653.4000244141</ele>
        <time>2012-01-08T11:31:50.000Z</time>
      </trkpt>
      <trkpt lat="45.17635" lon="6.09303">
        <ele>1651.5999755859</ele>
        <time>2012-01-08T11:31:52.000Z</time>
      </trkpt>
      <trkpt lat="45.17609" lon="6.09292">
        <ele>1647</ele>
        <time>2012-01-08T11:31:57.000Z</time>
      </trkpt>
      <trkpt lat="45.17594" lon="6.0929">
        <ele>1645.1999511719</ele>
        <time>2012-01-08T11:32:01.000Z</time>
      </trkpt>
      <trkpt lat="45.17586" lon="6.09283">
        <ele>1643.4000244141</ele>
        <time>2012-01-08T11:32:06.000Z</time>
      </trkpt>
      <trkpt lat="45.17581" lon="6.09279">
        <ele>1642.8000488281</ele>
        <time>2012-01-08T11:32:08.000Z</time>
      </trkpt>
      <trkpt lat="45.17574" lon="6.09273">
        <ele>1641.4000244141</ele>
        <time>2012-01-08T11:32:10.000Z</time>
      </trkpt>
      <trkpt lat="45.17557" lon="6.09271">
        <ele>1638.8000488281</ele>
        <time>2012-01-08T11:32:14.000Z</time>
      </trkpt>
      <trkpt lat="45.17544" lon="6.09282">
        <ele>1634.4000244141</ele>
        <time>2012-01-08T11:32:17.000Z</time>
      </trkpt>
      <trkpt lat="45.17543" lon="6.09284">
        <ele>1633</ele>
        <time>2012-01-08T11:32:18.000Z</time>
      </trkpt>
      <trkpt lat="45.17533" lon="6.09301">
        <ele>1626.8000488281</ele>
        <time>2012-01-08T11:32:23.000Z</time>
      </trkpt>
      <trkpt lat="45.17525" lon="6.09312">
        <ele>1625.5999755859</ele>
        <time>2012-01-08T11:32:26.000Z</time>
      </trkpt>
      <trkpt lat="45.17519" lon="6.09321">
        <ele>1623</ele>
        <time>2012-01-08T11:32:29.000Z</time>
      </trkpt>
      <trkpt lat="45.17516" lon="6.09321">
        <ele>1621.1999511719</ele>
        <time>2012-01-08T11:32:32.000Z</time>
      </trkpt>
      <trkpt lat="45.17517" lon="6.09317">
        <ele>1621.5999755859</ele>
        <time>2012-01-08T11:32:36.000Z</time>
      </trkpt>
      <trkpt lat="45.17507" lon="6.09316">
        <ele>1619.8000488281</ele>
        <time>2012-01-08T11:33:03.000Z</time>
      </trkpt>
      <trkpt lat="45.17505" lon="6.09317">
        <ele>1619</ele>
        <time>2012-01-08T11:33:04.000Z</time>
      </trkpt>
      <trkpt lat="45.17496" lon="6.0933">
        <ele>1615.5999755859</ele>
        <time>2012-01-08T11:33:09.000Z</time>
      </trkpt>
      <trkpt lat="45.17494" lon="6.09325">
        <ele>1614.8000488281</ele>
        <time>2012-01-08T11:33:11.000Z</time>
      </trkpt>
      <trkpt lat="45.17488" lon="6.09322">
        <ele>1613.4000244141</ele>
        <time>2012-01-08T11:33:20.000Z</time>
      </trkpt>
      <trkpt lat="45.17485" lon="6.09325">
        <ele>1612.8000488281</ele>
        <time>2012-01-08T11:33:21.000Z</time>
      </trkpt>
      <trkpt lat="45.17478" lon="6.09344">
        <ele>1609.4000244141</ele>
        <time>2012-01-08T11:33:25.000Z</time>
      </trkpt>
      <trkpt lat="45.17475" lon="6.0935">
        <ele>1608.5999755859</ele>
        <time>2012-01-08T11:33:27.000Z</time>
      </trkpt>
      <trkpt lat="45.17461" lon="6.09356">
        <ele>1605</ele>
        <time>2012-01-08T11:33:32.000Z</time>
      </trkpt>
      <trkpt lat="45.17461" lon="6.09354">
        <ele>1605.1999511719</ele>
        <time>2012-01-08T11:34:06.000Z</time>
      </trkpt>
      <trkpt lat="45.17457" lon="6.09356">
        <ele>1604.1999511719</ele>
        <time>2012-01-08T11:34:36.000Z</time>
      </trkpt>
      <trkpt lat="45.17454" lon="6.09353">
        <ele>1604.4000244141</ele>
        <time>2012-01-08T11:37:04.000Z</time>
      </trkpt>
      <trkpt lat="45.1745" lon="6.09343">
        <ele>1603.4000244141</ele>
        <time>2012-01-08T11:37:08.000Z</time>
      </trkpt>
      <trkpt lat="45.17439" lon="6.09341">
        <ele>1601.5999755859</ele>
        <time>2012-01-08T11:37:11.000Z</time>
      </trkpt>
      <trkpt lat="45.17421" lon="6.09335">
        <ele>1595.4000244141</ele>
        <time>2012-01-08T11:37:16.000Z</time>
      </trkpt>
      <trkpt lat="45.17417" lon="6.09336">
        <ele>1594</ele>
        <time>2012-01-08T11:37:17.000Z</time>
      </trkpt>
      <trkpt lat="45.17411" lon="6.09338">
        <ele>1591</ele>
        <time>2012-01-08T11:37:19.000Z</time>
      </trkpt>
      <trkpt lat="45.17394" lon="6.09355">
        <ele>1586</ele>
        <time>2012-01-08T11:37:23.000Z</time>
      </trkpt>
      <trkpt lat="45.1739" lon="6.09362">
        <ele>1584.5999755859</ele>
        <time>2012-01-08T11:37:24.000Z</time>
      </trkpt>
      <trkpt lat="45.17379" lon="6.09371">
        <ele>1580.8000488281</ele>
        <time>2012-01-08T11:37:30.000Z</time>
      </trkpt>
      <trkpt lat="45.17378" lon="6.0937">
        <ele>1581.1999511719</ele>
        <time>2012-01-08T11:38:44.000Z</time>
      </trkpt>
      <trkpt lat="45.17377" lon="6.09375">
        <ele>1579.8000488281</ele>
        <time>2012-01-08T11:40:27.000Z</time>
      </trkpt>
      <trkpt lat="45.17384" lon="6.0937">
        <ele>1581</ele>
        <time>2012-01-08T11:40:33.000Z</time>
      </trkpt>
      <trkpt lat="45.17389" lon="6.09377">
        <ele>1581.4000244141</ele>
        <time>2012-01-08T11:42:08.000Z</time>
      </trkpt>
      <trkpt lat="45.17397" lon="6.09367">
        <ele>1581.1999511719</ele>
        <time>2012-01-08T11:42:29.000Z</time>
      </trkpt>
      <trkpt lat="45.17392" lon="6.09375">
        <ele>1579.4000244141</ele>
        <time>2012-01-08T11:42:39.000Z</time>
      </trkpt>
      <trkpt lat="45.17387" lon="6.09374">
        <ele>1581.1999511719</ele>
        <time>2012-01-08T11:42:43.000Z</time>
      </trkpt>
      <trkpt lat="45.17383" lon="6.09371">
        <ele>1579.8000488281</ele>
        <time>2012-01-08T11:45:09.000Z</time>
      </trkpt>
      <trkpt lat="45.1738" lon="6.0938">
        <ele>1580.4000244141</ele>
        <time>2012-01-08T11:52:31.000Z</time>
      </trkpt>
      <trkpt lat="45.1738" lon="6.0937">
        <ele>1580.5999755859</ele>
        <time>2012-01-08T11:52:54.000Z</time>
      </trkpt>
      <trkpt lat="45.17379" lon="6.09383">
        <ele>1580.4000244141</ele>
        <time>2012-01-08T11:53:10.000Z</time>
      </trkpt>
      <trkpt lat="45.17381" lon="6.09369">
        <ele>1580.8000488281</ele>
        <time>2012-01-08T11:54:01.000Z</time>
      </trkpt>
      <trkpt lat="45.17379" lon="6.09374">
        <ele>1581.4000244141</ele>
        <time>2012-01-08T11:54:42.000Z</time>
      </trkpt>
      <trkpt lat="45.1738" lon="6.0938">
        <ele>1582.1999511719</ele>
        <time>2012-01-08T11:54:56.000Z</time>
      </trkpt>
      <trkpt lat="45.1738" lon="6.09377">
        <ele>1581.8000488281</ele>
        <time>2012-01-08T11:55:02.000Z</time>
      </trkpt>
      <trkpt lat="45.17379" lon="6.09373">
        <ele>1582.8000488281</ele>
        <time>2012-01-08T11:55:20.000Z</time>
      </trkpt>
      <trkpt lat="45.17381" lon="6.09374">
        <ele>1579.1999511719</ele>
        <time>2012-01-08T12:01:16.000Z</time>
      </trkpt>
      <trkpt lat="45.17378" lon="6.09378">
        <ele>1580.5999755859</ele>
        <time>2012-01-08T12:01:24.000Z</time>
      </trkpt>
      <trkpt lat="45.1738" lon="6.09375">
        <ele>1583.1999511719</ele>
        <time>2012-01-08T12:02:56.000Z</time>
      </trkpt>
      <trkpt lat="45.17382" lon="6.09372">
        <ele>1579.4000244141</ele>
        <time>2012-01-08T12:02:58.000Z</time>
      </trkpt>
      <trkpt lat="45.17382" lon="6.0937">
        <ele>1585.1999511719</ele>
        <time>2012-01-08T12:03:03.000Z</time>
      </trkpt>
      <trkpt lat="45.17382" lon="6.09375">
        <ele>1586.4000244141</ele>
        <time>2012-01-08T12:05:15.000Z</time>
      </trkpt>
      <trkpt lat="45.17383" lon="6.09373">
        <ele>1583.4000244141</ele>
        <time>2012-01-08T12:05:23.000Z</time>
      </trkpt>
      <trkpt lat="45.17374" lon="6.09363">
        <ele>1579.8000488281</ele>
        <time>2012-01-08T12:05:27.000Z</time>
      </trkpt>
      <trkpt lat="45.1737" lon="6.09356">
        <ele>1577.5999755859</ele>
        <time>2012-01-08T12:05:29.000Z</time>
      </trkpt>
      <trkpt lat="45.17358" lon="6.09346">
        <ele>1575.8000488281</ele>
        <time>2012-01-08T12:05:34.000Z</time>
      </trkpt>
      <trkpt lat="45.17349" lon="6.09344">
        <ele>1572.4000244141</ele>
        <time>2012-01-08T12:05:39.000Z</time>
      </trkpt>
      <trkpt lat="45.17346" lon="6.09357">
        <ele>1571</ele>
        <time>2012-01-08T12:05:44.000Z</time>
      </trkpt>
      <trkpt lat="45.17334" lon="6.09362">
        <ele>1567.8000488281</ele>
        <time>2012-01-08T12:05:49.000Z</time>
      </trkpt>
      <trkpt lat="45.1733" lon="6.09362">
        <ele>1566.8000488281</ele>
        <time>2012-01-08T12:05:50.000Z</time>
      </trkpt>
      <trkpt lat="45.17321" lon="6.09362">
        <ele>1561.1999511719</ele>
        <time>2012-01-08T12:05:52.000Z</time>
      </trkpt>
      <trkpt lat="45.17307" lon="6.09348">
        <ele>1560.5999755859</ele>
        <time>2012-01-08T12:05:57.000Z</time>
      </trkpt>
      <trkpt lat="45.17305" lon="6.0934">
        <ele>1559</ele>
        <time>2012-01-08T12:06:02.000Z</time>
      </trkpt>
      <trkpt lat="45.17305" lon="6.09336">
        <ele>1559.4000244141</ele>
        <time>2012-01-08T12:06:09.000Z</time>
      </trkpt>
      <trkpt lat="45.17299" lon="6.09338">
        <ele>1558.5999755859</ele>
        <time>2012-01-08T12:06:13.000Z</time>
      </trkpt>
      <trkpt lat="45.17283" lon="6.09343">
        <ele>1554</ele>
        <time>2012-01-08T12:06:18.000Z</time>
      </trkpt>
      <trkpt lat="45.17278" lon="6.09348">
        <ele>1551.8000488281</ele>
        <time>2012-01-08T12:06:20.000Z</time>
      </trkpt>
      <trkpt lat="45.17269" lon="6.09357">
        <ele>1545</ele>
        <time>2012-01-08T12:06:24.000Z</time>
      </trkpt>
      <trkpt lat="45.17266" lon="6.09363">
        <ele>1542.5999755859</ele>
        <time>2012-01-08T12:06:27.000Z</time>
      </trkpt>
      <trkpt lat="45.17265" lon="6.09365">
        <ele>1541.5999755859</ele>
        <time>2012-01-08T12:06:29.000Z</time>
      </trkpt>
      <trkpt lat="45.17261" lon="6.0937">
        <ele>1541.1999511719</ele>
        <time>2012-01-08T12:06:33.000Z</time>
      </trkpt>
      <trkpt lat="45.17241" lon="6.09368">
        <ele>1534.8000488281</ele>
        <time>2012-01-08T12:06:39.000Z</time>
      </trkpt>
      <trkpt lat="45.17237" lon="6.09366">
        <ele>1534.1999511719</ele>
        <time>2012-01-08T12:06:40.000Z</time>
      </trkpt>
      <trkpt lat="45.1722" lon="6.09355">
        <ele>1531.5999755859</ele>
        <time>2012-01-08T12:06:45.000Z</time>
      </trkpt>
      <trkpt lat="45.17214" lon="6.09356">
        <ele>1530.4000244141</ele>
        <time>2012-01-08T12:07:53.000Z</time>
      </trkpt>
      <trkpt lat="45.17204" lon="6.09356">
        <ele>1527.1999511719</ele>
        <time>2012-01-08T12:07:58.000Z</time>
      </trkpt>
      <trkpt lat="45.17202" lon="6.09358">
        <ele>1524.8000488281</ele>
        <time>2012-01-08T12:07:59.000Z</time>
      </trkpt>
      <trkpt lat="45.172" lon="6.09363">
        <ele>1521</ele>
        <time>2012-01-08T12:08:01.000Z</time>
      </trkpt>
      <trkpt lat="45.17198" lon="6.09363">
        <ele>1524</ele>
        <time>2012-01-08T12:08:08.000Z</time>
      </trkpt>
      <trkpt lat="45.17197" lon="6.09362">
        <ele>1524.8000488281</ele>
        <time>2012-01-08T12:08:10.000Z</time>
      </trkpt>
      <trkpt lat="45.17195" lon="6.0936">
        <ele>1522</ele>
        <time>2012-01-08T12:08:12.000Z</time>
      </trkpt>
      <trkpt lat="45.17192" lon="6.09365">
        <ele>1518.5999755859</ele>
        <time>2012-01-08T12:08:16.000Z</time>
      </trkpt>
      <trkpt lat="45.17197" lon="6.09374">
        <ele>1516.5999755859</ele>
        <time>2012-01-08T12:08:18.000Z</time>
      </trkpt>
      <trkpt lat="45.17203" lon="6.0938">
        <ele>1513.4000244141</ele>
        <time>2012-01-08T12:08:22.000Z</time>
      </trkpt>
      <trkpt lat="45.17203" lon="6.09382">
        <ele>1513</ele>
        <time>2012-01-08T12:08:26.000Z</time>
      </trkpt>
      <trkpt lat="45.17205" lon="6.09394">
        <ele>1512.1999511719</ele>
        <time>2012-01-08T12:08:31.000Z</time>
      </trkpt>
      <trkpt lat="45.17207" lon="6.09403">
        <ele>1511.4000244141</ele>
        <time>2012-01-08T12:08:34.000Z</time>
      </trkpt>
      <trkpt lat="45.172" lon="6.09413">
        <ele>1507.8000488281</ele>
        <time>2012-01-08T12:08:38.000Z</time>
      </trkpt>
      <trkpt lat="45.17192" lon="6.09434">
        <ele>1504.4000244141</ele>
        <time>2012-01-08T12:08:42.000Z</time>
      </trkpt>
      <trkpt lat="45.17178" lon="6.0944">
        <ele>1502.5999755859</ele>
        <time>2012-01-08T12:08:45.000Z</time>
      </trkpt>
      <trkpt lat="45.17166" lon="6.0944">
        <ele>1500</ele>
        <time>2012-01-08T12:08:47.000Z</time>
      </trkpt>
      <trkpt lat="45.17151" lon="6.09429">
        <ele>1496.8000488281</ele>
        <time>2012-01-08T12:08:51.000Z</time>
      </trkpt>
      <trkpt lat="45.17137" lon="6.0942">
        <ele>1495.8000488281</ele>
        <time>2012-01-08T12:08:55.000Z</time>
      </trkpt>
      <trkpt lat="45.17125" lon="6.09425">
        <ele>1490</ele>
        <time>2012-01-08T12:08:59.000Z</time>
      </trkpt>
      <trkpt lat="45.17108" lon="6.09428">
        <ele>1483.5999755859</ele>
        <time>2012-01-08T12:09:03.000Z</time>
      </trkpt>
      <trkpt lat="45.17089" lon="6.09435">
        <ele>1472.5999755859</ele>
        <time>2012-01-08T12:09:08.000Z</time>
      </trkpt>
      <trkpt lat="45.17079" lon="6.09445">
        <ele>1469.4000244141</ele>
        <time>2012-01-08T12:09:11.000Z</time>
      </trkpt>
      <trkpt lat="45.17081" lon="6.09461">
        <ele>1464.4000244141</ele>
        <time>2012-01-08T12:09:14.000Z</time>
      </trkpt>
      <trkpt lat="45.17081" lon="6.09467">
        <ele>1463.8000488281</ele>
        <time>2012-01-08T12:09:16.000Z</time>
      </trkpt>
      <trkpt lat="45.17081" lon="6.09474">
        <ele>1462.5999755859</ele>
        <time>2012-01-08T12:09:20.000Z</time>
      </trkpt>
      <trkpt lat="45.1707" lon="6.09469">
        <ele>1459.5999755859</ele>
        <time>2012-01-08T12:09:24.000Z</time>
      </trkpt>
      <trkpt lat="45.1707" lon="6.0947">
        <ele>1458.8000488281</ele>
        <time>2012-01-08T12:09:28.000Z</time>
      </trkpt>
      <trkpt lat="45.1706" lon="6.09474">
        <ele>1458.1999511719</ele>
        <time>2012-01-08T12:09:34.000Z</time>
      </trkpt>
      <trkpt lat="45.17046" lon="6.0947">
        <ele>1456</ele>
        <time>2012-01-08T12:09:37.000Z</time>
      </trkpt>
      <trkpt lat="45.17026" lon="6.09465">
        <ele>1452.4000244141</ele>
        <time>2012-01-08T12:09:41.000Z</time>
      </trkpt>
      <trkpt lat="45.17" lon="6.09463">
        <ele>1447.1999511719</ele>
        <time>2012-01-08T12:09:46.000Z</time>
      </trkpt>
      <trkpt lat="45.16972" lon="6.09464">
        <ele>1441.4000244141</ele>
        <time>2012-01-08T12:09:51.000Z</time>
      </trkpt>
      <trkpt lat="45.1695" lon="6.09463">
        <ele>1436.5999755859</ele>
        <time>2012-01-08T12:09:55.000Z</time>
      </trkpt>
      <trkpt lat="45.16945" lon="6.09463">
        <ele>1435.1999511719</ele>
        <time>2012-01-08T12:09:56.000Z</time>
      </trkpt>
      <trkpt lat="45.16914" lon="6.09453">
        <ele>1430.4000244141</ele>
        <time>2012-01-08T12:10:02.000Z</time>
      </trkpt>
      <trkpt lat="45.16909" lon="6.09451">
        <ele>1429.5999755859</ele>
        <time>2012-01-08T12:10:03.000Z</time>
      </trkpt>
      <trkpt lat="45.16875" lon="6.09438">
        <ele>1425.5999755859</ele>
        <time>2012-01-08T12:10:09.000Z</time>
      </trkpt>
      <trkpt lat="45.16871" lon="6.09438">
        <ele>1424</ele>
        <time>2012-01-08T12:10:12.000Z</time>
      </trkpt>
      <trkpt lat="45.16873" lon="6.09438">
        <ele>1423.8000488281</ele>
        <time>2012-01-08T12:10:13.000Z</time>
      </trkpt>
      <trkpt lat="45.16875" lon="6.09443">
        <ele>1424</ele>
        <time>2012-01-08T12:10:19.000Z</time>
      </trkpt>
      <trkpt lat="45.16873" lon="6.09448">
        <ele>1424.1999511719</ele>
        <time>2012-01-08T12:11:28.000Z</time>
      </trkpt>
      <trkpt lat="45.16874" lon="6.09444">
        <ele>1424.4000244141</ele>
        <time>2012-01-08T12:14:26.000Z</time>
      </trkpt>
      <trkpt lat="45.16875" lon="6.09446">
        <ele>1424.8000488281</ele>
        <time>2012-01-08T12:15:45.000Z</time>
      </trkpt>
      <trkpt lat="45.16876" lon="6.09441">
        <ele>1424.5999755859</ele>
        <time>2012-01-08T12:15:51.000Z</time>
      </trkpt>
      <trkpt lat="45.16875" lon="6.09442">
        <ele>1424.8000488281</ele>
        <time>2012-01-08T12:16:26.000Z</time>
      </trkpt>
      <trkpt lat="45.16876" lon="6.09444">
        <ele>1424.8000488281</ele>
        <time>2012-01-08T12:16:36.000Z</time>
      </trkpt>
      <trkpt lat="45.16874" lon="6.09446">
        <ele>1421.8000488281</ele>
        <time>2012-01-08T12:16:42.000Z</time>
      </trkpt>
      <trkpt lat="45.16872" lon="6.0945">
        <ele>1422.8000488281</ele>
        <time>2012-01-08T12:16:43.000Z</time>
      </trkpt>
      <trkpt lat="45.16877" lon="6.09447">
        <ele>1429.5999755859</ele>
        <time>2012-01-08T12:16:46.000Z</time>
      </trkpt>
      <trkpt lat="45.16881" lon="6.09443">
        <ele>1426.4000244141</ele>
        <time>2012-01-08T12:16:49.000Z</time>
      </trkpt>
      <trkpt lat="45.16882" lon="6.09446">
        <ele>1425.1999511719</ele>
        <time>2012-01-08T12:16:51.000Z</time>
      </trkpt>
      <trkpt lat="45.16884" lon="6.09445">
        <ele>1425</ele>
        <time>2012-01-08T12:16:58.000Z</time>
      </trkpt>
      <trkpt lat="45.16885" lon="6.09449">
        <ele>1426</ele>
        <time>2012-01-08T12:17:05.000Z</time>
      </trkpt>
      <trkpt lat="45.16897" lon="6.09456">
        <ele>1426.5999755859</ele>
        <time>2012-01-08T12:17:14.000Z</time>
      </trkpt>
      <trkpt lat="45.16903" lon="6.09458">
        <ele>1427.5999755859</ele>
        <time>2012-01-08T12:17:19.000Z</time>
      </trkpt>
      <trkpt lat="45.16912" lon="6.09457">
        <ele>1428.5999755859</ele>
        <time>2012-01-08T12:17:27.000Z</time>
      </trkpt>
      <trkpt lat="45.16922" lon="6.09463">
        <ele>1430.1999511719</ele>
        <time>2012-01-08T12:17:37.000Z</time>
      </trkpt>
      <trkpt lat="45.1693" lon="6.09466">
        <ele>1431.1999511719</ele>
        <time>2012-01-08T12:17:44.000Z</time>
      </trkpt>
      <trkpt lat="45.1694" lon="6.09468">
        <ele>1432.5999755859</ele>
        <time>2012-01-08T12:17:53.000Z</time>
      </trkpt>
      <trkpt lat="45.16953" lon="6.09467">
        <ele>1434.1999511719</ele>
        <time>2012-01-08T12:18:02.000Z</time>
      </trkpt>
      <trkpt lat="45.16965" lon="6.09466">
        <ele>1436.1999511719</ele>
        <time>2012-01-08T12:18:12.000Z</time>
      </trkpt>
      <trkpt lat="45.16976" lon="6.09465">
        <ele>1438.4000244141</ele>
        <time>2012-01-08T12:18:22.000Z</time>
      </trkpt>
      <trkpt lat="45.16984" lon="6.09465">
        <ele>1440.1999511719</ele>
        <time>2012-01-08T12:18:30.000Z</time>
      </trkpt>
      <trkpt lat="45.16988" lon="6.09465">
        <ele>1441.4000244141</ele>
        <time>2012-01-08T12:18:36.000Z</time>
      </trkpt>
      <trkpt lat="45.16991" lon="6.09467">
        <ele>1441.8000488281</ele>
        <time>2012-01-08T12:18:41.000Z</time>
      </trkpt>
      <trkpt lat="45.16997" lon="6.09469">
        <ele>1443.4000244141</ele>
        <time>2012-01-08T12:18:49.000Z</time>
      </trkpt>
      <trkpt lat="45.17003" lon="6.09465">
        <ele>1445.4000244141</ele>
        <time>2012-01-08T12:18:56.000Z</time>
      </trkpt>
      <trkpt lat="45.17009" lon="6.09462">
        <ele>1447</ele>
        <time>2012-01-08T12:19:03.000Z</time>
      </trkpt>
      <trkpt lat="45.17015" lon="6.09462">
        <ele>1448.4000244141</ele>
        <time>2012-01-08T12:19:09.000Z</time>
      </trkpt>
      <trkpt lat="45.17016" lon="6.09462">
        <ele>1448.5999755859</ele>
        <time>2012-01-08T12:19:10.000Z</time>
      </trkpt>
      <trkpt lat="45.17022" lon="6.09463">
        <ele>1450</ele>
        <time>2012-01-08T12:19:17.000Z</time>
      </trkpt>
      <trkpt lat="45.17026" lon="6.09463">
        <ele>1451</ele>
        <time>2012-01-08T12:19:22.000Z</time>
      </trkpt>
      <trkpt lat="45.17031" lon="6.09465">
        <ele>1452</ele>
        <time>2012-01-08T12:19:26.000Z</time>
      </trkpt>
      <trkpt lat="45.17034" lon="6.09465">
        <ele>1452.8000488281</ele>
        <time>2012-01-08T12:19:30.000Z</time>
      </trkpt>
      <trkpt lat="45.17038" lon="6.0947">
        <ele>1453.5999755859</ele>
        <time>2012-01-08T12:19:34.000Z</time>
      </trkpt>
      <trkpt lat="45.17046" lon="6.09474">
        <ele>1455.1999511719</ele>
        <time>2012-01-08T12:19:43.000Z</time>
      </trkpt>
      <trkpt lat="45.17047" lon="6.09474">
        <ele>1455.4000244141</ele>
        <time>2012-01-08T12:19:45.000Z</time>
      </trkpt>
      <trkpt lat="45.17051" lon="6.09475">
        <ele>1456.1999511719</ele>
        <time>2012-01-08T12:19:49.000Z</time>
      </trkpt>
      <trkpt lat="45.17057" lon="6.09474">
        <ele>1457.5999755859</ele>
        <time>2012-01-08T12:19:55.000Z</time>
      </trkpt>
      <trkpt lat="45.17062" lon="6.09475">
        <ele>1458.8000488281</ele>
        <time>2012-01-08T12:20:00.000Z</time>
      </trkpt>
      <trkpt lat="45.17065" lon="6.09477">
        <ele>1459.5999755859</ele>
        <time>2012-01-08T12:20:05.000Z</time>
      </trkpt>
      <trkpt lat="45.17071" lon="6.0948">
        <ele>1460</ele>
        <time>2012-01-08T12:20:10.000Z</time>
      </trkpt>
      <trkpt lat="45.17071" lon="6.0948">
        <ele>1461</ele>
        <time>2012-01-08T12:20:17.000Z</time>
      </trkpt>
      <trkpt lat="45.17075" lon="6.0949">
        <ele>1461.8000488281</ele>
        <time>2012-01-08T12:20:28.000Z</time>
      </trkpt>
      <trkpt lat="45.17085" lon="6.09513">
        <ele>1464</ele>
        <time>2012-01-08T12:20:36.000Z</time>
      </trkpt>
      <trkpt lat="45.17087" lon="6.09513">
        <ele>1464.8000488281</ele>
        <time>2012-01-08T12:20:40.000Z</time>
      </trkpt>
      <trkpt lat="45.17091" lon="6.09518">
        <ele>1466.1999511719</ele>
        <time>2012-01-08T12:20:44.000Z</time>
      </trkpt>
      <trkpt lat="45.17094" lon="6.0952">
        <ele>1467</ele>
        <time>2012-01-08T12:20:48.000Z</time>
      </trkpt>
      <trkpt lat="45.17098" lon="6.09525">
        <ele>1468.4000244141</ele>
        <time>2012-01-08T12:20:54.000Z</time>
      </trkpt>
      <trkpt lat="45.17097" lon="6.09526">
        <ele>1469.1999511719</ele>
        <time>2012-01-08T12:20:58.000Z</time>
      </trkpt>
      <trkpt lat="45.17102" lon="6.09529">
        <ele>1470.1999511719</ele>
        <time>2012-01-08T12:21:03.000Z</time>
      </trkpt>
      <trkpt lat="45.17104" lon="6.09531">
        <ele>1470.5999755859</ele>
        <time>2012-01-08T12:21:05.000Z</time>
      </trkpt>
      <trkpt lat="45.17106" lon="6.09529">
        <ele>1471.5999755859</ele>
        <time>2012-01-08T12:21:10.000Z</time>
      </trkpt>
      <trkpt lat="45.17112" lon="6.09517">
        <ele>1473.5999755859</ele>
        <time>2012-01-08T12:21:17.000Z</time>
      </trkpt>
      <trkpt lat="45.17118" lon="6.09511">
        <ele>1475.4000244141</ele>
        <time>2012-01-08T12:21:24.000Z</time>
      </trkpt>
      <trkpt lat="45.17122" lon="6.09507">
        <ele>1477.5999755859</ele>
        <time>2012-01-08T12:21:32.000Z</time>
      </trkpt>
      <trkpt lat="45.17121" lon="6.09501">
        <ele>1479.4000244141</ele>
        <time>2012-01-08T12:21:39.000Z</time>
      </trkpt>
      <trkpt lat="45.17129" lon="6.0949">
        <ele>1483.4000244141</ele>
        <time>2012-01-08T12:21:57.000Z</time>
      </trkpt>
      <trkpt lat="45.17131" lon="6.09486">
        <ele>1484.5999755859</ele>
        <time>2012-01-08T12:22:01.000Z</time>
      </trkpt>
      <trkpt lat="45.17133" lon="6.09478">
        <ele>1486</ele>
        <time>2012-01-08T12:22:08.000Z</time>
      </trkpt>
      <trkpt lat="45.17138" lon="6.09456">
        <ele>1492</ele>
        <time>2012-01-08T12:22:33.000Z</time>
      </trkpt>
      <trkpt lat="45.17138" lon="6.09449">
        <ele>1493.4000244141</ele>
        <time>2012-01-08T12:22:39.000Z</time>
      </trkpt>
      <trkpt lat="45.17139" lon="6.09444">
        <ele>1494.5999755859</ele>
        <time>2012-01-08T12:22:44.000Z</time>
      </trkpt>
      <trkpt lat="45.17139" lon="6.09441">
        <ele>1495.5999755859</ele>
        <time>2012-01-08T12:22:48.000Z</time>
      </trkpt>
      <trkpt lat="45.17139" lon="6.09436">
        <ele>1496.8000488281</ele>
        <time>2012-01-08T12:22:52.000Z</time>
      </trkpt>
      <trkpt lat="45.1714" lon="6.09425">
        <ele>1498.4000244141</ele>
        <time>2012-01-08T12:23:00.000Z</time>
      </trkpt>
      <trkpt lat="45.1714" lon="6.0942">
        <ele>1499.4000244141</ele>
        <time>2012-01-08T12:23:04.000Z</time>
      </trkpt>
      <trkpt lat="45.17139" lon="6.09413">
        <ele>1500.1999511719</ele>
        <time>2012-01-08T12:23:09.000Z</time>
      </trkpt>
      <trkpt lat="45.1714" lon="6.09405">
        <ele>1500.8000488281</ele>
        <time>2012-01-08T12:23:15.000Z</time>
      </trkpt>
      <trkpt lat="45.17145" lon="6.09396">
        <ele>1502.4000244141</ele>
        <time>2012-01-08T12:23:23.000Z</time>
      </trkpt>
      <trkpt lat="45.17147" lon="6.09392">
        <ele>1503.1999511719</ele>
        <time>2012-01-08T12:23:29.000Z</time>
      </trkpt>
      <trkpt lat="45.17149" lon="6.09388">
        <ele>1504.4000244141</ele>
        <time>2012-01-08T12:23:35.000Z</time>
      </trkpt>
      <trkpt lat="45.17153" lon="6.09394">
        <ele>1505.8000488281</ele>
        <time>2012-01-08T12:23:42.000Z</time>
      </trkpt>
      <trkpt lat="45.17156" lon="6.09396">
        <ele>1507.4000244141</ele>
        <time>2012-01-08T12:23:48.000Z</time>
      </trkpt>
      <trkpt lat="45.17165" lon="6.09395">
        <ele>1510</ele>
        <time>2012-01-08T12:24:02.000Z</time>
      </trkpt>
      <trkpt lat="45.17168" lon="6.09393">
        <ele>1510.4000244141</ele>
        <time>2012-01-08T12:24:05.000Z</time>
      </trkpt>
      <trkpt lat="45.17168" lon="6.09388">
        <ele>1511.1999511719</ele>
        <time>2012-01-08T12:24:09.000Z</time>
      </trkpt>
      <trkpt lat="45.17167" lon="6.09379">
        <ele>1512.1999511719</ele>
        <time>2012-01-08T12:24:17.000Z</time>
      </trkpt>
      <trkpt lat="45.17168" lon="6.09375">
        <ele>1512.1999511719</ele>
        <time>2012-01-08T12:24:20.000Z</time>
      </trkpt>
      <trkpt lat="45.17172" lon="6.09369">
        <ele>1512.1999511719</ele>
        <time>2012-01-08T12:24:26.000Z</time>
      </trkpt>
      <trkpt lat="45.17173" lon="6.0936">
        <ele>1512.8000488281</ele>
        <time>2012-01-08T12:24:33.000Z</time>
      </trkpt>
      <trkpt lat="45.17173" lon="6.09351">
        <ele>1514.4000244141</ele>
        <time>2012-01-08T12:24:40.000Z</time>
      </trkpt>
      <trkpt lat="45.17171" lon="6.09346">
        <ele>1515.5999755859</ele>
        <time>2012-01-08T12:24:46.000Z</time>
      </trkpt>
      <trkpt lat="45.17168" lon="6.09341">
        <ele>1517.1999511719</ele>
        <time>2012-01-08T12:24:51.000Z</time>
      </trkpt>
      <trkpt lat="45.17163" lon="6.09336">
        <ele>1518.1999511719</ele>
        <time>2012-01-08T12:24:56.000Z</time>
      </trkpt>
      <trkpt lat="45.17158" lon="6.0933">
        <ele>1519</ele>
        <time>2012-01-08T12:25:01.000Z</time>
      </trkpt>
      <trkpt lat="45.17153" lon="6.09321">
        <ele>1521.4000244141</ele>
        <time>2012-01-08T12:25:11.000Z</time>
      </trkpt>
      <trkpt lat="45.17151" lon="6.09315">
        <ele>1522.4000244141</ele>
        <time>2012-01-08T12:25:17.000Z</time>
      </trkpt>
      <trkpt lat="45.17145" lon="6.09308">
        <ele>1523.5999755859</ele>
        <time>2012-01-08T12:25:24.000Z</time>
      </trkpt>
      <trkpt lat="45.17153" lon="6.09309">
        <ele>1523.8000488281</ele>
        <time>2012-01-08T12:25:30.000Z</time>
      </trkpt>
      <trkpt lat="45.17157" lon="6.09313">
        <ele>1524.1999511719</ele>
        <time>2012-01-08T12:25:34.000Z</time>
      </trkpt>
      <trkpt lat="45.17159" lon="6.09316">
        <ele>1524.4000244141</ele>
        <time>2012-01-08T12:25:36.000Z</time>
      </trkpt>
      <trkpt lat="45.17166" lon="6.09323">
        <ele>1525.1999511719</ele>
        <time>2012-01-08T12:25:43.000Z</time>
      </trkpt>
      <trkpt lat="45.17173" lon="6.09329">
        <ele>1526.5999755859</ele>
        <time>2012-01-08T12:25:50.000Z</time>
      </trkpt>
      <trkpt lat="45.17176" lon="6.09332">
        <ele>1527</ele>
        <time>2012-01-08T12:25:53.000Z</time>
      </trkpt>
      <trkpt lat="45.17183" lon="6.09337">
        <ele>1527.8000488281</ele>
        <time>2012-01-08T12:26:00.000Z</time>
      </trkpt>
      <trkpt lat="45.17188" lon="6.09342">
        <ele>1528.1999511719</ele>
        <time>2012-01-08T12:26:06.000Z</time>
      </trkpt>
      <trkpt lat="45.17196" lon="6.09346">
        <ele>1529.4000244141</ele>
        <time>2012-01-08T12:26:14.000Z</time>
      </trkpt>
      <trkpt lat="45.17202" lon="6.09349">
        <ele>1529.8000488281</ele>
        <time>2012-01-08T12:26:20.000Z</time>
      </trkpt>
      <trkpt lat="45.17205" lon="6.09348">
        <ele>1530.1999511719</ele>
        <time>2012-01-08T12:26:23.000Z</time>
      </trkpt>
      <trkpt lat="45.17209" lon="6.09349">
        <ele>1531.1999511719</ele>
        <time>2012-01-08T12:26:27.000Z</time>
      </trkpt>
      <trkpt lat="45.17212" lon="6.09355">
        <ele>1532.1999511719</ele>
        <time>2012-01-08T12:26:31.000Z</time>
      </trkpt>
      <trkpt lat="45.1722" lon="6.09362">
        <ele>1534.5999755859</ele>
        <time>2012-01-08T12:26:39.000Z</time>
      </trkpt>
      <trkpt lat="45.17222" lon="6.09365">
        <ele>1535</ele>
        <time>2012-01-08T12:26:41.000Z</time>
      </trkpt>
      <trkpt lat="45.17228" lon="6.09369">
        <ele>1535.4000244141</ele>
        <time>2012-01-08T12:26:47.000Z</time>
      </trkpt>
      <trkpt lat="45.1723" lon="6.0937">
        <ele>1535.1999511719</ele>
        <time>2012-01-08T12:26:50.000Z</time>
      </trkpt>
      <trkpt lat="45.17236" lon="6.09373">
        <ele>1534.8000488281</ele>
        <time>2012-01-08T12:26:56.000Z</time>
      </trkpt>
      <trkpt lat="45.17239" lon="6.09372">
        <ele>1535</ele>
        <time>2012-01-08T12:27:00.000Z</time>
      </trkpt>
      <trkpt lat="45.17246" lon="6.09372">
        <ele>1536.5999755859</ele>
        <time>2012-01-08T12:27:06.000Z</time>
      </trkpt>
      <trkpt lat="45.17254" lon="6.09374">
        <ele>1539</ele>
        <time>2012-01-08T12:27:15.000Z</time>
      </trkpt>
      <trkpt lat="45.17261" lon="6.09374">
        <ele>1540.8000488281</ele>
        <time>2012-01-08T12:27:22.000Z</time>
      </trkpt>
      <trkpt lat="45.17265" lon="6.09377">
        <ele>1542</ele>
        <time>2012-01-08T12:27:28.000Z</time>
      </trkpt>
      <trkpt lat="45.1727" lon="6.09375">
        <ele>1543.4000244141</ele>
        <time>2012-01-08T12:27:36.000Z</time>
      </trkpt>
      <trkpt lat="45.17272" lon="6.0937">
        <ele>1544.4000244141</ele>
        <time>2012-01-08T12:27:42.000Z</time>
      </trkpt>
      <trkpt lat="45.17277" lon="6.09367">
        <ele>1546.8000488281</ele>
        <time>2012-01-08T12:27:49.000Z</time>
      </trkpt>
      <trkpt lat="45.17281" lon="6.0937">
        <ele>1548.5999755859</ele>
        <time>2012-01-08T12:27:56.000Z</time>
      </trkpt>
      <trkpt lat="45.17286" lon="6.09371">
        <ele>1549</ele>
        <time>2012-01-08T12:28:03.000Z</time>
      </trkpt>
      <trkpt lat="45.1729" lon="6.09372">
        <ele>1551</ele>
        <time>2012-01-08T12:28:11.000Z</time>
      </trkpt>
      <trkpt lat="45.17293" lon="6.09368">
        <ele>1550.4000244141</ele>
        <time>2012-01-08T12:28:17.000Z</time>
      </trkpt>
      <trkpt lat="45.17295" lon="6.09365">
        <ele>1552.5999755859</ele>
        <time>2012-01-08T12:28:22.000Z</time>
      </trkpt>
      <trkpt lat="45.17301" lon="6.09362">
        <ele>1554.5999755859</ele>
        <time>2012-01-08T12:28:31.000Z</time>
      </trkpt>
      <trkpt lat="45.17305" lon="6.09361">
        <ele>1556</ele>
        <time>2012-01-08T12:28:36.000Z</time>
      </trkpt>
      <trkpt lat="45.17312" lon="6.09361">
        <ele>1557.8000488281</ele>
        <time>2012-01-08T12:28:44.000Z</time>
      </trkpt>
      <trkpt lat="45.17317" lon="6.09364">
        <ele>1560.4000244141</ele>
        <time>2012-01-08T12:28:53.000Z</time>
      </trkpt>
      <trkpt lat="45.17323" lon="6.09368">
        <ele>1561.8000488281</ele>
        <time>2012-01-08T12:29:01.000Z</time>
      </trkpt>
      <trkpt lat="45.17329" lon="6.09371">
        <ele>1563.4000244141</ele>
        <time>2012-01-08T12:29:09.000Z</time>
      </trkpt>
      <trkpt lat="45.17334" lon="6.09373">
        <ele>1563.8000488281</ele>
        <time>2012-01-08T12:29:17.000Z</time>
      </trkpt>
      <trkpt lat="45.1734" lon="6.09378">
        <ele>1567.1999511719</ele>
        <time>2012-01-08T12:29:28.000Z</time>
      </trkpt>
      <trkpt lat="45.17346" lon="6.09382">
        <ele>1569.1999511719</ele>
        <time>2012-01-08T12:29:37.000Z</time>
      </trkpt>
      <trkpt lat="45.17349" lon="6.09377">
        <ele>1570.1999511719</ele>
        <time>2012-01-08T12:29:43.000Z</time>
      </trkpt>
      <trkpt lat="45.17352" lon="6.09373">
        <ele>1571.4000244141</ele>
        <time>2012-01-08T12:29:51.000Z</time>
      </trkpt>
      <trkpt lat="45.17358" lon="6.09372">
        <ele>1573</ele>
        <time>2012-01-08T12:29:59.000Z</time>
      </trkpt>
      <trkpt lat="45.17362" lon="6.09368">
        <ele>1572.5999755859</ele>
        <time>2012-01-08T12:30:05.000Z</time>
      </trkpt>
      <trkpt lat="45.17366" lon="6.09361">
        <ele>1575.1999511719</ele>
        <time>2012-01-08T12:30:14.000Z</time>
      </trkpt>
      <trkpt lat="45.17371" lon="6.09355">
        <ele>1578.4000244141</ele>
        <time>2012-01-08T12:30:25.000Z</time>
      </trkpt>
      <trkpt lat="45.17376" lon="6.09357">
        <ele>1580.1999511719</ele>
        <time>2012-01-08T12:30:31.000Z</time>
      </trkpt>
      <trkpt lat="45.17379" lon="6.09358">
        <ele>1581.1999511719</ele>
        <time>2012-01-08T12:30:34.000Z</time>
      </trkpt>
      <trkpt lat="45.17387" lon="6.09363">
        <ele>1582</ele>
        <time>2012-01-08T12:30:43.000Z</time>
      </trkpt>
      <trkpt lat="45.17394" lon="6.09365">
        <ele>1582.4000244141</ele>
        <time>2012-01-08T12:30:51.000Z</time>
      </trkpt>
      <trkpt lat="45.17401" lon="6.09362">
        <ele>1584.1999511719</ele>
        <time>2012-01-08T12:31:02.000Z</time>
      </trkpt>
      <trkpt lat="45.17405" lon="6.09361">
        <ele>1585.5999755859</ele>
        <time>2012-01-08T12:31:08.000Z</time>
      </trkpt>
      <trkpt lat="45.17413" lon="6.0936">
        <ele>1587.4000244141</ele>
        <time>2012-01-08T12:31:21.000Z</time>
      </trkpt>
      <trkpt lat="45.17418" lon="6.09359">
        <ele>1589.5999755859</ele>
        <time>2012-01-08T12:31:31.000Z</time>
      </trkpt>
      <trkpt lat="45.17425" lon="6.09358">
        <ele>1592.1999511719</ele>
        <time>2012-01-08T12:31:41.000Z</time>
      </trkpt>
      <trkpt lat="45.17429" lon="6.09356">
        <ele>1593.1999511719</ele>
        <time>2012-01-08T12:31:48.000Z</time>
      </trkpt>
      <trkpt lat="45.17432" lon="6.09355">
        <ele>1594.5999755859</ele>
        <time>2012-01-08T12:31:53.000Z</time>
      </trkpt>
      <trkpt lat="45.17438" lon="6.09353">
        <ele>1597.4000244141</ele>
        <time>2012-01-08T12:32:02.000Z</time>
      </trkpt>
      <trkpt lat="45.17444" lon="6.0935">
        <ele>1598.5999755859</ele>
        <time>2012-01-08T12:32:11.000Z</time>
      </trkpt>
      <trkpt lat="45.1745" lon="6.09351">
        <ele>1601.4000244141</ele>
        <time>2012-01-08T12:32:20.000Z</time>
      </trkpt>
      <trkpt lat="45.17455" lon="6.09353">
        <ele>1602.4000244141</ele>
        <time>2012-01-08T12:32:30.000Z</time>
      </trkpt>
      <trkpt lat="45.17461" lon="6.09351">
        <ele>1602.8000488281</ele>
        <time>2012-01-08T12:32:39.000Z</time>
      </trkpt>
      <trkpt lat="45.17464" lon="6.09349">
        <ele>1604.1999511719</ele>
        <time>2012-01-08T12:32:42.000Z</time>
      </trkpt>
      <trkpt lat="45.17469" lon="6.09349">
        <ele>1605.1999511719</ele>
        <time>2012-01-08T12:32:49.000Z</time>
      </trkpt>
      <trkpt lat="45.17474" lon="6.0935">
        <ele>1607.1999511719</ele>
        <time>2012-01-08T12:32:55.000Z</time>
      </trkpt>
      <trkpt lat="45.17479" lon="6.09348">
        <ele>1608.1999511719</ele>
        <time>2012-01-08T12:33:01.000Z</time>
      </trkpt>
      <trkpt lat="45.17486" lon="6.09345">
        <ele>1610</ele>
        <time>2012-01-08T12:33:10.000Z</time>
      </trkpt>
      <trkpt lat="45.17492" lon="6.09346">
        <ele>1610.8000488281</ele>
        <time>2012-01-08T12:33:18.000Z</time>
      </trkpt>
      <trkpt lat="45.17498" lon="6.09345">
        <ele>1610.8000488281</ele>
        <time>2012-01-08T12:33:26.000Z</time>
      </trkpt>
      <trkpt lat="45.17505" lon="6.09343">
        <ele>1613.5999755859</ele>
        <time>2012-01-08T12:33:34.000Z</time>
      </trkpt>
      <trkpt lat="45.17511" lon="6.09343">
        <ele>1616.4000244141</ele>
        <time>2012-01-08T12:33:43.000Z</time>
      </trkpt>
      <trkpt lat="45.17513" lon="6.09342">
        <ele>1617.4000244141</ele>
        <time>2012-01-08T12:33:45.000Z</time>
      </trkpt>
      <trkpt lat="45.17519" lon="6.09339">
        <ele>1618.8000488281</ele>
        <time>2012-01-08T12:33:52.000Z</time>
      </trkpt>
      <trkpt lat="45.17523" lon="6.09337">
        <ele>1619.5999755859</ele>
        <time>2012-01-08T12:33:58.000Z</time>
      </trkpt>
      <trkpt lat="45.17529" lon="6.09332">
        <ele>1621</ele>
        <time>2012-01-08T12:34:05.000Z</time>
      </trkpt>
      <trkpt lat="45.17534" lon="6.09333">
        <ele>1622</ele>
        <time>2012-01-08T12:34:12.000Z</time>
      </trkpt>
      <trkpt lat="45.17539" lon="6.09333">
        <ele>1623</ele>
        <time>2012-01-08T12:34:20.000Z</time>
      </trkpt>
      <trkpt lat="45.17546" lon="6.09329">
        <ele>1624.8000488281</ele>
        <time>2012-01-08T12:34:28.000Z</time>
      </trkpt>
      <trkpt lat="45.1755" lon="6.09327">
        <ele>1625.4000244141</ele>
        <time>2012-01-08T12:34:35.000Z</time>
      </trkpt>
      <trkpt lat="45.17552" lon="6.09328">
        <ele>1625.8000488281</ele>
        <time>2012-01-08T12:34:42.000Z</time>
      </trkpt>
      <trkpt lat="45.17554" lon="6.09326">
        <ele>1625.5999755859</ele>
        <time>2012-01-08T12:34:47.000Z</time>
      </trkpt>
      <trkpt lat="45.17559" lon="6.09326">
        <ele>1627.1999511719</ele>
        <time>2012-01-08T12:34:55.000Z</time>
      </trkpt>
      <trkpt lat="45.17563" lon="6.09323">
        <ele>1629</ele>
        <time>2012-01-08T12:35:02.000Z</time>
      </trkpt>
      <trkpt lat="45.1757" lon="6.0932">
        <ele>1630.5999755859</ele>
        <time>2012-01-08T12:35:11.000Z</time>
      </trkpt>
      <trkpt lat="45.17573" lon="6.0932">
        <ele>1631.8000488281</ele>
        <time>2012-01-08T12:35:17.000Z</time>
      </trkpt>
      <trkpt lat="45.17577" lon="6.0932">
        <ele>1634.4000244141</ele>
        <time>2012-01-08T12:35:24.000Z</time>
      </trkpt>
      <trkpt lat="45.17583" lon="6.09318">
        <ele>1636.8000488281</ele>
        <time>2012-01-08T12:35:32.000Z</time>
      </trkpt>
      <trkpt lat="45.1759" lon="6.09313">
        <ele>1639</ele>
        <time>2012-01-08T12:35:39.000Z</time>
      </trkpt>
      <trkpt lat="45.17598" lon="6.09309">
        <ele>1639.5999755859</ele>
        <time>2012-01-08T12:35:47.000Z</time>
      </trkpt>
      <trkpt lat="45.17604" lon="6.09305">
        <ele>1640</ele>
        <time>2012-01-08T12:35:53.000Z</time>
      </trkpt>
      <trkpt lat="45.17611" lon="6.09303">
        <ele>1640</ele>
        <time>2012-01-08T12:36:02.000Z</time>
      </trkpt>
      <trkpt lat="45.17617" lon="6.09301">
        <ele>1640.8000488281</ele>
        <time>2012-01-08T12:36:09.000Z</time>
      </trkpt>
      <trkpt lat="45.17621" lon="6.093">
        <ele>1642</ele>
        <time>2012-01-08T12:36:13.000Z</time>
      </trkpt>
      <trkpt lat="45.17627" lon="6.09301">
        <ele>1643.5999755859</ele>
        <time>2012-01-08T12:36:20.000Z</time>
      </trkpt>
      <trkpt lat="45.17631" lon="6.09304">
        <ele>1644</ele>
        <time>2012-01-08T12:36:25.000Z</time>
      </trkpt>
      <trkpt lat="45.17635" lon="6.09304">
        <ele>1644.1999511719</ele>
        <time>2012-01-08T12:36:29.000Z</time>
      </trkpt>
      <trkpt lat="45.17638" lon="6.09308">
        <ele>1644.5999755859</ele>
        <time>2012-01-08T12:36:34.000Z</time>
      </trkpt>
      <trkpt lat="45.17641" lon="6.09314">
        <ele>1646.1999511719</ele>
        <time>2012-01-08T12:36:39.000Z</time>
      </trkpt>
      <trkpt lat="45.17642" lon="6.09315">
        <ele>1647.1999511719</ele>
        <time>2012-01-08T12:36:42.000Z</time>
      </trkpt>
      <trkpt lat="45.1765" lon="6.0931">
        <ele>1649.1999511719</ele>
        <time>2012-01-08T12:36:49.000Z</time>
      </trkpt>
      <trkpt lat="45.17658" lon="6.09312">
        <ele>1650.1999511719</ele>
        <time>2012-01-08T12:36:57.000Z</time>
      </trkpt>
      <trkpt lat="45.17663" lon="6.09311">
        <ele>1651.5999755859</ele>
        <time>2012-01-08T12:37:03.000Z</time>
      </trkpt>
      <trkpt lat="45.17665" lon="6.09312">
        <ele>1651.8000488281</ele>
        <time>2012-01-08T12:37:06.000Z</time>
      </trkpt>
      <trkpt lat="45.17669" lon="6.09311">
        <ele>1653.1999511719</ele>
        <time>2012-01-08T12:37:12.000Z</time>
      </trkpt>
      <trkpt lat="45.17672" lon="6.09312">
        <ele>1654.1999511719</ele>
        <time>2012-01-08T12:37:17.000Z</time>
      </trkpt>
      <trkpt lat="45.17675" lon="6.09312">
        <ele>1655.4000244141</ele>
        <time>2012-01-08T12:37:22.000Z</time>
      </trkpt>
      <trkpt lat="45.17679" lon="6.09307">
        <ele>1656.1999511719</ele>
        <time>2012-01-08T12:37:28.000Z</time>
      </trkpt>
      <trkpt lat="45.17681" lon="6.09306">
        <ele>1656.4000244141</ele>
        <time>2012-01-08T12:37:30.000Z</time>
      </trkpt>
      <trkpt lat="45.17687" lon="6.09303">
        <ele>1657.8000488281</ele>
        <time>2012-01-08T12:37:36.000Z</time>
      </trkpt>
      <trkpt lat="45.17691" lon="6.093">
        <ele>1658.5999755859</ele>
        <time>2012-01-08T12:37:41.000Z</time>
      </trkpt>
      <trkpt lat="45.17698" lon="6.09295">
        <ele>1660.5999755859</ele>
        <time>2012-01-08T12:37:49.000Z</time>
      </trkpt>
      <trkpt lat="45.17701" lon="6.09297">
        <ele>1661.4000244141</ele>
        <time>2012-01-08T12:37:54.000Z</time>
      </trkpt>
      <trkpt lat="45.17704" lon="6.09297">
        <ele>1662.4000244141</ele>
        <time>2012-01-08T12:37:58.000Z</time>
      </trkpt>
      <trkpt lat="45.17708" lon="6.09298">
        <ele>1663.1999511719</ele>
        <time>2012-01-08T12:38:03.000Z</time>
      </trkpt>
      <trkpt lat="45.17708" lon="6.09298">
        <ele>1663.1999511719</ele>
        <time>2012-01-08T12:38:04.000Z</time>
      </trkpt>
      <trkpt lat="45.17708" lon="6.09298">
        <ele>1665.1999511719</ele>
        <time>2012-01-08T12:38:10.000Z</time>
      </trkpt>
      <trkpt lat="45.17715" lon="6.09298">
        <ele>1666.5999755859</ele>
        <time>2012-01-08T12:38:19.000Z</time>
      </trkpt>
      <trkpt lat="45.17717" lon="6.09298">
        <ele>1667</ele>
        <time>2012-01-08T12:38:23.000Z</time>
      </trkpt>
      <trkpt lat="45.17728" lon="6.09297">
        <ele>1670</ele>
        <time>2012-01-08T12:38:37.000Z</time>
      </trkpt>
      <trkpt lat="45.17732" lon="6.09299">
        <ele>1671.4000244141</ele>
        <time>2012-01-08T12:38:42.000Z</time>
      </trkpt>
      <trkpt lat="45.17735" lon="6.09298">
        <ele>1673</ele>
        <time>2012-01-08T12:38:48.000Z</time>
      </trkpt>
      <trkpt lat="45.17737" lon="6.093">
        <ele>1673.8000488281</ele>
        <time>2012-01-08T12:38:53.000Z</time>
      </trkpt>
      <trkpt lat="45.17739" lon="6.093">
        <ele>1674.8000488281</ele>
        <time>2012-01-08T12:38:58.000Z</time>
      </trkpt>
      <trkpt lat="45.17747" lon="6.09298">
        <ele>1677</ele>
        <time>2012-01-08T12:39:10.000Z</time>
      </trkpt>
      <trkpt lat="45.17749" lon="6.09297">
        <ele>1678.4000244141</ele>
        <time>2012-01-08T12:39:13.000Z</time>
      </trkpt>
      <trkpt lat="45.1775" lon="6.09297">
        <ele>1678.4000244141</ele>
        <time>2012-01-08T12:39:15.000Z</time>
      </trkpt>
      <trkpt lat="45.17755" lon="6.09298">
        <ele>1680.1999511719</ele>
        <time>2012-01-08T12:39:21.000Z</time>
      </trkpt>
      <trkpt lat="45.17781" lon="6.09292">
        <ele>1686.5999755859</ele>
        <time>2012-01-08T12:39:57.000Z</time>
      </trkpt>
      <trkpt lat="45.17786" lon="6.09294">
        <ele>1688.5999755859</ele>
        <time>2012-01-08T12:40:04.000Z</time>
      </trkpt>
      <trkpt lat="45.17791" lon="6.09293">
        <ele>1690</ele>
        <time>2012-01-08T12:40:11.000Z</time>
      </trkpt>
      <trkpt lat="45.17803" lon="6.09286">
        <ele>1694.4000244141</ele>
        <time>2012-01-08T12:40:30.000Z</time>
      </trkpt>
      <trkpt lat="45.17811" lon="6.09286">
        <ele>1697</ele>
        <time>2012-01-08T12:40:42.000Z</time>
      </trkpt>
      <trkpt lat="45.17814" lon="6.09286">
        <ele>1698</ele>
        <time>2012-01-08T12:40:47.000Z</time>
      </trkpt>
      <trkpt lat="45.17819" lon="6.09289">
        <ele>1699.4000244141</ele>
        <time>2012-01-08T12:40:52.000Z</time>
      </trkpt>
      <trkpt lat="45.17824" lon="6.09293">
        <ele>1701.1999511719</ele>
        <time>2012-01-08T12:40:59.000Z</time>
      </trkpt>
      <trkpt lat="45.17828" lon="6.09299">
        <ele>1702.5999755859</ele>
        <time>2012-01-08T12:41:06.000Z</time>
      </trkpt>
      <trkpt lat="45.17832" lon="6.09304">
        <ele>1704</ele>
        <time>2012-01-08T12:41:12.000Z</time>
      </trkpt>
      <trkpt lat="45.17837" lon="6.09308">
        <ele>1705.5999755859</ele>
        <time>2012-01-08T12:41:20.000Z</time>
      </trkpt>
      <trkpt lat="45.17841" lon="6.09312">
        <ele>1707</ele>
        <time>2012-01-08T12:41:27.000Z</time>
      </trkpt>
      <trkpt lat="45.17844" lon="6.09314">
        <ele>1707.8000488281</ele>
        <time>2012-01-08T12:41:31.000Z</time>
      </trkpt>
      <trkpt lat="45.17849" lon="6.09315">
        <ele>1709</ele>
        <time>2012-01-08T12:41:37.000Z</time>
      </trkpt>
      <trkpt lat="45.17854" lon="6.09317">
        <ele>1710.5999755859</ele>
        <time>2012-01-08T12:41:44.000Z</time>
      </trkpt>
      <trkpt lat="45.1786" lon="6.0932">
        <ele>1711.5999755859</ele>
        <time>2012-01-08T12:41:52.000Z</time>
      </trkpt>
      <trkpt lat="45.17864" lon="6.09323">
        <ele>1713.5999755859</ele>
        <time>2012-01-08T12:41:59.000Z</time>
      </trkpt>
      <trkpt lat="45.17867" lon="6.09328">
        <ele>1715</ele>
        <time>2012-01-08T12:42:06.000Z</time>
      </trkpt>
      <trkpt lat="45.17868" lon="6.09331">
        <ele>1716</ele>
        <time>2012-01-08T12:42:09.000Z</time>
      </trkpt>
      <trkpt lat="45.17873" lon="6.09337">
        <ele>1718.5999755859</ele>
        <time>2012-01-08T12:42:19.000Z</time>
      </trkpt>
      <trkpt lat="45.17877" lon="6.09341">
        <ele>1720.1999511719</ele>
        <time>2012-01-08T12:42:27.000Z</time>
      </trkpt>
      <trkpt lat="45.17882" lon="6.09344">
        <ele>1722.1999511719</ele>
        <time>2012-01-08T12:42:37.000Z</time>
      </trkpt>
      <trkpt lat="45.17886" lon="6.09347">
        <ele>1724</ele>
        <time>2012-01-08T12:42:44.000Z</time>
      </trkpt>
      <trkpt lat="45.1789" lon="6.0935">
        <ele>1725.1999511719</ele>
        <time>2012-01-08T12:42:49.000Z</time>
      </trkpt>
      <trkpt lat="45.17892" lon="6.0935">
        <ele>1725.5999755859</ele>
        <time>2012-01-08T12:42:52.000Z</time>
      </trkpt>
      <trkpt lat="45.17898" lon="6.09354">
        <ele>1727.5999755859</ele>
        <time>2012-01-08T12:43:01.000Z</time>
      </trkpt>
      <trkpt lat="45.17901" lon="6.09357">
        <ele>1729.4000244141</ele>
        <time>2012-01-08T12:43:07.000Z</time>
      </trkpt>
      <trkpt lat="45.17905" lon="6.09359">
        <ele>1730.5999755859</ele>
        <time>2012-01-08T12:43:14.000Z</time>
      </trkpt>
      <trkpt lat="45.17911" lon="6.09361">
        <ele>1731.8000488281</ele>
        <time>2012-01-08T12:43:21.000Z</time>
      </trkpt>
      <trkpt lat="45.17917" lon="6.09363">
        <ele>1733.5999755859</ele>
        <time>2012-01-08T12:43:29.000Z</time>
      </trkpt>
      <trkpt lat="45.17922" lon="6.09365">
        <ele>1735.1999511719</ele>
        <time>2012-01-08T12:43:37.000Z</time>
      </trkpt>
      <trkpt lat="45.17928" lon="6.0937">
        <ele>1737.4000244141</ele>
        <time>2012-01-08T12:43:46.000Z</time>
      </trkpt>
      <trkpt lat="45.17931" lon="6.09374">
        <ele>1738.8000488281</ele>
        <time>2012-01-08T12:43:51.000Z</time>
      </trkpt>
      <trkpt lat="45.17933" lon="6.09378">
        <ele>1740</ele>
        <time>2012-01-08T12:43:56.000Z</time>
      </trkpt>
      <trkpt lat="45.17938" lon="6.09383">
        <ele>1741.4000244141</ele>
        <time>2012-01-08T12:44:05.000Z</time>
      </trkpt>
      <trkpt lat="45.17942" lon="6.09388">
        <ele>1742.5999755859</ele>
        <time>2012-01-08T12:44:13.000Z</time>
      </trkpt>
      <trkpt lat="45.17947" lon="6.09397">
        <ele>1743.8000488281</ele>
        <time>2012-01-08T12:44:22.000Z</time>
      </trkpt>
      <trkpt lat="45.17949" lon="6.09399">
        <ele>1744</ele>
        <time>2012-01-08T12:44:25.000Z</time>
      </trkpt>
      <trkpt lat="45.17954" lon="6.09402">
        <ele>1745.4000244141</ele>
        <time>2012-01-08T12:44:33.000Z</time>
      </trkpt>
      <trkpt lat="45.17959" lon="6.09406">
        <ele>1746.5999755859</ele>
        <time>2012-01-08T12:44:41.000Z</time>
      </trkpt>
      <trkpt lat="45.17965" lon="6.09408">
        <ele>1748.5999755859</ele>
        <time>2012-01-08T12:44:50.000Z</time>
      </trkpt>
      <trkpt lat="45.1797" lon="6.09409">
        <ele>1750.4000244141</ele>
        <time>2012-01-08T12:44:59.000Z</time>
      </trkpt>
      <trkpt lat="45.17976" lon="6.09411">
        <ele>1751.8000488281</ele>
        <time>2012-01-08T12:45:08.000Z</time>
      </trkpt>
      <trkpt lat="45.17983" lon="6.09414">
        <ele>1753.4000244141</ele>
        <time>2012-01-08T12:45:18.000Z</time>
      </trkpt>
      <trkpt lat="45.1799" lon="6.09418">
        <ele>1755.4000244141</ele>
        <time>2012-01-08T12:45:28.000Z</time>
      </trkpt>
      <trkpt lat="45.17994" lon="6.09422">
        <ele>1757.8000488281</ele>
        <time>2012-01-08T12:45:36.000Z</time>
      </trkpt>
      <trkpt lat="45.18001" lon="6.09428">
        <ele>1760</ele>
        <time>2012-01-08T12:45:47.000Z</time>
      </trkpt>
      <trkpt lat="45.18006" lon="6.09431">
        <ele>1761.1999511719</ele>
        <time>2012-01-08T12:45:55.000Z</time>
      </trkpt>
      <trkpt lat="45.18014" lon="6.09437">
        <ele>1762.5999755859</ele>
        <time>2012-01-08T12:46:06.000Z</time>
      </trkpt>
      <trkpt lat="45.1802" lon="6.09441">
        <ele>1763</ele>
        <time>2012-01-08T12:46:15.000Z</time>
      </trkpt>
      <trkpt lat="45.18026" lon="6.09445">
        <ele>1764.5999755859</ele>
        <time>2012-01-08T12:46:22.000Z</time>
      </trkpt>
      <trkpt lat="45.1803" lon="6.09449">
        <ele>1765.4000244141</ele>
        <time>2012-01-08T12:46:28.000Z</time>
      </trkpt>
      <trkpt lat="45.18038" lon="6.09451">
        <ele>1767</ele>
        <time>2012-01-08T12:46:38.000Z</time>
      </trkpt>
      <trkpt lat="45.18039" lon="6.09452">
        <ele>1767.1999511719</ele>
        <time>2012-01-08T12:46:40.000Z</time>
      </trkpt>
      <trkpt lat="45.18045" lon="6.09453">
        <ele>1769</ele>
        <time>2012-01-08T12:46:47.000Z</time>
      </trkpt>
      <trkpt lat="45.18052" lon="6.09455">
        <ele>1771</ele>
        <time>2012-01-08T12:46:57.000Z</time>
      </trkpt>
      <trkpt lat="45.18057" lon="6.09458">
        <ele>1773.1999511719</ele>
        <time>2012-01-08T12:47:06.000Z</time>
      </trkpt>
      <trkpt lat="45.18059" lon="6.09461">
        <ele>1774.1999511719</ele>
        <time>2012-01-08T12:47:11.000Z</time>
      </trkpt>
      <trkpt lat="45.18065" lon="6.09466">
        <ele>1776</ele>
        <time>2012-01-08T12:47:19.000Z</time>
      </trkpt>
      <trkpt lat="45.1807" lon="6.09471">
        <ele>1777.5999755859</ele>
        <time>2012-01-08T12:47:27.000Z</time>
      </trkpt>
      <trkpt lat="45.18077" lon="6.09474">
        <ele>1778.8000488281</ele>
        <time>2012-01-08T12:47:36.000Z</time>
      </trkpt>
      <trkpt lat="45.18084" lon="6.0948">
        <ele>1780.4000244141</ele>
        <time>2012-01-08T12:47:45.000Z</time>
      </trkpt>
      <trkpt lat="45.18089" lon="6.09484">
        <ele>1781.4000244141</ele>
        <time>2012-01-08T12:47:53.000Z</time>
      </trkpt>
      <trkpt lat="45.18094" lon="6.09488">
        <ele>1782.4000244141</ele>
        <time>2012-01-08T12:48:01.000Z</time>
      </trkpt>
      <trkpt lat="45.18098" lon="6.09492">
        <ele>1783.8000488281</ele>
        <time>2012-01-08T12:48:09.000Z</time>
      </trkpt>
      <trkpt lat="45.181" lon="6.09494">
        <ele>1784.4000244141</ele>
        <time>2012-01-08T12:48:14.000Z</time>
      </trkpt>
      <trkpt lat="45.18104" lon="6.09496">
        <ele>1785.1999511719</ele>
        <time>2012-01-08T12:48:20.000Z</time>
      </trkpt>
      <trkpt lat="45.18109" lon="6.09501">
        <ele>1787</ele>
        <time>2012-01-08T12:48:29.000Z</time>
      </trkpt>
      <trkpt lat="45.18117" lon="6.09512">
        <ele>1788.1999511719</ele>
        <time>2012-01-08T12:49:08.000Z</time>
      </trkpt>
      <trkpt lat="45.18118" lon="6.09514">
        <ele>1786.8000488281</ele>
        <time>2012-01-08T12:49:12.000Z</time>
      </trkpt>
      <trkpt lat="45.18121" lon="6.09522">
        <ele>1787.8000488281</ele>
        <time>2012-01-08T12:49:18.000Z</time>
      </trkpt>
      <trkpt lat="45.18113" lon="6.09508">
        <ele>1786.5999755859</ele>
        <time>2012-01-08T12:52:21.000Z</time>
      </trkpt>
      <trkpt lat="45.18111" lon="6.09512">
        <ele>1786.8000488281</ele>
        <time>2012-01-08T12:52:59.000Z</time>
      </trkpt>
      <trkpt lat="45.18109" lon="6.09511">
        <ele>1786</ele>
        <time>2012-01-08T12:53:39.000Z</time>
      </trkpt>
      <trkpt lat="45.18111" lon="6.09506">
        <ele>1787.4000244141</ele>
        <time>2012-01-08T12:53:43.000Z</time>
      </trkpt>
      <trkpt lat="45.18105" lon="6.09489">
        <ele>1787.1999511719</ele>
        <time>2012-01-08T12:53:49.000Z</time>
      </trkpt>
      <trkpt lat="45.18104" lon="6.0949">
        <ele>1787.5999755859</ele>
        <time>2012-01-08T12:54:29.000Z</time>
      </trkpt>
      <trkpt lat="45.18111" lon="6.09496">
        <ele>1786.5999755859</ele>
        <time>2012-01-08T12:54:40.000Z</time>
      </trkpt>
      <trkpt lat="45.1811" lon="6.095">
        <ele>1788</ele>
        <time>2012-01-08T12:54:47.000Z</time>
      </trkpt>
      <trkpt lat="45.18115" lon="6.09516">
        <ele>1787.1999511719</ele>
        <time>2012-01-08T12:55:23.000Z</time>
      </trkpt>
      <trkpt lat="45.18115" lon="6.09516">
        <ele>1787.5999755859</ele>
        <time>2012-01-08T12:55:30.000Z</time>
      </trkpt>
      <trkpt lat="45.1811" lon="6.0951">
        <ele>1787</ele>
        <time>2012-01-08T12:55:52.000Z</time>
      </trkpt>
      <trkpt lat="45.18111" lon="6.09511">
        <ele>1787</ele>
        <time>2012-01-08T12:55:53.000Z</time>
      </trkpt>
      <trkpt lat="45.18102" lon="6.09505">
        <ele>1786.1999511719</ele>
        <time>2012-01-08T12:55:57.000Z</time>
      </trkpt>
      <trkpt lat="45.18084" lon="6.09493">
        <ele>1783</ele>
        <time>2012-01-08T12:56:01.000Z</time>
      </trkpt>
      <trkpt lat="45.18059" lon="6.09464">
        <ele>1778.1999511719</ele>
        <time>2012-01-08T12:56:06.000Z</time>
      </trkpt>
      <trkpt lat="45.18046" lon="6.09455">
        <ele>1774.8000488281</ele>
        <time>2012-01-08T12:56:08.000Z</time>
      </trkpt>
      <trkpt lat="45.18019" lon="6.0944">
        <ele>1768.1999511719</ele>
        <time>2012-01-08T12:56:12.000Z</time>
      </trkpt>
      <trkpt lat="45.17999" lon="6.09429">
        <ele>1764</ele>
        <time>2012-01-08T12:56:15.000Z</time>
      </trkpt>
      <trkpt lat="45.17988" lon="6.09425">
        <ele>1762.1999511719</ele>
        <time>2012-01-08T12:56:17.000Z</time>
      </trkpt>
      <trkpt lat="45.17956" lon="6.09402">
        <ele>1753.1999511719</ele>
        <time>2012-01-08T12:56:22.000Z</time>
      </trkpt>
      <trkpt lat="45.17936" lon="6.09389">
        <ele>1745.4000244141</ele>
        <time>2012-01-08T12:56:26.000Z</time>
      </trkpt>
      <trkpt lat="45.17928" lon="6.0938">
        <ele>1741.4000244141</ele>
        <time>2012-01-08T12:56:28.000Z</time>
      </trkpt>
      <trkpt lat="45.17914" lon="6.09362">
        <ele>1737</ele>
        <time>2012-01-08T12:56:31.000Z</time>
      </trkpt>
      <trkpt lat="45.17879" lon="6.09327">
        <ele>1725.4000244141</ele>
        <time>2012-01-08T12:56:37.000Z</time>
      </trkpt>
      <trkpt lat="45.17875" lon="6.09325">
        <ele>1723.4000244141</ele>
        <time>2012-01-08T12:56:38.000Z</time>
      </trkpt>
      <trkpt lat="45.17855" lon="6.09303">
        <ele>1717.1999511719</ele>
        <time>2012-01-08T12:56:42.000Z</time>
      </trkpt>
      <trkpt lat="45.17834" lon="6.09293">
        <ele>1708.8000488281</ele>
        <time>2012-01-08T12:56:46.000Z</time>
      </trkpt>
      <trkpt lat="45.17828" lon="6.0929">
        <ele>1706.8000488281</ele>
        <time>2012-01-08T12:56:47.000Z</time>
      </trkpt>
      <trkpt lat="45.17806" lon="6.09272">
        <ele>1699.5999755859</ele>
        <time>2012-01-08T12:56:51.000Z</time>
      </trkpt>
      <trkpt lat="45.1779" lon="6.09278">
        <ele>1693.5999755859</ele>
        <time>2012-01-08T12:56:55.000Z</time>
      </trkpt>
      <trkpt lat="45.17781" lon="6.09299">
        <ele>1691.4000244141</ele>
        <time>2012-01-08T12:56:57.000Z</time>
      </trkpt>
      <trkpt lat="45.17777" lon="6.09308">
        <ele>1690</ele>
        <time>2012-01-08T12:56:59.000Z</time>
      </trkpt>
      <trkpt lat="45.17764" lon="6.09301">
        <ele>1687.5999755859</ele>
        <time>2012-01-08T12:57:03.000Z</time>
      </trkpt>
      <trkpt lat="45.17736" lon="6.09293">
        <ele>1678.1999511719</ele>
        <time>2012-01-08T12:57:07.000Z</time>
      </trkpt>
      <trkpt lat="45.17715" lon="6.09295">
        <ele>1672.1999511719</ele>
        <time>2012-01-08T12:57:11.000Z</time>
      </trkpt>
      <trkpt lat="45.17705" lon="6.09294">
        <ele>1668.4000244141</ele>
        <time>2012-01-08T12:57:13.000Z</time>
      </trkpt>
      <trkpt lat="45.17679" lon="6.09291">
        <ele>1661.4000244141</ele>
        <time>2012-01-08T12:57:18.000Z</time>
      </trkpt>
      <trkpt lat="45.17674" lon="6.09289">
        <ele>1659.8000488281</ele>
        <time>2012-01-08T12:57:19.000Z</time>
      </trkpt>
      <trkpt lat="45.17647" lon="6.09272">
        <ele>1654.1999511719</ele>
        <time>2012-01-08T12:57:24.000Z</time>
      </trkpt>
      <trkpt lat="45.17623" lon="6.09261">
        <ele>1650.8000488281</ele>
        <time>2012-01-08T12:57:28.000Z</time>
      </trkpt>
      <trkpt lat="45.17613" lon="6.09254">
        <ele>1649.8000488281</ele>
        <time>2012-01-08T12:57:30.000Z</time>
      </trkpt>
      <trkpt lat="45.17605" lon="6.09245">
        <ele>1648.8000488281</ele>
        <time>2012-01-08T12:57:32.000Z</time>
      </trkpt>
      <trkpt lat="45.17602" lon="6.09239">
        <ele>1647.5999755859</ele>
        <time>2012-01-08T12:57:36.000Z</time>
      </trkpt>
      <trkpt lat="45.17606" lon="6.09243">
        <ele>1648</ele>
        <time>2012-01-08T12:57:43.000Z</time>
      </trkpt>
      <trkpt lat="45.17605" lon="6.09243">
        <ele>1647.8000488281</ele>
        <time>2012-01-08T12:57:46.000Z</time>
      </trkpt>
      <trkpt lat="45.17597" lon="6.09241">
        <ele>1646.5999755859</ele>
        <time>2012-01-08T12:57:50.000Z</time>
      </trkpt>
      <trkpt lat="45.1759" lon="6.09253">
        <ele>1644</ele>
        <time>2012-01-08T12:57:53.000Z</time>
      </trkpt>
      <trkpt lat="45.17567" lon="6.09273">
        <ele>1637.1999511719</ele>
        <time>2012-01-08T12:57:59.000Z</time>
      </trkpt>
      <trkpt lat="45.1756" lon="6.09288">
        <ele>1634.1999511719</ele>
        <time>2012-01-08T12:58:02.000Z</time>
      </trkpt>
      <trkpt lat="45.17543" lon="6.09307">
        <ele>1630.4000244141</ele>
        <time>2012-01-08T12:58:05.000Z</time>
      </trkpt>
      <trkpt lat="45.17523" lon="6.0931">
        <ele>1624.4000244141</ele>
        <time>2012-01-08T12:58:08.000Z</time>
      </trkpt>
      <trkpt lat="45.17513" lon="6.09304">
        <ele>1622.5999755859</ele>
        <time>2012-01-08T12:58:10.000Z</time>
      </trkpt>
      <trkpt lat="45.17502" lon="6.09305">
        <ele>1619.4000244141</ele>
        <time>2012-01-08T12:58:13.000Z</time>
      </trkpt>
      <trkpt lat="45.1749" lon="6.09311">
        <ele>1615.8000488281</ele>
        <time>2012-01-08T12:58:16.000Z</time>
      </trkpt>
      <trkpt lat="45.17479" lon="6.09334">
        <ele>1611.8000488281</ele>
        <time>2012-01-08T12:58:20.000Z</time>
      </trkpt>
      <trkpt lat="45.17475" lon="6.09337">
        <ele>1610.4000244141</ele>
        <time>2012-01-08T12:58:21.000Z</time>
      </trkpt>
      <trkpt lat="45.17457" lon="6.09346">
        <ele>1605.8000488281</ele>
        <time>2012-01-08T12:58:25.000Z</time>
      </trkpt>
      <trkpt lat="45.17439" lon="6.09349">
        <ele>1600</ele>
        <time>2012-01-08T12:58:29.000Z</time>
      </trkpt>
      <trkpt lat="45.17425" lon="6.09334">
        <ele>1594.4000244141</ele>
        <time>2012-01-08T12:58:33.000Z</time>
      </trkpt>
      <trkpt lat="45.174" lon="6.09329">
        <ele>1588.1999511719</ele>
        <time>2012-01-08T12:58:38.000Z</time>
      </trkpt>
      <trkpt lat="45.17382" lon="6.09357">
        <ele>1581.5999755859</ele>
        <time>2012-01-08T12:58:43.000Z</time>
      </trkpt>
      <trkpt lat="45.17373" lon="6.09357">
        <ele>1579.1999511719</ele>
        <time>2012-01-08T12:58:46.000Z</time>
      </trkpt>
      <trkpt lat="45.17372" lon="6.09357">
        <ele>1578.5999755859</ele>
        <time>2012-01-08T12:58:48.000Z</time>
      </trkpt>
      <trkpt lat="45.1737" lon="6.09356">
        <ele>1578.5999755859</ele>
        <time>2012-01-08T12:58:51.000Z</time>
      </trkpt>
      <trkpt lat="45.17363" lon="6.0935">
        <ele>1577</ele>
        <time>2012-01-08T12:58:54.000Z</time>
      </trkpt>
      <trkpt lat="45.17348" lon="6.09365">
        <ele>1570.5999755859</ele>
        <time>2012-01-08T12:58:59.000Z</time>
      </trkpt>
      <trkpt lat="45.17337" lon="6.09368">
        <ele>1567.5999755859</ele>
        <time>2012-01-08T12:59:02.000Z</time>
      </trkpt>
      <trkpt lat="45.17319" lon="6.0936">
        <ele>1562.5999755859</ele>
        <time>2012-01-08T12:59:06.000Z</time>
      </trkpt>
      <trkpt lat="45.1731" lon="6.09354">
        <ele>1559.5999755859</ele>
        <time>2012-01-08T12:59:09.000Z</time>
      </trkpt>
      <trkpt lat="45.173" lon="6.09352">
        <ele>1558</ele>
        <time>2012-01-08T12:59:13.000Z</time>
      </trkpt>
      <trkpt lat="45.1729" lon="6.09353">
        <ele>1554.1999511719</ele>
        <time>2012-01-08T12:59:17.000Z</time>
      </trkpt>
      <trkpt lat="45.17289" lon="6.09353">
        <ele>1552.8000488281</ele>
        <time>2012-01-08T12:59:20.000Z</time>
      </trkpt>
      <trkpt lat="45.17285" lon="6.09357">
        <ele>1552.8000488281</ele>
        <time>2012-01-08T12:59:29.000Z</time>
      </trkpt>
      <trkpt lat="45.17282" lon="6.09359">
        <ele>1552.4000244141</ele>
        <time>2012-01-08T12:59:40.000Z</time>
      </trkpt>
      <trkpt lat="45.17275" lon="6.09364">
        <ele>1549.4000244141</ele>
        <time>2012-01-08T12:59:44.000Z</time>
      </trkpt>
      <trkpt lat="45.17275" lon="6.09366">
        <ele>1549</ele>
        <time>2012-01-08T12:59:45.000Z</time>
      </trkpt>
      <trkpt lat="45.17265" lon="6.09377">
        <ele>1541.5999755859</ele>
        <time>2012-01-08T12:59:50.000Z</time>
      </trkpt>
      <trkpt lat="45.17261" lon="6.0938">
        <ele>1538.8000488281</ele>
        <time>2012-01-08T12:59:53.000Z</time>
      </trkpt>
      <trkpt lat="45.17257" lon="6.09385">
        <ele>1535.4000244141</ele>
        <time>2012-01-08T12:59:57.000Z</time>
      </trkpt>
      <trkpt lat="45.17247" lon="6.09382">
        <ele>1532.8000488281</ele>
        <time>2012-01-08T13:00:00.000Z</time>
      </trkpt>
      <trkpt lat="45.17227" lon="6.09369">
        <ele>1530</ele>
        <time>2012-01-08T13:00:05.000Z</time>
      </trkpt>
      <trkpt lat="45.17222" lon="6.0937">
        <ele>1529.1999511719</ele>
        <time>2012-01-08T13:00:09.000Z</time>
      </trkpt>
      <trkpt lat="45.17213" lon="6.09365">
        <ele>1525.8000488281</ele>
        <time>2012-01-08T13:00:13.000Z</time>
      </trkpt>
      <trkpt lat="45.17209" lon="6.09364">
        <ele>1524.5999755859</ele>
        <time>2012-01-08T13:00:15.000Z</time>
      </trkpt>
      <trkpt lat="45.17203" lon="6.09368">
        <ele>1516.8000488281</ele>
        <time>2012-01-08T13:00:19.000Z</time>
      </trkpt>
      <trkpt lat="45.17201" lon="6.09368">
        <ele>1518.5999755859</ele>
        <time>2012-01-08T13:00:23.000Z</time>
      </trkpt>
      <trkpt lat="45.17199" lon="6.09367">
        <ele>1518</ele>
        <time>2012-01-08T13:00:24.000Z</time>
      </trkpt>
      <trkpt lat="45.17198" lon="6.09368">
        <ele>1517.4000244141</ele>
        <time>2012-01-08T13:00:25.000Z</time>
      </trkpt>
      <trkpt lat="45.17197" lon="6.0938">
        <ele>1513.1999511719</ele>
        <time>2012-01-08T13:00:29.000Z</time>
      </trkpt>
      <trkpt lat="45.17207" lon="6.09395">
        <ele>1511.8000488281</ele>
        <time>2012-01-08T13:00:34.000Z</time>
      </trkpt>
      <trkpt lat="45.17208" lon="6.09414">
        <ele>1506.5999755859</ele>
        <time>2012-01-08T13:00:38.000Z</time>
      </trkpt>
      <trkpt lat="45.17192" lon="6.09439">
        <ele>1499.8000488281</ele>
        <time>2012-01-08T13:00:42.000Z</time>
      </trkpt>
      <trkpt lat="45.17179" lon="6.09438">
        <ele>1498</ele>
        <time>2012-01-08T13:00:45.000Z</time>
      </trkpt>
      <trkpt lat="45.17162" lon="6.0945">
        <ele>1495</ele>
        <time>2012-01-08T13:00:49.000Z</time>
      </trkpt>
      <trkpt lat="45.17148" lon="6.09458">
        <ele>1491</ele>
        <time>2012-01-08T13:00:52.000Z</time>
      </trkpt>
      <trkpt lat="45.17138" lon="6.09452">
        <ele>1488.5999755859</ele>
        <time>2012-01-08T13:00:55.000Z</time>
      </trkpt>
      <trkpt lat="45.17126" lon="6.09461">
        <ele>1485.4000244141</ele>
        <time>2012-01-08T13:00:58.000Z</time>
      </trkpt>
      <trkpt lat="45.17113" lon="6.09469">
        <ele>1479.8000488281</ele>
        <time>2012-01-08T13:01:02.000Z</time>
      </trkpt>
      <trkpt lat="45.171" lon="6.09471">
        <ele>1472.8000488281</ele>
        <time>2012-01-08T13:01:06.000Z</time>
      </trkpt>
      <trkpt lat="45.17086" lon="6.09476">
        <ele>1465.8000488281</ele>
        <time>2012-01-08T13:01:10.000Z</time>
      </trkpt>
      <trkpt lat="45.17074" lon="6.09482">
        <ele>1460.8000488281</ele>
        <time>2012-01-08T13:01:14.000Z</time>
      </trkpt>
      <trkpt lat="45.17063" lon="6.09473">
        <ele>1456.1999511719</ele>
        <time>2012-01-08T13:01:17.000Z</time>
      </trkpt>
      <trkpt lat="45.17036" lon="6.09464">
        <ele>1450.8000488281</ele>
        <time>2012-01-08T13:01:22.000Z</time>
      </trkpt>
      <trkpt lat="45.17015" lon="6.09459">
        <ele>1446.8000488281</ele>
        <time>2012-01-08T13:01:25.000Z</time>
      </trkpt>
      <trkpt lat="45.17002" lon="6.09458">
        <ele>1443.8000488281</ele>
        <time>2012-01-08T13:01:27.000Z</time>
      </trkpt>
      <trkpt lat="45.16965" lon="6.09448">
        <ele>1436.1999511719</ele>
        <time>2012-01-08T13:01:32.000Z</time>
      </trkpt>
      <trkpt lat="45.16923" lon="6.09447">
        <ele>1428.5999755859</ele>
        <time>2012-01-08T13:01:37.000Z</time>
      </trkpt>
      <trkpt lat="45.16917" lon="6.09446">
        <ele>1427.4000244141</ele>
        <time>2012-01-08T13:01:38.000Z</time>
      </trkpt>
      <trkpt lat="45.16905" lon="6.09441">
        <ele>1426</ele>
        <time>2012-01-08T13:01:40.000Z</time>
      </trkpt>
      <trkpt lat="45.16869" lon="6.09421">
        <ele>1421.4000244141</ele>
        <time>2012-01-08T13:01:46.000Z</time>
      </trkpt>
      <trkpt lat="45.16859" lon="6.09418">
        <ele>1419.8000488281</ele>
        <time>2012-01-08T13:01:49.000Z</time>
      </trkpt>
      <trkpt lat="45.16854" lon="6.09429">
        <ele>1419.8000488281</ele>
        <time>2012-01-08T13:01:56.000Z</time>
      </trkpt>
      <trkpt lat="45.1685" lon="6.09428">
        <ele>1419.5999755859</ele>
        <time>2012-01-08T13:02:01.000Z</time>
      </trkpt>
      <trkpt lat="45.16845" lon="6.09422">
        <ele>1419</ele>
        <time>2012-01-08T13:02:04.000Z</time>
      </trkpt>
      <trkpt lat="45.16843" lon="6.09429">
        <ele>1418</ele>
        <time>2012-01-08T13:02:08.000Z</time>
      </trkpt>
      <trkpt lat="45.16849" lon="6.0944">
        <ele>1415.8000488281</ele>
        <time>2012-01-08T13:02:12.000Z</time>
      </trkpt>
      <trkpt lat="45.16856" lon="6.09447">
        <ele>1414.8000488281</ele>
        <time>2012-01-08T13:02:14.000Z</time>
      </trkpt>
      <trkpt lat="45.16859" lon="6.0945">
        <ele>1414.8000488281</ele>
        <time>2012-01-08T13:02:15.000Z</time>
      </trkpt>
      <trkpt lat="45.16864" lon="6.09456">
        <ele>1412.8000488281</ele>
        <time>2012-01-08T13:02:20.000Z</time>
      </trkpt>
      <trkpt lat="45.1686" lon="6.09439">
        <ele>1413.5999755859</ele>
        <time>2012-01-08T13:03:10.000Z</time>
      </trkpt>
      <trkpt lat="45.16861" lon="6.09437">
        <ele>1414.1999511719</ele>
        <time>2012-01-08T13:03:13.000Z</time>
      </trkpt>
      <trkpt lat="45.16862" lon="6.09441">
        <ele>1414.5999755859</ele>
        <time>2012-01-08T13:03:20.000Z</time>
      </trkpt>
      <trkpt lat="45.16863" lon="6.09446">
        <ele>1415.4000244141</ele>
        <time>2012-01-08T13:03:49.000Z</time>
      </trkpt>
      <trkpt lat="45.16862" lon="6.09448">
        <ele>1413.8000488281</ele>
        <time>2012-01-08T13:03:53.000Z</time>
      </trkpt>
    </trkseg>
  </trk>
</gpx>